<?xml version="1.0" encoding="UTF-8" standalone="no" ?>
<gpx xmlns="http://www.topografix.com/GPX/1/1" xmlns:xsi="http://www.w3.org/2001/XMLSchema-instance" xsi:schemaLocation="http://www.topografix.com/GPX/1/1 http://www.topografix.com/GPX/1/1/gpx.xsd" version="1.1" creator="VisuGPX - https://www.visugpx.com">
  <metadata>
    <name>Tête des Follys</name>
  </metadata>
  <trk>
    <name><![CDATA[2021-08-23 tête des Follys]]></name>
    <trkseg>
      <trkpt lat="46.19419" lon="6.49654">
        <ele>873.390625</ele>
        <time>2021-08-23T14:42:38Z</time>
      </trkpt>
      <trkpt lat="46.19419" lon="6.49654">
        <ele>873.40625</ele>
        <time>2021-08-23T14:42:39Z</time>
      </trkpt>
      <trkpt lat="46.19422" lon="6.49658">
        <ele>873.2734375</ele>
        <time>2021-08-23T14:42:56Z</time>
      </trkpt>
      <trkpt lat="46.19422" lon="6.49657">
        <ele>873.296875</ele>
        <time>2021-08-23T14:43:36Z</time>
      </trkpt>
      <trkpt lat="46.19419" lon="6.49658">
        <ele>872.9921875</ele>
        <time>2021-08-23T14:44:13Z</time>
      </trkpt>
      <trkpt lat="46.1942" lon="6.49657">
        <ele>873.1796875</ele>
        <time>2021-08-23T14:44:56Z</time>
      </trkpt>
      <trkpt lat="46.19418" lon="6.49659">
        <ele>872.87890625</ele>
        <time>2021-08-23T14:45:25Z</time>
      </trkpt>
      <trkpt lat="46.19418" lon="6.49661">
        <ele>872.71484375</ele>
        <time>2021-08-23T14:45:57Z</time>
      </trkpt>
      <trkpt lat="46.19416" lon="6.4966">
        <ele>872.56640625</ele>
        <time>2021-08-23T14:46:34Z</time>
      </trkpt>
      <trkpt lat="46.19413" lon="6.49662">
        <ele>872.30859375</ele>
        <time>2021-08-23T14:47:11Z</time>
      </trkpt>
      <trkpt lat="46.19413" lon="6.49664">
        <ele>872.2578125</ele>
        <time>2021-08-23T14:47:53Z</time>
      </trkpt>
      <trkpt lat="46.19414" lon="6.49649">
        <ele>873.609375</ele>
        <time>2021-08-23T14:48:03Z</time>
      </trkpt>
      <trkpt lat="46.19413" lon="6.49646">
        <ele>873.83984375</ele>
        <time>2021-08-23T14:48:14Z</time>
      </trkpt>
      <trkpt lat="46.19413" lon="6.49644">
        <ele>874.10546875</ele>
        <time>2021-08-23T14:48:22Z</time>
      </trkpt>
      <trkpt lat="46.19414" lon="6.49644">
        <ele>874.1640625</ele>
        <time>2021-08-23T14:48:23Z</time>
      </trkpt>
      <trkpt lat="46.19414" lon="6.49641">
        <ele>874.453125</ele>
        <time>2021-08-23T14:48:25Z</time>
      </trkpt>
      <trkpt lat="46.19422" lon="6.49633">
        <ele>875.8984375</ele>
        <time>2021-08-23T14:48:42Z</time>
      </trkpt>
      <trkpt lat="46.19423" lon="6.49634">
        <ele>875.91015625</ele>
        <time>2021-08-23T14:48:49Z</time>
      </trkpt>
      <trkpt lat="46.19439" lon="6.4964">
        <ele>876.25</ele>
        <time>2021-08-23T14:48:57Z</time>
      </trkpt>
      <trkpt lat="46.19451" lon="6.49647">
        <ele>876.23046875</ele>
        <time>2021-08-23T14:49:01Z</time>
      </trkpt>
      <trkpt lat="46.19454" lon="6.49647">
        <ele>876.42578125</ele>
        <time>2021-08-23T14:49:02Z</time>
      </trkpt>
      <trkpt lat="46.19462" lon="6.49637">
        <ele>877.5703125</ele>
        <time>2021-08-23T14:49:05Z</time>
      </trkpt>
      <trkpt lat="46.1946" lon="6.49628">
        <ele>878.34375</ele>
        <time>2021-08-23T14:49:07Z</time>
      </trkpt>
      <trkpt lat="46.1946" lon="6.49624">
        <ele>878.72265625</ele>
        <time>2021-08-23T14:49:08Z</time>
      </trkpt>
      <trkpt lat="46.19461" lon="6.49622">
        <ele>879.02734375</ele>
        <time>2021-08-23T14:49:09Z</time>
      </trkpt>
      <trkpt lat="46.19462" lon="6.49621">
        <ele>879.1640625</ele>
        <time>2021-08-23T14:49:10Z</time>
      </trkpt>
      <trkpt lat="46.19463" lon="6.49622">
        <ele>879.1328125</ele>
        <time>2021-08-23T14:49:11Z</time>
      </trkpt>
      <trkpt lat="46.19465" lon="6.49625">
        <ele>878.85546875</ele>
        <time>2021-08-23T14:49:12Z</time>
      </trkpt>
      <trkpt lat="46.19465" lon="6.4963">
        <ele>878.28125</ele>
        <time>2021-08-23T14:49:13Z</time>
      </trkpt>
      <trkpt lat="46.19466" lon="6.49637">
        <ele>877.71875</ele>
        <time>2021-08-23T14:49:14Z</time>
      </trkpt>
      <trkpt lat="46.19467" lon="6.49645">
        <ele>877.1875</ele>
        <time>2021-08-23T14:49:15Z</time>
      </trkpt>
      <trkpt lat="46.1947" lon="6.49666">
        <ele>875.87109375</ele>
        <time>2021-08-23T14:49:18Z</time>
      </trkpt>
      <trkpt lat="46.19473" lon="6.49671">
        <ele>875.66796875</ele>
        <time>2021-08-23T14:49:19Z</time>
      </trkpt>
      <trkpt lat="46.19477" lon="6.49677">
        <ele>875.5625</ele>
        <time>2021-08-23T14:49:20Z</time>
      </trkpt>
      <trkpt lat="46.19486" lon="6.49688">
        <ele>875.60546875</ele>
        <time>2021-08-23T14:49:22Z</time>
      </trkpt>
      <trkpt lat="46.19491" lon="6.49694">
        <ele>875.56640625</ele>
        <time>2021-08-23T14:49:23Z</time>
      </trkpt>
      <trkpt lat="46.19506" lon="6.49708">
        <ele>875.46875</ele>
        <time>2021-08-23T14:49:26Z</time>
      </trkpt>
      <trkpt lat="46.19509" lon="6.49714">
        <ele>875.359375</ele>
        <time>2021-08-23T14:49:27Z</time>
      </trkpt>
      <trkpt lat="46.1951" lon="6.49722">
        <ele>875.203125</ele>
        <time>2021-08-23T14:49:28Z</time>
      </trkpt>
      <trkpt lat="46.19509" lon="6.49729">
        <ele>874.96484375</ele>
        <time>2021-08-23T14:49:29Z</time>
      </trkpt>
      <trkpt lat="46.19507" lon="6.49734">
        <ele>874.7578125</ele>
        <time>2021-08-23T14:49:30Z</time>
      </trkpt>
      <trkpt lat="46.19506" lon="6.49738">
        <ele>874.66796875</ele>
        <time>2021-08-23T14:49:31Z</time>
      </trkpt>
      <trkpt lat="46.19507" lon="6.4974">
        <ele>874.640625</ele>
        <time>2021-08-23T14:49:32Z</time>
      </trkpt>
      <trkpt lat="46.19508" lon="6.49744">
        <ele>874.6171875</ele>
        <time>2021-08-23T14:49:33Z</time>
      </trkpt>
      <trkpt lat="46.19511" lon="6.49748">
        <ele>874.66796875</ele>
        <time>2021-08-23T14:49:34Z</time>
      </trkpt>
      <trkpt lat="46.19514" lon="6.49755">
        <ele>874.74609375</ele>
        <time>2021-08-23T14:49:35Z</time>
      </trkpt>
      <trkpt lat="46.19516" lon="6.49761">
        <ele>874.84765625</ele>
        <time>2021-08-23T14:49:36Z</time>
      </trkpt>
      <trkpt lat="46.1952" lon="6.49775">
        <ele>875.03125</ele>
        <time>2021-08-23T14:49:38Z</time>
      </trkpt>
      <trkpt lat="46.19521" lon="6.4978">
        <ele>875.0703125</ele>
        <time>2021-08-23T14:49:39Z</time>
      </trkpt>
      <trkpt lat="46.19521" lon="6.49787">
        <ele>875.0859375</ele>
        <time>2021-08-23T14:49:41Z</time>
      </trkpt>
      <trkpt lat="46.19519" lon="6.4979">
        <ele>875.02734375</ele>
        <time>2021-08-23T14:49:42Z</time>
      </trkpt>
      <trkpt lat="46.19517" lon="6.49792">
        <ele>874.84765625</ele>
        <time>2021-08-23T14:49:43Z</time>
      </trkpt>
      <trkpt lat="46.19513" lon="6.49793">
        <ele>874.5625</ele>
        <time>2021-08-23T14:49:44Z</time>
      </trkpt>
      <trkpt lat="46.19508" lon="6.49792">
        <ele>874.25390625</ele>
        <time>2021-08-23T14:49:45Z</time>
      </trkpt>
      <trkpt lat="46.19504" lon="6.4979">
        <ele>873.93359375</ele>
        <time>2021-08-23T14:49:46Z</time>
      </trkpt>
      <trkpt lat="46.19494" lon="6.49788">
        <ele>873.20703125</ele>
        <time>2021-08-23T14:49:48Z</time>
      </trkpt>
      <trkpt lat="46.19489" lon="6.49788">
        <ele>872.9140625</ele>
        <time>2021-08-23T14:49:49Z</time>
      </trkpt>
      <trkpt lat="46.19402" lon="6.498">
        <ele>868.85546875</ele>
        <time>2021-08-23T14:50:05Z</time>
      </trkpt>
      <trkpt lat="46.19379" lon="6.49804">
        <ele>868.19140625</ele>
        <time>2021-08-23T14:50:10Z</time>
      </trkpt>
      <trkpt lat="46.1936" lon="6.49804">
        <ele>867.64453125</ele>
        <time>2021-08-23T14:50:14Z</time>
      </trkpt>
      <trkpt lat="46.19301" lon="6.49808">
        <ele>867.3515625</ele>
        <time>2021-08-23T14:50:25Z</time>
      </trkpt>
      <trkpt lat="46.19297" lon="6.49811">
        <ele>867.453125</ele>
        <time>2021-08-23T14:50:26Z</time>
      </trkpt>
      <trkpt lat="46.19289" lon="6.49818">
        <ele>867.90625</ele>
        <time>2021-08-23T14:50:28Z</time>
      </trkpt>
      <trkpt lat="46.19274" lon="6.49835">
        <ele>869.1953125</ele>
        <time>2021-08-23T14:50:32Z</time>
      </trkpt>
      <trkpt lat="46.19273" lon="6.4984">
        <ele>869.40625</ele>
        <time>2021-08-23T14:50:33Z</time>
      </trkpt>
      <trkpt lat="46.19273" lon="6.49845">
        <ele>869.6171875</ele>
        <time>2021-08-23T14:50:34Z</time>
      </trkpt>
      <trkpt lat="46.19282" lon="6.4989">
        <ele>871.609375</ele>
        <time>2021-08-23T14:50:43Z</time>
      </trkpt>
      <trkpt lat="46.19286" lon="6.49912">
        <ele>873.078125</ele>
        <time>2021-08-23T14:50:47Z</time>
      </trkpt>
      <trkpt lat="46.19288" lon="6.49924">
        <ele>873.5234375</ele>
        <time>2021-08-23T14:50:49Z</time>
      </trkpt>
      <trkpt lat="46.19288" lon="6.4993">
        <ele>873.75</ele>
        <time>2021-08-23T14:50:50Z</time>
      </trkpt>
      <trkpt lat="46.19285" lon="6.49962">
        <ele>875.74609375</ele>
        <time>2021-08-23T14:50:55Z</time>
      </trkpt>
      <trkpt lat="46.19285" lon="6.49968">
        <ele>876.1015625</ele>
        <time>2021-08-23T14:50:56Z</time>
      </trkpt>
      <trkpt lat="46.19301" lon="6.50049">
        <ele>879.84375</ele>
        <time>2021-08-23T14:51:10Z</time>
      </trkpt>
      <trkpt lat="46.19301" lon="6.50067">
        <ele>880.4921875</ele>
        <time>2021-08-23T14:51:13Z</time>
      </trkpt>
      <trkpt lat="46.19301" lon="6.50073">
        <ele>880.73046875</ele>
        <time>2021-08-23T14:51:14Z</time>
      </trkpt>
      <trkpt lat="46.193" lon="6.50079">
        <ele>880.97265625</ele>
        <time>2021-08-23T14:51:15Z</time>
      </trkpt>
      <trkpt lat="46.19295" lon="6.50096">
        <ele>881.75</ele>
        <time>2021-08-23T14:51:18Z</time>
      </trkpt>
      <trkpt lat="46.19269" lon="6.50155">
        <ele>885.71875</ele>
        <time>2021-08-23T14:51:30Z</time>
      </trkpt>
      <trkpt lat="46.19246" lon="6.50199">
        <ele>889.44921875</ele>
        <time>2021-08-23T14:51:39Z</time>
      </trkpt>
      <trkpt lat="46.19237" lon="6.50211">
        <ele>891.03125</ele>
        <time>2021-08-23T14:51:42Z</time>
      </trkpt>
      <trkpt lat="46.19234" lon="6.50215">
        <ele>891.51953125</ele>
        <time>2021-08-23T14:51:43Z</time>
      </trkpt>
      <trkpt lat="46.19203" lon="6.50269">
        <ele>896</ele>
        <time>2021-08-23T14:51:57Z</time>
      </trkpt>
      <trkpt lat="46.19193" lon="6.50326">
        <ele>901.2265625</ele>
        <time>2021-08-23T14:52:10Z</time>
      </trkpt>
      <trkpt lat="46.19192" lon="6.5038">
        <ele>906.69921875</ele>
        <time>2021-08-23T14:52:23Z</time>
      </trkpt>
      <trkpt lat="46.19192" lon="6.50392">
        <ele>907.86328125</ele>
        <time>2021-08-23T14:52:26Z</time>
      </trkpt>
      <trkpt lat="46.19192" lon="6.50396">
        <ele>908.19921875</ele>
        <time>2021-08-23T14:52:27Z</time>
      </trkpt>
      <trkpt lat="46.19193" lon="6.504">
        <ele>908.45703125</ele>
        <time>2021-08-23T14:52:28Z</time>
      </trkpt>
      <trkpt lat="46.19205" lon="6.50448">
        <ele>909.58203125</ele>
        <time>2021-08-23T14:52:39Z</time>
      </trkpt>
      <trkpt lat="46.19205" lon="6.50455">
        <ele>909.921875</ele>
        <time>2021-08-23T14:52:41Z</time>
      </trkpt>
      <trkpt lat="46.19204" lon="6.50457">
        <ele>910.37890625</ele>
        <time>2021-08-23T14:52:42Z</time>
      </trkpt>
      <trkpt lat="46.19202" lon="6.50458">
        <ele>911.0234375</ele>
        <time>2021-08-23T14:52:43Z</time>
      </trkpt>
      <trkpt lat="46.19196" lon="6.50452">
        <ele>912.265625</ele>
        <time>2021-08-23T14:52:46Z</time>
      </trkpt>
      <trkpt lat="46.19195" lon="6.50448">
        <ele>912.2890625</ele>
        <time>2021-08-23T14:52:47Z</time>
      </trkpt>
      <trkpt lat="46.19194" lon="6.50444">
        <ele>912.375</ele>
        <time>2021-08-23T14:52:48Z</time>
      </trkpt>
      <trkpt lat="46.19193" lon="6.5044">
        <ele>912.42578125</ele>
        <time>2021-08-23T14:52:49Z</time>
      </trkpt>
      <trkpt lat="46.19191" lon="6.50437">
        <ele>912.546875</ele>
        <time>2021-08-23T14:52:50Z</time>
      </trkpt>
      <trkpt lat="46.1919" lon="6.50433">
        <ele>912.43359375</ele>
        <time>2021-08-23T14:52:51Z</time>
      </trkpt>
      <trkpt lat="46.19189" lon="6.50429">
        <ele>912.3203125</ele>
        <time>2021-08-23T14:52:52Z</time>
      </trkpt>
      <trkpt lat="46.19177" lon="6.50402">
        <ele>911.90625</ele>
        <time>2021-08-23T14:53:00Z</time>
      </trkpt>
      <trkpt lat="46.19141" lon="6.50369">
        <ele>913.28125</ele>
        <time>2021-08-23T14:53:13Z</time>
      </trkpt>
      <trkpt lat="46.19125" lon="6.50359">
        <ele>913.58984375</ele>
        <time>2021-08-23T14:53:17Z</time>
      </trkpt>
      <trkpt lat="46.19115" lon="6.50355">
        <ele>913.78515625</ele>
        <time>2021-08-23T14:53:19Z</time>
      </trkpt>
      <trkpt lat="46.19084" lon="6.5034">
        <ele>915.16796875</ele>
        <time>2021-08-23T14:53:25Z</time>
      </trkpt>
      <trkpt lat="46.19079" lon="6.5034">
        <ele>915.671875</ele>
        <time>2021-08-23T14:53:26Z</time>
      </trkpt>
      <trkpt lat="46.19043" lon="6.50336">
        <ele>918.0546875</ele>
        <time>2021-08-23T14:53:32Z</time>
      </trkpt>
      <trkpt lat="46.19037" lon="6.50333">
        <ele>917.91015625</ele>
        <time>2021-08-23T14:53:33Z</time>
      </trkpt>
      <trkpt lat="46.18969" lon="6.50295">
        <ele>913.5078125</ele>
        <time>2021-08-23T14:53:45Z</time>
      </trkpt>
      <trkpt lat="46.18963" lon="6.50294">
        <ele>913.39453125</ele>
        <time>2021-08-23T14:53:46Z</time>
      </trkpt>
      <trkpt lat="46.18957" lon="6.50294">
        <ele>913.4296875</ele>
        <time>2021-08-23T14:53:47Z</time>
      </trkpt>
      <trkpt lat="46.18903" lon="6.50306">
        <ele>914.4765625</ele>
        <time>2021-08-23T14:53:57Z</time>
      </trkpt>
      <trkpt lat="46.18859" lon="6.50323">
        <ele>914.87890625</ele>
        <time>2021-08-23T14:54:07Z</time>
      </trkpt>
      <trkpt lat="46.18823" lon="6.50341">
        <ele>915.54296875</ele>
        <time>2021-08-23T14:54:16Z</time>
      </trkpt>
      <trkpt lat="46.1882" lon="6.50344">
        <ele>915.66015625</ele>
        <time>2021-08-23T14:54:17Z</time>
      </trkpt>
      <trkpt lat="46.18818" lon="6.50349">
        <ele>915.84765625</ele>
        <time>2021-08-23T14:54:18Z</time>
      </trkpt>
      <trkpt lat="46.18817" lon="6.50355">
        <ele>916.07421875</ele>
        <time>2021-08-23T14:54:19Z</time>
      </trkpt>
      <trkpt lat="46.18818" lon="6.5036">
        <ele>916.39453125</ele>
        <time>2021-08-23T14:54:20Z</time>
      </trkpt>
      <trkpt lat="46.18819" lon="6.50364">
        <ele>916.69140625</ele>
        <time>2021-08-23T14:54:21Z</time>
      </trkpt>
      <trkpt lat="46.18821" lon="6.50368">
        <ele>916.984375</ele>
        <time>2021-08-23T14:54:22Z</time>
      </trkpt>
      <trkpt lat="46.18815" lon="6.50422">
        <ele>919.89453125</ele>
        <time>2021-08-23T14:54:34Z</time>
      </trkpt>
      <trkpt lat="46.18805" lon="6.50483">
        <ele>923.2890625</ele>
        <time>2021-08-23T14:54:47Z</time>
      </trkpt>
      <trkpt lat="46.18814" lon="6.50529">
        <ele>927.6875</ele>
        <time>2021-08-23T14:54:57Z</time>
      </trkpt>
      <trkpt lat="46.18842" lon="6.50536">
        <ele>929.34765625</ele>
        <time>2021-08-23T14:55:06Z</time>
      </trkpt>
      <trkpt lat="46.1888" lon="6.50513">
        <ele>929.44140625</ele>
        <time>2021-08-23T14:55:19Z</time>
      </trkpt>
      <trkpt lat="46.18904" lon="6.50519">
        <ele>931.609375</ele>
        <time>2021-08-23T14:55:27Z</time>
      </trkpt>
      <trkpt lat="46.18935" lon="6.50578">
        <ele>937.015625</ele>
        <time>2021-08-23T14:55:43Z</time>
      </trkpt>
      <trkpt lat="46.18951" lon="6.50614">
        <ele>940.578125</ele>
        <time>2021-08-23T14:55:52Z</time>
      </trkpt>
      <trkpt lat="46.18955" lon="6.50661">
        <ele>945.6328125</ele>
        <time>2021-08-23T14:56:03Z</time>
      </trkpt>
      <trkpt lat="46.18949" lon="6.50677">
        <ele>946.9375</ele>
        <time>2021-08-23T14:56:08Z</time>
      </trkpt>
      <trkpt lat="46.18939" lon="6.50713">
        <ele>951.91796875</ele>
        <time>2021-08-23T14:56:19Z</time>
      </trkpt>
      <trkpt lat="46.1896" lon="6.50716">
        <ele>953.9296875</ele>
        <time>2021-08-23T14:56:29Z</time>
      </trkpt>
      <trkpt lat="46.18984" lon="6.50715">
        <ele>954.8125</ele>
        <time>2021-08-23T14:56:39Z</time>
      </trkpt>
      <trkpt lat="46.19001" lon="6.50723">
        <ele>956.2265625</ele>
        <time>2021-08-23T14:56:46Z</time>
      </trkpt>
      <trkpt lat="46.19041" lon="6.50738">
        <ele>957.74609375</ele>
        <time>2021-08-23T14:57:00Z</time>
      </trkpt>
      <trkpt lat="46.19053" lon="6.50789">
        <ele>964.375</ele>
        <time>2021-08-23T14:57:12Z</time>
      </trkpt>
      <trkpt lat="46.19071" lon="6.50831">
        <ele>969.15625</ele>
        <time>2021-08-23T14:57:24Z</time>
      </trkpt>
      <trkpt lat="46.19086" lon="6.50875">
        <ele>972.6953125</ele>
        <time>2021-08-23T14:57:37Z</time>
      </trkpt>
      <trkpt lat="46.19081" lon="6.50917">
        <ele>977.609375</ele>
        <time>2021-08-23T14:57:49Z</time>
      </trkpt>
      <trkpt lat="46.1908" lon="6.5094">
        <ele>980.09765625</ele>
        <time>2021-08-23T14:57:56Z</time>
      </trkpt>
      <trkpt lat="46.19085" lon="6.50973">
        <ele>981.4765625</ele>
        <time>2021-08-23T14:58:05Z</time>
      </trkpt>
      <trkpt lat="46.19086" lon="6.50989">
        <ele>981.81640625</ele>
        <time>2021-08-23T14:58:09Z</time>
      </trkpt>
      <trkpt lat="46.19082" lon="6.51027">
        <ele>983.39453125</ele>
        <time>2021-08-23T14:58:19Z</time>
      </trkpt>
      <trkpt lat="46.19082" lon="6.51031">
        <ele>983.453125</ele>
        <time>2021-08-23T14:58:20Z</time>
      </trkpt>
      <trkpt lat="46.19079" lon="6.51065">
        <ele>984.21875</ele>
        <time>2021-08-23T14:58:30Z</time>
      </trkpt>
      <trkpt lat="46.19079" lon="6.5107">
        <ele>984.234375</ele>
        <time>2021-08-23T14:58:32Z</time>
      </trkpt>
      <trkpt lat="46.19078" lon="6.51073">
        <ele>984.29296875</ele>
        <time>2021-08-23T14:58:33Z</time>
      </trkpt>
      <trkpt lat="46.19078" lon="6.51081">
        <ele>984.4296875</ele>
        <time>2021-08-23T14:58:34Z</time>
      </trkpt>
      <trkpt lat="46.19075" lon="6.51089">
        <ele>984.83984375</ele>
        <time>2021-08-23T14:58:35Z</time>
      </trkpt>
      <trkpt lat="46.19074" lon="6.51095">
        <ele>985.125</ele>
        <time>2021-08-23T14:58:36Z</time>
      </trkpt>
      <trkpt lat="46.19072" lon="6.51099">
        <ele>985.37890625</ele>
        <time>2021-08-23T14:58:37Z</time>
      </trkpt>
      <trkpt lat="46.19072" lon="6.51103">
        <ele>985.5390625</ele>
        <time>2021-08-23T14:58:38Z</time>
      </trkpt>
      <trkpt lat="46.1907" lon="6.51107">
        <ele>985.7890625</ele>
        <time>2021-08-23T14:58:39Z</time>
      </trkpt>
      <trkpt lat="46.19068" lon="6.5111">
        <ele>986.09375</ele>
        <time>2021-08-23T14:58:40Z</time>
      </trkpt>
      <trkpt lat="46.19052" lon="6.51136">
        <ele>988.8828125</ele>
        <time>2021-08-23T14:58:48Z</time>
      </trkpt>
      <trkpt lat="46.19018" lon="6.51153">
        <ele>993.640625</ele>
        <time>2021-08-23T14:59:02Z</time>
      </trkpt>
      <trkpt lat="46.18998" lon="6.51182">
        <ele>997.3515625</ele>
        <time>2021-08-23T14:59:14Z</time>
      </trkpt>
      <trkpt lat="46.1899" lon="6.51227">
        <ele>1001.6953125</ele>
        <time>2021-08-23T14:59:25Z</time>
      </trkpt>
      <trkpt lat="46.18988" lon="6.5123">
        <ele>1002.5390625</ele>
        <time>2021-08-23T14:59:26Z</time>
      </trkpt>
      <trkpt lat="46.18986" lon="6.51233">
        <ele>1003.46484375</ele>
        <time>2021-08-23T14:59:27Z</time>
      </trkpt>
      <trkpt lat="46.18984" lon="6.51235">
        <ele>1004.453125</ele>
        <time>2021-08-23T14:59:28Z</time>
      </trkpt>
      <trkpt lat="46.18981" lon="6.51237">
        <ele>1005.3125</ele>
        <time>2021-08-23T14:59:29Z</time>
      </trkpt>
      <trkpt lat="46.18979" lon="6.51237">
        <ele>1006.0390625</ele>
        <time>2021-08-23T14:59:30Z</time>
      </trkpt>
      <trkpt lat="46.18976" lon="6.51237">
        <ele>1006.8125</ele>
        <time>2021-08-23T14:59:31Z</time>
      </trkpt>
      <trkpt lat="46.18974" lon="6.51237">
        <ele>1007.4296875</ele>
        <time>2021-08-23T14:59:32Z</time>
      </trkpt>
      <trkpt lat="46.18957" lon="6.51222">
        <ele>1010.91015625</ele>
        <time>2021-08-23T14:59:41Z</time>
      </trkpt>
      <trkpt lat="46.18949" lon="6.51208">
        <ele>1012.0859375</ele>
        <time>2021-08-23T14:59:46Z</time>
      </trkpt>
      <trkpt lat="46.18937" lon="6.5118">
        <ele>1012.83984375</ele>
        <time>2021-08-23T14:59:57Z</time>
      </trkpt>
      <trkpt lat="46.18916" lon="6.51141">
        <ele>1015.12109375</ele>
        <time>2021-08-23T15:00:13Z</time>
      </trkpt>
      <trkpt lat="46.18907" lon="6.51139">
        <ele>1017.140625</ele>
        <time>2021-08-23T15:00:20Z</time>
      </trkpt>
      <trkpt lat="46.18903" lon="6.51143">
        <ele>1018.7578125</ele>
        <time>2021-08-23T15:00:23Z</time>
      </trkpt>
      <trkpt lat="46.18902" lon="6.51144">
        <ele>1019.21875</ele>
        <time>2021-08-23T15:00:24Z</time>
      </trkpt>
      <trkpt lat="46.18901" lon="6.51146">
        <ele>1019.72265625</ele>
        <time>2021-08-23T15:00:25Z</time>
      </trkpt>
      <trkpt lat="46.18899" lon="6.51149">
        <ele>1020.51171875</ele>
        <time>2021-08-23T15:00:26Z</time>
      </trkpt>
      <trkpt lat="46.18898" lon="6.51152">
        <ele>1021.26171875</ele>
        <time>2021-08-23T15:00:27Z</time>
      </trkpt>
      <trkpt lat="46.18886" lon="6.51167">
        <ele>1026.609375</ele>
        <time>2021-08-23T15:00:33Z</time>
      </trkpt>
      <trkpt lat="46.18885" lon="6.51168">
        <ele>1027.27734375</ele>
        <time>2021-08-23T15:00:34Z</time>
      </trkpt>
      <trkpt lat="46.18873" lon="6.51176">
        <ele>1032.2265625</ele>
        <time>2021-08-23T15:00:43Z</time>
      </trkpt>
      <trkpt lat="46.1887" lon="6.51175">
        <ele>1032.79296875</ele>
        <time>2021-08-23T15:00:46Z</time>
      </trkpt>
      <trkpt lat="46.18869" lon="6.51174">
        <ele>1033.1015625</ele>
        <time>2021-08-23T15:00:47Z</time>
      </trkpt>
      <trkpt lat="46.18867" lon="6.51173">
        <ele>1033.34765625</ele>
        <time>2021-08-23T15:00:48Z</time>
      </trkpt>
      <trkpt lat="46.18865" lon="6.51171">
        <ele>1033.546875</ele>
        <time>2021-08-23T15:00:49Z</time>
      </trkpt>
      <trkpt lat="46.18864" lon="6.51169">
        <ele>1033.56640625</ele>
        <time>2021-08-23T15:00:50Z</time>
      </trkpt>
      <trkpt lat="46.18862" lon="6.51167">
        <ele>1033.63671875</ele>
        <time>2021-08-23T15:00:51Z</time>
      </trkpt>
      <trkpt lat="46.1886" lon="6.51164">
        <ele>1033.78515625</ele>
        <time>2021-08-23T15:00:52Z</time>
      </trkpt>
      <trkpt lat="46.18858" lon="6.51161">
        <ele>1033.859375</ele>
        <time>2021-08-23T15:00:53Z</time>
      </trkpt>
      <trkpt lat="46.18844" lon="6.51135">
        <ele>1033.0703125</ele>
        <time>2021-08-23T15:01:03Z</time>
      </trkpt>
      <trkpt lat="46.18843" lon="6.51133">
        <ele>1033.08203125</ele>
        <time>2021-08-23T15:01:04Z</time>
      </trkpt>
      <trkpt lat="46.1883" lon="6.51121">
        <ele>1033.26953125</ele>
        <time>2021-08-23T15:01:14Z</time>
      </trkpt>
      <trkpt lat="46.18826" lon="6.51119">
        <ele>1033.56640625</ele>
        <time>2021-08-23T15:01:16Z</time>
      </trkpt>
      <trkpt lat="46.18802" lon="6.51103">
        <ele>1031.6875</ele>
        <time>2021-08-23T15:01:28Z</time>
      </trkpt>
      <trkpt lat="46.18786" lon="6.51097">
        <ele>1030.48046875</ele>
        <time>2021-08-23T15:01:39Z</time>
      </trkpt>
      <trkpt lat="46.18785" lon="6.51099">
        <ele>1030.7265625</ele>
        <time>2021-08-23T15:01:40Z</time>
      </trkpt>
      <trkpt lat="46.18784" lon="6.51101">
        <ele>1031.078125</ele>
        <time>2021-08-23T15:01:41Z</time>
      </trkpt>
      <trkpt lat="46.18783" lon="6.51104">
        <ele>1031.5546875</ele>
        <time>2021-08-23T15:01:42Z</time>
      </trkpt>
      <trkpt lat="46.18783" lon="6.51106">
        <ele>1032.15234375</ele>
        <time>2021-08-23T15:01:43Z</time>
      </trkpt>
      <trkpt lat="46.18783" lon="6.51109">
        <ele>1032.80078125</ele>
        <time>2021-08-23T15:01:44Z</time>
      </trkpt>
      <trkpt lat="46.18783" lon="6.51112">
        <ele>1033.34375</ele>
        <time>2021-08-23T15:01:45Z</time>
      </trkpt>
      <trkpt lat="46.18783" lon="6.51115">
        <ele>1033.9453125</ele>
        <time>2021-08-23T15:01:46Z</time>
      </trkpt>
      <trkpt lat="46.18784" lon="6.51117">
        <ele>1034.5703125</ele>
        <time>2021-08-23T15:01:47Z</time>
      </trkpt>
      <trkpt lat="46.18784" lon="6.51129">
        <ele>1037.03125</ele>
        <time>2021-08-23T15:01:51Z</time>
      </trkpt>
      <trkpt lat="46.18785" lon="6.51141">
        <ele>1039.8046875</ele>
        <time>2021-08-23T15:01:57Z</time>
      </trkpt>
      <trkpt lat="46.1878" lon="6.51158">
        <ele>1043.27734375</ele>
        <time>2021-08-23T15:02:07Z</time>
      </trkpt>
      <trkpt lat="46.18777" lon="6.51171">
        <ele>1045.8125</ele>
        <time>2021-08-23T15:02:15Z</time>
      </trkpt>
      <trkpt lat="46.18774" lon="6.51176">
        <ele>1046.73046875</ele>
        <time>2021-08-23T15:02:18Z</time>
      </trkpt>
      <trkpt lat="46.1877" lon="6.51182">
        <ele>1048.0390625</ele>
        <time>2021-08-23T15:02:23Z</time>
      </trkpt>
      <trkpt lat="46.18768" lon="6.51184">
        <ele>1048.328125</ele>
        <time>2021-08-23T15:02:24Z</time>
      </trkpt>
      <trkpt lat="46.18767" lon="6.51187">
        <ele>1048.6875</ele>
        <time>2021-08-23T15:02:25Z</time>
      </trkpt>
      <trkpt lat="46.18762" lon="6.51201">
        <ele>1050.56640625</ele>
        <time>2021-08-23T15:02:30Z</time>
      </trkpt>
      <trkpt lat="46.1876" lon="6.51204">
        <ele>1051.0625</ele>
        <time>2021-08-23T15:02:31Z</time>
      </trkpt>
      <trkpt lat="46.18759" lon="6.51207">
        <ele>1051.56640625</ele>
        <time>2021-08-23T15:02:32Z</time>
      </trkpt>
      <trkpt lat="46.18745" lon="6.5123">
        <ele>1054.1328125</ele>
        <time>2021-08-23T15:02:44Z</time>
      </trkpt>
      <trkpt lat="46.18733" lon="6.51242">
        <ele>1055.359375</ele>
        <time>2021-08-23T15:02:55Z</time>
      </trkpt>
      <trkpt lat="46.18714" lon="6.51265">
        <ele>1058.98828125</ele>
        <time>2021-08-23T15:03:06Z</time>
      </trkpt>
      <trkpt lat="46.18712" lon="6.51269">
        <ele>1059.68359375</ele>
        <time>2021-08-23T15:03:07Z</time>
      </trkpt>
      <trkpt lat="46.18708" lon="6.51277">
        <ele>1061.5859375</ele>
        <time>2021-08-23T15:03:10Z</time>
      </trkpt>
      <trkpt lat="46.18707" lon="6.51279">
        <ele>1062.2578125</ele>
        <time>2021-08-23T15:03:11Z</time>
      </trkpt>
      <trkpt lat="46.18707" lon="6.51282">
        <ele>1062.86328125</ele>
        <time>2021-08-23T15:03:12Z</time>
      </trkpt>
      <trkpt lat="46.18713" lon="6.51303">
        <ele>1068.4765625</ele>
        <time>2021-08-23T15:03:21Z</time>
      </trkpt>
      <trkpt lat="46.18722" lon="6.51323">
        <ele>1073.015625</ele>
        <time>2021-08-23T15:03:32Z</time>
      </trkpt>
      <trkpt lat="46.18721" lon="6.51328">
        <ele>1074.4921875</ele>
        <time>2021-08-23T15:03:34Z</time>
      </trkpt>
      <trkpt lat="46.18718" lon="6.5133">
        <ele>1075.41015625</ele>
        <time>2021-08-23T15:03:35Z</time>
      </trkpt>
      <trkpt lat="46.18716" lon="6.51333">
        <ele>1076.24609375</ele>
        <time>2021-08-23T15:03:36Z</time>
      </trkpt>
      <trkpt lat="46.18713" lon="6.51335">
        <ele>1077.04296875</ele>
        <time>2021-08-23T15:03:37Z</time>
      </trkpt>
      <trkpt lat="46.18711" lon="6.51336">
        <ele>1077.51171875</ele>
        <time>2021-08-23T15:03:38Z</time>
      </trkpt>
      <trkpt lat="46.18703" lon="6.51336">
        <ele>1078.05078125</ele>
        <time>2021-08-23T15:03:45Z</time>
      </trkpt>
      <trkpt lat="46.18689" lon="6.51332">
        <ele>1077.88671875</ele>
        <time>2021-08-23T15:03:54Z</time>
      </trkpt>
      <trkpt lat="46.18647" lon="6.51333">
        <ele>1080.27734375</ele>
        <time>2021-08-23T15:04:07Z</time>
      </trkpt>
      <trkpt lat="46.18638" lon="6.51337">
        <ele>1081.90234375</ele>
        <time>2021-08-23T15:04:13Z</time>
      </trkpt>
      <trkpt lat="46.18637" lon="6.5134">
        <ele>1082.86328125</ele>
        <time>2021-08-23T15:04:14Z</time>
      </trkpt>
      <trkpt lat="46.18637" lon="6.51343">
        <ele>1083.859375</ele>
        <time>2021-08-23T15:04:15Z</time>
      </trkpt>
      <trkpt lat="46.18638" lon="6.51346">
        <ele>1084.6796875</ele>
        <time>2021-08-23T15:04:16Z</time>
      </trkpt>
      <trkpt lat="46.18639" lon="6.51348">
        <ele>1085.37109375</ele>
        <time>2021-08-23T15:04:17Z</time>
      </trkpt>
      <trkpt lat="46.18641" lon="6.5135">
        <ele>1085.94140625</ele>
        <time>2021-08-23T15:04:18Z</time>
      </trkpt>
      <trkpt lat="46.18642" lon="6.51351">
        <ele>1086.453125</ele>
        <time>2021-08-23T15:04:19Z</time>
      </trkpt>
      <trkpt lat="46.18667" lon="6.51364">
        <ele>1089.66796875</ele>
        <time>2021-08-23T15:04:33Z</time>
      </trkpt>
      <trkpt lat="46.1867" lon="6.51366">
        <ele>1090.34375</ele>
        <time>2021-08-23T15:04:35Z</time>
      </trkpt>
      <trkpt lat="46.18682" lon="6.51372">
        <ele>1091.98828125</ele>
        <time>2021-08-23T15:04:42Z</time>
      </trkpt>
      <trkpt lat="46.18684" lon="6.51374">
        <ele>1092.3984375</ele>
        <time>2021-08-23T15:04:43Z</time>
      </trkpt>
      <trkpt lat="46.18707" lon="6.51389">
        <ele>1096.10546875</ele>
        <time>2021-08-23T15:04:54Z</time>
      </trkpt>
      <trkpt lat="46.18717" lon="6.51401">
        <ele>1098.98046875</ele>
        <time>2021-08-23T15:05:00Z</time>
      </trkpt>
      <trkpt lat="46.18719" lon="6.51404">
        <ele>1099.5</ele>
        <time>2021-08-23T15:05:01Z</time>
      </trkpt>
      <trkpt lat="46.1872" lon="6.51406">
        <ele>1099.9765625</ele>
        <time>2021-08-23T15:05:02Z</time>
      </trkpt>
      <trkpt lat="46.18721" lon="6.51408">
        <ele>1100.3359375</ele>
        <time>2021-08-23T15:05:03Z</time>
      </trkpt>
      <trkpt lat="46.18722" lon="6.5141">
        <ele>1100.67578125</ele>
        <time>2021-08-23T15:05:04Z</time>
      </trkpt>
      <trkpt lat="46.18723" lon="6.51411">
        <ele>1100.9765625</ele>
        <time>2021-08-23T15:05:05Z</time>
      </trkpt>
      <trkpt lat="46.18724" lon="6.51413">
        <ele>1101.328125</ele>
        <time>2021-08-23T15:05:06Z</time>
      </trkpt>
      <trkpt lat="46.18725" lon="6.51415">
        <ele>1101.74609375</ele>
        <time>2021-08-23T15:05:07Z</time>
      </trkpt>
      <trkpt lat="46.18726" lon="6.51418">
        <ele>1102.21875</ele>
        <time>2021-08-23T15:05:08Z</time>
      </trkpt>
      <trkpt lat="46.18735" lon="6.51437">
        <ele>1105.46875</ele>
        <time>2021-08-23T15:05:18Z</time>
      </trkpt>
      <trkpt lat="46.18743" lon="6.51448">
        <ele>1105.69140625</ele>
        <time>2021-08-23T15:05:23Z</time>
      </trkpt>
      <trkpt lat="46.18744" lon="6.51449">
        <ele>1105.40234375</ele>
        <time>2021-08-23T15:05:24Z</time>
      </trkpt>
      <trkpt lat="46.18745" lon="6.51451">
        <ele>1105.22265625</ele>
        <time>2021-08-23T15:05:25Z</time>
      </trkpt>
      <trkpt lat="46.18747" lon="6.51453">
        <ele>1105.0078125</ele>
        <time>2021-08-23T15:05:26Z</time>
      </trkpt>
      <trkpt lat="46.18748" lon="6.51455">
        <ele>1105.08203125</ele>
        <time>2021-08-23T15:05:27Z</time>
      </trkpt>
      <trkpt lat="46.18748" lon="6.51457">
        <ele>1105.3046875</ele>
        <time>2021-08-23T15:05:28Z</time>
      </trkpt>
      <trkpt lat="46.18749" lon="6.51459">
        <ele>1105.54296875</ele>
        <time>2021-08-23T15:05:29Z</time>
      </trkpt>
      <trkpt lat="46.18749" lon="6.51461">
        <ele>1105.734375</ele>
        <time>2021-08-23T15:05:30Z</time>
      </trkpt>
      <trkpt lat="46.18749" lon="6.51463">
        <ele>1106</ele>
        <time>2021-08-23T15:05:31Z</time>
      </trkpt>
      <trkpt lat="46.1875" lon="6.51466">
        <ele>1106.1640625</ele>
        <time>2021-08-23T15:05:32Z</time>
      </trkpt>
      <trkpt lat="46.18753" lon="6.51474">
        <ele>1106.5</ele>
        <time>2021-08-23T15:05:36Z</time>
      </trkpt>
      <trkpt lat="46.18754" lon="6.51476">
        <ele>1106.82421875</ele>
        <time>2021-08-23T15:05:37Z</time>
      </trkpt>
      <trkpt lat="46.18754" lon="6.51486">
        <ele>1108.55078125</ele>
        <time>2021-08-23T15:05:41Z</time>
      </trkpt>
      <trkpt lat="46.18753" lon="6.51488">
        <ele>1109.3515625</ele>
        <time>2021-08-23T15:05:42Z</time>
      </trkpt>
      <trkpt lat="46.18746" lon="6.51515">
        <ele>1116.0390625</ele>
        <time>2021-08-23T15:05:52Z</time>
      </trkpt>
      <trkpt lat="46.18746" lon="6.51516">
        <ele>1116.171875</ele>
        <time>2021-08-23T15:05:53Z</time>
      </trkpt>
      <trkpt lat="46.18749" lon="6.51543">
        <ele>1118.39453125</ele>
        <time>2021-08-23T15:06:04Z</time>
      </trkpt>
      <trkpt lat="46.1875" lon="6.51546">
        <ele>1118.46484375</ele>
        <time>2021-08-23T15:06:05Z</time>
      </trkpt>
      <trkpt lat="46.1875" lon="6.51548">
        <ele>1118.640625</ele>
        <time>2021-08-23T15:06:06Z</time>
      </trkpt>
      <trkpt lat="46.18751" lon="6.51552">
        <ele>1118.7265625</ele>
        <time>2021-08-23T15:06:08Z</time>
      </trkpt>
      <trkpt lat="46.1875" lon="6.51555">
        <ele>1119.28125</ele>
        <time>2021-08-23T15:06:09Z</time>
      </trkpt>
      <trkpt lat="46.18749" lon="6.51558">
        <ele>1120.1640625</ele>
        <time>2021-08-23T15:06:10Z</time>
      </trkpt>
      <trkpt lat="46.18749" lon="6.51561">
        <ele>1120.8125</ele>
        <time>2021-08-23T15:06:11Z</time>
      </trkpt>
      <trkpt lat="46.18748" lon="6.51564">
        <ele>1121.6328125</ele>
        <time>2021-08-23T15:06:12Z</time>
      </trkpt>
      <trkpt lat="46.18747" lon="6.51566">
        <ele>1122.3515625</ele>
        <time>2021-08-23T15:06:13Z</time>
      </trkpt>
      <trkpt lat="46.18747" lon="6.51569">
        <ele>1122.64453125</ele>
        <time>2021-08-23T15:06:14Z</time>
      </trkpt>
      <trkpt lat="46.18747" lon="6.51572">
        <ele>1122.75</ele>
        <time>2021-08-23T15:06:15Z</time>
      </trkpt>
      <trkpt lat="46.18747" lon="6.51574">
        <ele>1123.375</ele>
        <time>2021-08-23T15:06:16Z</time>
      </trkpt>
      <trkpt lat="46.18747" lon="6.51577">
        <ele>1123.61328125</ele>
        <time>2021-08-23T15:06:17Z</time>
      </trkpt>
      <trkpt lat="46.18747" lon="6.51578">
        <ele>1123.74609375</ele>
        <time>2021-08-23T15:06:18Z</time>
      </trkpt>
      <trkpt lat="46.18746" lon="6.5158">
        <ele>1124.01171875</ele>
        <time>2021-08-23T15:06:19Z</time>
      </trkpt>
      <trkpt lat="46.18747" lon="6.51583">
        <ele>1123.8828125</ele>
        <time>2021-08-23T15:06:20Z</time>
      </trkpt>
      <trkpt lat="46.18746" lon="6.51585">
        <ele>1124.0703125</ele>
        <time>2021-08-23T15:06:21Z</time>
      </trkpt>
      <trkpt lat="46.18746" lon="6.51587">
        <ele>1124.125</ele>
        <time>2021-08-23T15:06:22Z</time>
      </trkpt>
      <trkpt lat="46.1874" lon="6.51611">
        <ele>1128.7109375</ele>
        <time>2021-08-23T15:06:34Z</time>
      </trkpt>
      <trkpt lat="46.18734" lon="6.51628">
        <ele>1133.0546875</ele>
        <time>2021-08-23T15:06:42Z</time>
      </trkpt>
      <trkpt lat="46.18733" lon="6.51633">
        <ele>1133.65625</ele>
        <time>2021-08-23T15:06:44Z</time>
      </trkpt>
      <trkpt lat="46.18733" lon="6.51636">
        <ele>1134.15234375</ele>
        <time>2021-08-23T15:06:45Z</time>
      </trkpt>
      <trkpt lat="46.18732" lon="6.51638">
        <ele>1134.55078125</ele>
        <time>2021-08-23T15:06:46Z</time>
      </trkpt>
      <trkpt lat="46.18732" lon="6.51641">
        <ele>1134.8671875</ele>
        <time>2021-08-23T15:06:47Z</time>
      </trkpt>
      <trkpt lat="46.18732" lon="6.51643">
        <ele>1135.265625</ele>
        <time>2021-08-23T15:06:48Z</time>
      </trkpt>
      <trkpt lat="46.18731" lon="6.51645">
        <ele>1135.49609375</ele>
        <time>2021-08-23T15:06:49Z</time>
      </trkpt>
      <trkpt lat="46.18731" lon="6.51647">
        <ele>1136.17578125</ele>
        <time>2021-08-23T15:06:50Z</time>
      </trkpt>
      <trkpt lat="46.1873" lon="6.51649">
        <ele>1136.734375</ele>
        <time>2021-08-23T15:06:51Z</time>
      </trkpt>
      <trkpt lat="46.1873" lon="6.51652">
        <ele>1137.10546875</ele>
        <time>2021-08-23T15:06:52Z</time>
      </trkpt>
      <trkpt lat="46.18729" lon="6.51654">
        <ele>1137.76171875</ele>
        <time>2021-08-23T15:06:53Z</time>
      </trkpt>
      <trkpt lat="46.18729" lon="6.51658">
        <ele>1138.03515625</ele>
        <time>2021-08-23T15:06:55Z</time>
      </trkpt>
      <trkpt lat="46.18728" lon="6.5166">
        <ele>1138.53515625</ele>
        <time>2021-08-23T15:06:56Z</time>
      </trkpt>
      <trkpt lat="46.18728" lon="6.51662">
        <ele>1138.87109375</ele>
        <time>2021-08-23T15:06:57Z</time>
      </trkpt>
      <trkpt lat="46.18728" lon="6.51664">
        <ele>1139.0078125</ele>
        <time>2021-08-23T15:06:58Z</time>
      </trkpt>
      <trkpt lat="46.18728" lon="6.51666">
        <ele>1139.26953125</ele>
        <time>2021-08-23T15:06:59Z</time>
      </trkpt>
      <trkpt lat="46.18727" lon="6.51669">
        <ele>1139.83203125</ele>
        <time>2021-08-23T15:07:00Z</time>
      </trkpt>
      <trkpt lat="46.18728" lon="6.51672">
        <ele>1139.68359375</ele>
        <time>2021-08-23T15:07:01Z</time>
      </trkpt>
      <trkpt lat="46.1873" lon="6.51688">
        <ele>1138.6328125</ele>
        <time>2021-08-23T15:07:07Z</time>
      </trkpt>
      <trkpt lat="46.18726" lon="6.51701">
        <ele>1143.125</ele>
        <time>2021-08-23T15:07:12Z</time>
      </trkpt>
      <trkpt lat="46.18725" lon="6.51703">
        <ele>1144.125</ele>
        <time>2021-08-23T15:07:13Z</time>
      </trkpt>
      <trkpt lat="46.18724" lon="6.51705">
        <ele>1145.08203125</ele>
        <time>2021-08-23T15:07:14Z</time>
      </trkpt>
      <trkpt lat="46.18723" lon="6.51707">
        <ele>1146</ele>
        <time>2021-08-23T15:07:15Z</time>
      </trkpt>
      <trkpt lat="46.18722" lon="6.51709">
        <ele>1146.46875</ele>
        <time>2021-08-23T15:07:16Z</time>
      </trkpt>
      <trkpt lat="46.18722" lon="6.51711">
        <ele>1147.12890625</ele>
        <time>2021-08-23T15:07:17Z</time>
      </trkpt>
      <trkpt lat="46.18722" lon="6.51713">
        <ele>1147.25390625</ele>
        <time>2021-08-23T15:07:18Z</time>
      </trkpt>
      <trkpt lat="46.18722" lon="6.51716">
        <ele>1147.2578125</ele>
        <time>2021-08-23T15:07:19Z</time>
      </trkpt>
      <trkpt lat="46.18723" lon="6.51721">
        <ele>1147.46875</ele>
        <time>2021-08-23T15:07:21Z</time>
      </trkpt>
      <trkpt lat="46.18723" lon="6.51723">
        <ele>1147.703125</ele>
        <time>2021-08-23T15:07:22Z</time>
      </trkpt>
      <trkpt lat="46.18723" lon="6.51726">
        <ele>1148.20703125</ele>
        <time>2021-08-23T15:07:23Z</time>
      </trkpt>
      <trkpt lat="46.18723" lon="6.51739">
        <ele>1149.9765625</ele>
        <time>2021-08-23T15:07:28Z</time>
      </trkpt>
      <trkpt lat="46.18723" lon="6.51741">
        <ele>1150.34765625</ele>
        <time>2021-08-23T15:07:29Z</time>
      </trkpt>
      <trkpt lat="46.18723" lon="6.51743">
        <ele>1150.5</ele>
        <time>2021-08-23T15:07:30Z</time>
      </trkpt>
      <trkpt lat="46.18724" lon="6.51745">
        <ele>1150.5234375</ele>
        <time>2021-08-23T15:07:31Z</time>
      </trkpt>
      <trkpt lat="46.18725" lon="6.51748">
        <ele>1150.328125</ele>
        <time>2021-08-23T15:07:32Z</time>
      </trkpt>
      <trkpt lat="46.18726" lon="6.51751">
        <ele>1150.21875</ele>
        <time>2021-08-23T15:07:33Z</time>
      </trkpt>
      <trkpt lat="46.18729" lon="6.51765">
        <ele>1150.5234375</ele>
        <time>2021-08-23T15:07:39Z</time>
      </trkpt>
      <trkpt lat="46.1873" lon="6.51767">
        <ele>1150.5859375</ele>
        <time>2021-08-23T15:07:40Z</time>
      </trkpt>
      <trkpt lat="46.18731" lon="6.51769">
        <ele>1150.578125</ele>
        <time>2021-08-23T15:07:41Z</time>
      </trkpt>
      <trkpt lat="46.18732" lon="6.51772">
        <ele>1150.16015625</ele>
        <time>2021-08-23T15:07:42Z</time>
      </trkpt>
      <trkpt lat="46.18734" lon="6.51774">
        <ele>1149.890625</ele>
        <time>2021-08-23T15:07:43Z</time>
      </trkpt>
      <trkpt lat="46.18735" lon="6.51776">
        <ele>1149.6640625</ele>
        <time>2021-08-23T15:07:44Z</time>
      </trkpt>
      <trkpt lat="46.18737" lon="6.5178">
        <ele>1149.44921875</ele>
        <time>2021-08-23T15:07:46Z</time>
      </trkpt>
      <trkpt lat="46.18737" lon="6.51782">
        <ele>1149.66796875</ele>
        <time>2021-08-23T15:07:47Z</time>
      </trkpt>
      <trkpt lat="46.18738" lon="6.51789">
        <ele>1150.92578125</ele>
        <time>2021-08-23T15:07:51Z</time>
      </trkpt>
      <trkpt lat="46.18745" lon="6.51811">
        <ele>1152.32421875</ele>
        <time>2021-08-23T15:08:01Z</time>
      </trkpt>
      <trkpt lat="46.18744" lon="6.51813">
        <ele>1153.1875</ele>
        <time>2021-08-23T15:08:02Z</time>
      </trkpt>
      <trkpt lat="46.18744" lon="6.51815">
        <ele>1153.8515625</ele>
        <time>2021-08-23T15:08:03Z</time>
      </trkpt>
      <trkpt lat="46.18744" lon="6.51817">
        <ele>1154.09765625</ele>
        <time>2021-08-23T15:08:04Z</time>
      </trkpt>
      <trkpt lat="46.18745" lon="6.5182">
        <ele>1154.37109375</ele>
        <time>2021-08-23T15:08:05Z</time>
      </trkpt>
      <trkpt lat="46.18746" lon="6.51822">
        <ele>1154.59765625</ele>
        <time>2021-08-23T15:08:06Z</time>
      </trkpt>
      <trkpt lat="46.18746" lon="6.51833">
        <ele>1156.32421875</ele>
        <time>2021-08-23T15:08:10Z</time>
      </trkpt>
      <trkpt lat="46.18747" lon="6.51834">
        <ele>1155.98828125</ele>
        <time>2021-08-23T15:08:11Z</time>
      </trkpt>
      <trkpt lat="46.18748" lon="6.51836">
        <ele>1155.8515625</ele>
        <time>2021-08-23T15:08:12Z</time>
      </trkpt>
      <trkpt lat="46.18749" lon="6.51838">
        <ele>1156.01171875</ele>
        <time>2021-08-23T15:08:13Z</time>
      </trkpt>
      <trkpt lat="46.18749" lon="6.5184">
        <ele>1156.42578125</ele>
        <time>2021-08-23T15:08:14Z</time>
      </trkpt>
      <trkpt lat="46.18749" lon="6.51843">
        <ele>1156.42578125</ele>
        <time>2021-08-23T15:08:15Z</time>
      </trkpt>
      <trkpt lat="46.1875" lon="6.51845">
        <ele>1156.46875</ele>
        <time>2021-08-23T15:08:16Z</time>
      </trkpt>
      <trkpt lat="46.18754" lon="6.51863">
        <ele>1157.30859375</ele>
        <time>2021-08-23T15:08:23Z</time>
      </trkpt>
      <trkpt lat="46.18756" lon="6.51875">
        <ele>1157.49609375</ele>
        <time>2021-08-23T15:08:28Z</time>
      </trkpt>
      <trkpt lat="46.18764" lon="6.51904">
        <ele>1155.37109375</ele>
        <time>2021-08-23T15:08:40Z</time>
      </trkpt>
      <trkpt lat="46.18762" lon="6.51933">
        <ele>1157.05859375</ele>
        <time>2021-08-23T15:08:50Z</time>
      </trkpt>
      <trkpt lat="46.18757" lon="6.51944">
        <ele>1160.55859375</ele>
        <time>2021-08-23T15:08:56Z</time>
      </trkpt>
      <trkpt lat="46.18757" lon="6.51946">
        <ele>1160.625</ele>
        <time>2021-08-23T15:08:57Z</time>
      </trkpt>
      <trkpt lat="46.18756" lon="6.51948">
        <ele>1160.671875</ele>
        <time>2021-08-23T15:08:58Z</time>
      </trkpt>
      <trkpt lat="46.18756" lon="6.5195">
        <ele>1161.05859375</ele>
        <time>2021-08-23T15:08:59Z</time>
      </trkpt>
      <trkpt lat="46.18755" lon="6.51951">
        <ele>1161.75</ele>
        <time>2021-08-23T15:09:00Z</time>
      </trkpt>
      <trkpt lat="46.18754" lon="6.51953">
        <ele>1162.18359375</ele>
        <time>2021-08-23T15:09:01Z</time>
      </trkpt>
      <trkpt lat="46.18753" lon="6.51955">
        <ele>1162.37890625</ele>
        <time>2021-08-23T15:09:02Z</time>
      </trkpt>
      <trkpt lat="46.1875" lon="6.51965">
        <ele>1164.27734375</ele>
        <time>2021-08-23T15:09:07Z</time>
      </trkpt>
      <trkpt lat="46.18745" lon="6.51986">
        <ele>1167.46484375</ele>
        <time>2021-08-23T15:09:17Z</time>
      </trkpt>
      <trkpt lat="46.18745" lon="6.51989">
        <ele>1167.08203125</ele>
        <time>2021-08-23T15:09:19Z</time>
      </trkpt>
      <trkpt lat="46.18746" lon="6.51991">
        <ele>1166.765625</ele>
        <time>2021-08-23T15:09:20Z</time>
      </trkpt>
      <trkpt lat="46.18746" lon="6.51993">
        <ele>1166.73046875</ele>
        <time>2021-08-23T15:09:21Z</time>
      </trkpt>
      <trkpt lat="46.18746" lon="6.52024">
        <ele>1165.51171875</ele>
        <time>2021-08-23T15:09:34Z</time>
      </trkpt>
      <trkpt lat="46.18746" lon="6.52026">
        <ele>1165.7265625</ele>
        <time>2021-08-23T15:09:35Z</time>
      </trkpt>
      <trkpt lat="46.18745" lon="6.52033">
        <ele>1166.19921875</ele>
        <time>2021-08-23T15:09:38Z</time>
      </trkpt>
      <trkpt lat="46.18744" lon="6.52035">
        <ele>1166.62890625</ele>
        <time>2021-08-23T15:09:39Z</time>
      </trkpt>
      <trkpt lat="46.18743" lon="6.52036">
        <ele>1167.05078125</ele>
        <time>2021-08-23T15:09:40Z</time>
      </trkpt>
      <trkpt lat="46.18742" lon="6.52038">
        <ele>1167.8125</ele>
        <time>2021-08-23T15:09:41Z</time>
      </trkpt>
      <trkpt lat="46.18741" lon="6.52041">
        <ele>1168.27734375</ele>
        <time>2021-08-23T15:09:43Z</time>
      </trkpt>
      <trkpt lat="46.18739" lon="6.52049">
        <ele>1169.8046875</ele>
        <time>2021-08-23T15:09:47Z</time>
      </trkpt>
      <trkpt lat="46.18738" lon="6.52051">
        <ele>1170.421875</ele>
        <time>2021-08-23T15:09:48Z</time>
      </trkpt>
      <trkpt lat="46.18737" lon="6.52054">
        <ele>1170.7890625</ele>
        <time>2021-08-23T15:09:49Z</time>
      </trkpt>
      <trkpt lat="46.18736" lon="6.52056">
        <ele>1171.34375</ele>
        <time>2021-08-23T15:09:50Z</time>
      </trkpt>
      <trkpt lat="46.18735" lon="6.52058">
        <ele>1171.7265625</ele>
        <time>2021-08-23T15:09:51Z</time>
      </trkpt>
      <trkpt lat="46.18733" lon="6.52063">
        <ele>1172.53125</ele>
        <time>2021-08-23T15:09:53Z</time>
      </trkpt>
      <trkpt lat="46.18733" lon="6.52066">
        <ele>1172.66015625</ele>
        <time>2021-08-23T15:09:54Z</time>
      </trkpt>
      <trkpt lat="46.18733" lon="6.52068">
        <ele>1172.6171875</ele>
        <time>2021-08-23T15:09:55Z</time>
      </trkpt>
      <trkpt lat="46.18732" lon="6.52071">
        <ele>1173.02734375</ele>
        <time>2021-08-23T15:09:56Z</time>
      </trkpt>
      <trkpt lat="46.18731" lon="6.52073">
        <ele>1173.43359375</ele>
        <time>2021-08-23T15:09:57Z</time>
      </trkpt>
      <trkpt lat="46.1873" lon="6.52075">
        <ele>1173.609375</ele>
        <time>2021-08-23T15:09:58Z</time>
      </trkpt>
      <trkpt lat="46.18729" lon="6.52078">
        <ele>1173.890625</ele>
        <time>2021-08-23T15:09:59Z</time>
      </trkpt>
      <trkpt lat="46.18729" lon="6.5208">
        <ele>1174.04296875</ele>
        <time>2021-08-23T15:10:00Z</time>
      </trkpt>
      <trkpt lat="46.18729" lon="6.52083">
        <ele>1173.89453125</ele>
        <time>2021-08-23T15:10:01Z</time>
      </trkpt>
      <trkpt lat="46.18728" lon="6.52085">
        <ele>1173.8046875</ele>
        <time>2021-08-23T15:10:02Z</time>
      </trkpt>
      <trkpt lat="46.18728" lon="6.52087">
        <ele>1173.9296875</ele>
        <time>2021-08-23T15:10:03Z</time>
      </trkpt>
      <trkpt lat="46.18727" lon="6.52089">
        <ele>1174.28515625</ele>
        <time>2021-08-23T15:10:04Z</time>
      </trkpt>
      <trkpt lat="46.18726" lon="6.52097">
        <ele>1174.390625</ele>
        <time>2021-08-23T15:10:08Z</time>
      </trkpt>
      <trkpt lat="46.18725" lon="6.52099">
        <ele>1174.3984375</ele>
        <time>2021-08-23T15:10:09Z</time>
      </trkpt>
      <trkpt lat="46.18725" lon="6.52102">
        <ele>1174.35546875</ele>
        <time>2021-08-23T15:10:10Z</time>
      </trkpt>
      <trkpt lat="46.18725" lon="6.52104">
        <ele>1174.16796875</ele>
        <time>2021-08-23T15:10:11Z</time>
      </trkpt>
      <trkpt lat="46.18724" lon="6.52105">
        <ele>1174.0703125</ele>
        <time>2021-08-23T15:10:12Z</time>
      </trkpt>
      <trkpt lat="46.1872" lon="6.52124">
        <ele>1173.359375</ele>
        <time>2021-08-23T15:10:20Z</time>
      </trkpt>
      <trkpt lat="46.18717" lon="6.52133">
        <ele>1173.26953125</ele>
        <time>2021-08-23T15:10:24Z</time>
      </trkpt>
      <trkpt lat="46.18716" lon="6.52136">
        <ele>1173.28125</ele>
        <time>2021-08-23T15:10:25Z</time>
      </trkpt>
      <trkpt lat="46.1871" lon="6.52148">
        <ele>1174.3046875</ele>
        <time>2021-08-23T15:10:31Z</time>
      </trkpt>
      <trkpt lat="46.18701" lon="6.5216">
        <ele>1177.50390625</ele>
        <time>2021-08-23T15:10:38Z</time>
      </trkpt>
      <trkpt lat="46.187" lon="6.52162">
        <ele>1177.76953125</ele>
        <time>2021-08-23T15:10:39Z</time>
      </trkpt>
      <trkpt lat="46.18686" lon="6.52184">
        <ele>1183.2890625</ele>
        <time>2021-08-23T15:10:50Z</time>
      </trkpt>
      <trkpt lat="46.18684" lon="6.52187">
        <ele>1183.9609375</ele>
        <time>2021-08-23T15:10:52Z</time>
      </trkpt>
      <trkpt lat="46.18683" lon="6.52188">
        <ele>1184.6328125</ele>
        <time>2021-08-23T15:10:53Z</time>
      </trkpt>
      <trkpt lat="46.18681" lon="6.52189">
        <ele>1185.5625</ele>
        <time>2021-08-23T15:10:54Z</time>
      </trkpt>
      <trkpt lat="46.18679" lon="6.5219">
        <ele>1186.2578125</ele>
        <time>2021-08-23T15:10:55Z</time>
      </trkpt>
      <trkpt lat="46.18678" lon="6.52191">
        <ele>1186.68359375</ele>
        <time>2021-08-23T15:10:56Z</time>
      </trkpt>
      <trkpt lat="46.18677" lon="6.52192">
        <ele>1187.2578125</ele>
        <time>2021-08-23T15:10:57Z</time>
      </trkpt>
      <trkpt lat="46.18669" lon="6.52199">
        <ele>1190.390625</ele>
        <time>2021-08-23T15:11:05Z</time>
      </trkpt>
      <trkpt lat="46.18662" lon="6.52212">
        <ele>1192.2890625</ele>
        <time>2021-08-23T15:11:13Z</time>
      </trkpt>
      <trkpt lat="46.1866" lon="6.52214">
        <ele>1193.1875</ele>
        <time>2021-08-23T15:11:15Z</time>
      </trkpt>
      <trkpt lat="46.18654" lon="6.52218">
        <ele>1195.5859375</ele>
        <time>2021-08-23T15:11:19Z</time>
      </trkpt>
      <trkpt lat="46.18643" lon="6.52231">
        <ele>1200.02734375</ele>
        <time>2021-08-23T15:11:27Z</time>
      </trkpt>
      <trkpt lat="46.18635" lon="6.5224">
        <ele>1203.0625</ele>
        <time>2021-08-23T15:11:32Z</time>
      </trkpt>
      <trkpt lat="46.18634" lon="6.52242">
        <ele>1203.48046875</ele>
        <time>2021-08-23T15:11:33Z</time>
      </trkpt>
      <trkpt lat="46.18633" lon="6.52244">
        <ele>1204.37890625</ele>
        <time>2021-08-23T15:11:34Z</time>
      </trkpt>
      <trkpt lat="46.18632" lon="6.52246">
        <ele>1205.35546875</ele>
        <time>2021-08-23T15:11:35Z</time>
      </trkpt>
      <trkpt lat="46.18629" lon="6.52248">
        <ele>1207.21875</ele>
        <time>2021-08-23T15:11:37Z</time>
      </trkpt>
      <trkpt lat="46.18627" lon="6.5225">
        <ele>1208.4296875</ele>
        <time>2021-08-23T15:11:38Z</time>
      </trkpt>
      <trkpt lat="46.18626" lon="6.52252">
        <ele>1209.36328125</ele>
        <time>2021-08-23T15:11:39Z</time>
      </trkpt>
      <trkpt lat="46.18621" lon="6.52263">
        <ele>1214.15625</ele>
        <time>2021-08-23T15:11:43Z</time>
      </trkpt>
      <trkpt lat="46.18622" lon="6.52266">
        <ele>1214.6796875</ele>
        <time>2021-08-23T15:11:44Z</time>
      </trkpt>
      <trkpt lat="46.18622" lon="6.52269">
        <ele>1215.0703125</ele>
        <time>2021-08-23T15:11:45Z</time>
      </trkpt>
      <trkpt lat="46.18622" lon="6.52271">
        <ele>1215.4921875</ele>
        <time>2021-08-23T15:11:46Z</time>
      </trkpt>
      <trkpt lat="46.18623" lon="6.52272">
        <ele>1215.625</ele>
        <time>2021-08-23T15:11:47Z</time>
      </trkpt>
      <trkpt lat="46.18624" lon="6.52274">
        <ele>1215.6484375</ele>
        <time>2021-08-23T15:11:48Z</time>
      </trkpt>
      <trkpt lat="46.18625" lon="6.52275">
        <ele>1215.5859375</ele>
        <time>2021-08-23T15:11:49Z</time>
      </trkpt>
      <trkpt lat="46.18626" lon="6.52277">
        <ele>1215.3671875</ele>
        <time>2021-08-23T15:11:50Z</time>
      </trkpt>
      <trkpt lat="46.18628" lon="6.52278">
        <ele>1215.12890625</ele>
        <time>2021-08-23T15:11:51Z</time>
      </trkpt>
      <trkpt lat="46.18631" lon="6.52281">
        <ele>1214.55078125</ele>
        <time>2021-08-23T15:11:53Z</time>
      </trkpt>
      <trkpt lat="46.18634" lon="6.52283">
        <ele>1213.87109375</ele>
        <time>2021-08-23T15:11:55Z</time>
      </trkpt>
      <trkpt lat="46.18638" lon="6.52288">
        <ele>1213.25</ele>
        <time>2021-08-23T15:11:59Z</time>
      </trkpt>
      <trkpt lat="46.18642" lon="6.52314">
        <ele>1218.65625</ele>
        <time>2021-08-23T15:12:11Z</time>
      </trkpt>
      <trkpt lat="46.18649" lon="6.5235">
        <ele>1224.31640625</ele>
        <time>2021-08-23T15:12:27Z</time>
      </trkpt>
      <trkpt lat="46.18653" lon="6.52363">
        <ele>1225.25390625</ele>
        <time>2021-08-23T15:12:33Z</time>
      </trkpt>
      <trkpt lat="46.18661" lon="6.52393">
        <ele>1227.71484375</ele>
        <time>2021-08-23T15:12:45Z</time>
      </trkpt>
      <trkpt lat="46.18662" lon="6.52396">
        <ele>1227.734375</ele>
        <time>2021-08-23T15:12:46Z</time>
      </trkpt>
      <trkpt lat="46.18663" lon="6.52398">
        <ele>1227.6796875</ele>
        <time>2021-08-23T15:12:47Z</time>
      </trkpt>
      <trkpt lat="46.18673" lon="6.52433">
        <ele>1228.37109375</ele>
        <time>2021-08-23T15:12:59Z</time>
      </trkpt>
      <trkpt lat="46.18674" lon="6.52435">
        <ele>1228.203125</ele>
        <time>2021-08-23T15:13:00Z</time>
      </trkpt>
      <trkpt lat="46.1868" lon="6.52445">
        <ele>1225.79296875</ele>
        <time>2021-08-23T15:13:05Z</time>
      </trkpt>
      <trkpt lat="46.1868" lon="6.52447">
        <ele>1226.23828125</ele>
        <time>2021-08-23T15:13:06Z</time>
      </trkpt>
      <trkpt lat="46.1868" lon="6.5245">
        <ele>1226.70703125</ele>
        <time>2021-08-23T15:13:07Z</time>
      </trkpt>
      <trkpt lat="46.18679" lon="6.52453">
        <ele>1227.609375</ele>
        <time>2021-08-23T15:13:08Z</time>
      </trkpt>
      <trkpt lat="46.18679" lon="6.52456">
        <ele>1228.30859375</ele>
        <time>2021-08-23T15:13:09Z</time>
      </trkpt>
      <trkpt lat="46.18679" lon="6.52458">
        <ele>1228.875</ele>
        <time>2021-08-23T15:13:10Z</time>
      </trkpt>
      <trkpt lat="46.1868" lon="6.52461">
        <ele>1229.0859375</ele>
        <time>2021-08-23T15:13:11Z</time>
      </trkpt>
      <trkpt lat="46.1868" lon="6.52463">
        <ele>1229.546875</ele>
        <time>2021-08-23T15:13:12Z</time>
      </trkpt>
      <trkpt lat="46.18679" lon="6.52466">
        <ele>1230.0859375</ele>
        <time>2021-08-23T15:13:13Z</time>
      </trkpt>
      <trkpt lat="46.18679" lon="6.52468">
        <ele>1230.69921875</ele>
        <time>2021-08-23T15:13:14Z</time>
      </trkpt>
      <trkpt lat="46.18679" lon="6.52471">
        <ele>1231.10546875</ele>
        <time>2021-08-23T15:13:15Z</time>
      </trkpt>
      <trkpt lat="46.1868" lon="6.52473">
        <ele>1231.390625</ele>
        <time>2021-08-23T15:13:16Z</time>
      </trkpt>
      <trkpt lat="46.1868" lon="6.52476">
        <ele>1231.8125</ele>
        <time>2021-08-23T15:13:17Z</time>
      </trkpt>
      <trkpt lat="46.1868" lon="6.52486">
        <ele>1233.30078125</ele>
        <time>2021-08-23T15:13:21Z</time>
      </trkpt>
      <trkpt lat="46.18681" lon="6.52488">
        <ele>1233.43359375</ele>
        <time>2021-08-23T15:13:22Z</time>
      </trkpt>
      <trkpt lat="46.18681" lon="6.52491">
        <ele>1233.56640625</ele>
        <time>2021-08-23T15:13:23Z</time>
      </trkpt>
      <trkpt lat="46.18682" lon="6.52493">
        <ele>1233.51953125</ele>
        <time>2021-08-23T15:13:24Z</time>
      </trkpt>
      <trkpt lat="46.18682" lon="6.52495">
        <ele>1233.296875</ele>
        <time>2021-08-23T15:13:25Z</time>
      </trkpt>
      <trkpt lat="46.18683" lon="6.52498">
        <ele>1233.3046875</ele>
        <time>2021-08-23T15:13:26Z</time>
      </trkpt>
      <trkpt lat="46.18685" lon="6.52507">
        <ele>1232.83203125</ele>
        <time>2021-08-23T15:13:30Z</time>
      </trkpt>
      <trkpt lat="46.18685" lon="6.52509">
        <ele>1232.90625</ele>
        <time>2021-08-23T15:13:31Z</time>
      </trkpt>
      <trkpt lat="46.18686" lon="6.52512">
        <ele>1233.171875</ele>
        <time>2021-08-23T15:13:32Z</time>
      </trkpt>
      <trkpt lat="46.18686" lon="6.52514">
        <ele>1233.37109375</ele>
        <time>2021-08-23T15:13:33Z</time>
      </trkpt>
      <trkpt lat="46.18686" lon="6.52517">
        <ele>1233.828125</ele>
        <time>2021-08-23T15:13:34Z</time>
      </trkpt>
      <trkpt lat="46.18686" lon="6.52519">
        <ele>1234.234375</ele>
        <time>2021-08-23T15:13:35Z</time>
      </trkpt>
      <trkpt lat="46.18686" lon="6.52521">
        <ele>1234.62109375</ele>
        <time>2021-08-23T15:13:36Z</time>
      </trkpt>
      <trkpt lat="46.18686" lon="6.52524">
        <ele>1234.7265625</ele>
        <time>2021-08-23T15:13:37Z</time>
      </trkpt>
      <trkpt lat="46.18686" lon="6.52526">
        <ele>1234.79296875</ele>
        <time>2021-08-23T15:13:38Z</time>
      </trkpt>
      <trkpt lat="46.18687" lon="6.52528">
        <ele>1234.44921875</ele>
        <time>2021-08-23T15:13:39Z</time>
      </trkpt>
      <trkpt lat="46.18687" lon="6.52531">
        <ele>1234.53515625</ele>
        <time>2021-08-23T15:13:40Z</time>
      </trkpt>
      <trkpt lat="46.18688" lon="6.52539">
        <ele>1235.1484375</ele>
        <time>2021-08-23T15:13:43Z</time>
      </trkpt>
      <trkpt lat="46.18688" lon="6.52542">
        <ele>1235.5625</ele>
        <time>2021-08-23T15:13:44Z</time>
      </trkpt>
      <trkpt lat="46.18688" lon="6.52545">
        <ele>1235.9765625</ele>
        <time>2021-08-23T15:13:45Z</time>
      </trkpt>
      <trkpt lat="46.18689" lon="6.52572">
        <ele>1239.13671875</ele>
        <time>2021-08-23T15:13:54Z</time>
      </trkpt>
      <trkpt lat="46.1869" lon="6.52587">
        <ele>1240.1640625</ele>
        <time>2021-08-23T15:14:00Z</time>
      </trkpt>
      <trkpt lat="46.18691" lon="6.52616">
        <ele>1242.19921875</ele>
        <time>2021-08-23T15:14:13Z</time>
      </trkpt>
      <trkpt lat="46.18692" lon="6.52618">
        <ele>1241.94921875</ele>
        <time>2021-08-23T15:14:14Z</time>
      </trkpt>
      <trkpt lat="46.18693" lon="6.52631">
        <ele>1241.94140625</ele>
        <time>2021-08-23T15:14:20Z</time>
      </trkpt>
      <trkpt lat="46.18694" lon="6.52633">
        <ele>1241.8671875</ele>
        <time>2021-08-23T15:14:21Z</time>
      </trkpt>
      <trkpt lat="46.18694" lon="6.52636">
        <ele>1241.89453125</ele>
        <time>2021-08-23T15:14:22Z</time>
      </trkpt>
      <trkpt lat="46.18694" lon="6.52638">
        <ele>1241.9296875</ele>
        <time>2021-08-23T15:14:23Z</time>
      </trkpt>
      <trkpt lat="46.18693" lon="6.52641">
        <ele>1243.1171875</ele>
        <time>2021-08-23T15:14:34Z</time>
      </trkpt>
      <trkpt lat="46.18691" lon="6.52643">
        <ele>1244.2890625</ele>
        <time>2021-08-23T15:14:59Z</time>
      </trkpt>
      <trkpt lat="46.18697" lon="6.52641">
        <ele>1240.19921875</ele>
        <time>2021-08-23T15:15:23Z</time>
      </trkpt>
      <trkpt lat="46.18693" lon="6.52638">
        <ele>1242.53515625</ele>
        <time>2021-08-23T15:15:51Z</time>
      </trkpt>
      <trkpt lat="46.18691" lon="6.52638">
        <ele>1244.1171875</ele>
        <time>2021-08-23T15:16:18Z</time>
      </trkpt>
      <trkpt lat="46.18695" lon="6.52641">
        <ele>1241.67578125</ele>
        <time>2021-08-23T15:16:44Z</time>
      </trkpt>
      <trkpt lat="46.18695" lon="6.52645">
        <ele>1241.52734375</ele>
        <time>2021-08-23T15:17:12Z</time>
      </trkpt>
      <trkpt lat="46.18695" lon="6.52646">
        <ele>1242.02734375</ele>
        <time>2021-08-23T15:17:36Z</time>
      </trkpt>
      <trkpt lat="46.18696" lon="6.52646">
        <ele>1241.484375</ele>
        <time>2021-08-23T15:17:55Z</time>
      </trkpt>
      <trkpt lat="46.187" lon="6.52652">
        <ele>1238.93359375</ele>
        <time>2021-08-23T15:18:18Z</time>
      </trkpt>
      <trkpt lat="46.18703" lon="6.52649">
        <ele>1236.546875</ele>
        <time>2021-08-23T15:18:38Z</time>
      </trkpt>
      <trkpt lat="46.18705" lon="6.52639">
        <ele>1234.5859375</ele>
        <time>2021-08-23T15:19:06Z</time>
      </trkpt>
      <trkpt lat="46.1871" lon="6.52644">
        <ele>1231.41015625</ele>
        <time>2021-08-23T15:19:17Z</time>
      </trkpt>
      <trkpt lat="46.18712" lon="6.52645">
        <ele>1229.95703125</ele>
        <time>2021-08-23T15:19:27Z</time>
      </trkpt>
      <trkpt lat="46.18711" lon="6.52651">
        <ele>1231.63671875</ele>
        <time>2021-08-23T15:19:30Z</time>
      </trkpt>
      <trkpt lat="46.18708" lon="6.52667">
        <ele>1234.76171875</ele>
        <time>2021-08-23T15:19:37Z</time>
      </trkpt>
      <trkpt lat="46.18694" lon="6.52679">
        <ele>1244.3359375</ele>
        <time>2021-08-23T15:19:49Z</time>
      </trkpt>
      <trkpt lat="46.18695" lon="6.52681">
        <ele>1243.828125</ele>
        <time>2021-08-23T15:19:57Z</time>
      </trkpt>
      <trkpt lat="46.1869" lon="6.52706">
        <ele>1248.7734375</ele>
        <time>2021-08-23T15:20:08Z</time>
      </trkpt>
      <trkpt lat="46.18686" lon="6.52744">
        <ele>1252.9453125</ele>
        <time>2021-08-23T15:20:22Z</time>
      </trkpt>
      <trkpt lat="46.18684" lon="6.52767">
        <ele>1254.48828125</ele>
        <time>2021-08-23T15:20:31Z</time>
      </trkpt>
      <trkpt lat="46.18684" lon="6.52773">
        <ele>1254.328125</ele>
        <time>2021-08-23T15:20:33Z</time>
      </trkpt>
      <trkpt lat="46.18684" lon="6.52787">
        <ele>1253.8671875</ele>
        <time>2021-08-23T15:20:38Z</time>
      </trkpt>
      <trkpt lat="46.18683" lon="6.5279">
        <ele>1254.03515625</ele>
        <time>2021-08-23T15:20:39Z</time>
      </trkpt>
      <trkpt lat="46.18683" lon="6.52793">
        <ele>1254.34765625</ele>
        <time>2021-08-23T15:20:40Z</time>
      </trkpt>
      <trkpt lat="46.18682" lon="6.52796">
        <ele>1254.46484375</ele>
        <time>2021-08-23T15:20:41Z</time>
      </trkpt>
      <trkpt lat="46.18682" lon="6.52798">
        <ele>1254.8828125</ele>
        <time>2021-08-23T15:20:42Z</time>
      </trkpt>
      <trkpt lat="46.18681" lon="6.52802">
        <ele>1254.82421875</ele>
        <time>2021-08-23T15:20:44Z</time>
      </trkpt>
      <trkpt lat="46.18685" lon="6.52824">
        <ele>1251.90234375</ele>
        <time>2021-08-23T15:20:52Z</time>
      </trkpt>
      <trkpt lat="46.18684" lon="6.52827">
        <ele>1252.39453125</ele>
        <time>2021-08-23T15:20:53Z</time>
      </trkpt>
      <trkpt lat="46.18683" lon="6.5283">
        <ele>1252.9375</ele>
        <time>2021-08-23T15:20:54Z</time>
      </trkpt>
      <trkpt lat="46.18681" lon="6.52832">
        <ele>1253.6015625</ele>
        <time>2021-08-23T15:20:55Z</time>
      </trkpt>
      <trkpt lat="46.1868" lon="6.52835">
        <ele>1254.54296875</ele>
        <time>2021-08-23T15:20:56Z</time>
      </trkpt>
      <trkpt lat="46.18678" lon="6.52838">
        <ele>1255.60546875</ele>
        <time>2021-08-23T15:20:57Z</time>
      </trkpt>
      <trkpt lat="46.18676" lon="6.52842">
        <ele>1256.625</ele>
        <time>2021-08-23T15:20:58Z</time>
      </trkpt>
      <trkpt lat="46.18675" lon="6.52845">
        <ele>1257.0625</ele>
        <time>2021-08-23T15:20:59Z</time>
      </trkpt>
      <trkpt lat="46.18673" lon="6.52849">
        <ele>1258.23046875</ele>
        <time>2021-08-23T15:21:00Z</time>
      </trkpt>
      <trkpt lat="46.18672" lon="6.52854">
        <ele>1258.98046875</ele>
        <time>2021-08-23T15:21:01Z</time>
      </trkpt>
      <trkpt lat="46.18671" lon="6.52857">
        <ele>1259.16015625</ele>
        <time>2021-08-23T15:21:02Z</time>
      </trkpt>
      <trkpt lat="46.18664" lon="6.52882">
        <ele>1261.69921875</ele>
        <time>2021-08-23T15:21:11Z</time>
      </trkpt>
      <trkpt lat="46.18665" lon="6.52895">
        <ele>1259.8125</ele>
        <time>2021-08-23T15:21:16Z</time>
      </trkpt>
      <trkpt lat="46.18666" lon="6.52898">
        <ele>1259.09765625</ele>
        <time>2021-08-23T15:21:17Z</time>
      </trkpt>
      <trkpt lat="46.18664" lon="6.52909">
        <ele>1259</ele>
        <time>2021-08-23T15:21:21Z</time>
      </trkpt>
      <trkpt lat="46.18662" lon="6.52913">
        <ele>1259.953125</ele>
        <time>2021-08-23T15:21:22Z</time>
      </trkpt>
      <trkpt lat="46.1866" lon="6.52917">
        <ele>1260.78515625</ele>
        <time>2021-08-23T15:21:23Z</time>
      </trkpt>
      <trkpt lat="46.18658" lon="6.5292">
        <ele>1261.5390625</ele>
        <time>2021-08-23T15:21:24Z</time>
      </trkpt>
      <trkpt lat="46.18657" lon="6.52922">
        <ele>1261.62890625</ele>
        <time>2021-08-23T15:21:25Z</time>
      </trkpt>
      <trkpt lat="46.18657" lon="6.52923">
        <ele>1261.58203125</ele>
        <time>2021-08-23T15:21:26Z</time>
      </trkpt>
      <trkpt lat="46.18655" lon="6.52938">
        <ele>1259.91015625</ele>
        <time>2021-08-23T15:21:31Z</time>
      </trkpt>
      <trkpt lat="46.18655" lon="6.52941">
        <ele>1259.48828125</ele>
        <time>2021-08-23T15:21:32Z</time>
      </trkpt>
      <trkpt lat="46.18649" lon="6.52955">
        <ele>1260.30078125</ele>
        <time>2021-08-23T15:21:37Z</time>
      </trkpt>
      <trkpt lat="46.18639" lon="6.52971">
        <ele>1261.62109375</ele>
        <time>2021-08-23T15:21:45Z</time>
      </trkpt>
      <trkpt lat="46.18636" lon="6.52979">
        <ele>1261.18359375</ele>
        <time>2021-08-23T15:21:50Z</time>
      </trkpt>
      <trkpt lat="46.18635" lon="6.52981">
        <ele>1261.33984375</ele>
        <time>2021-08-23T15:21:51Z</time>
      </trkpt>
      <trkpt lat="46.18632" lon="6.52984">
        <ele>1261.765625</ele>
        <time>2021-08-23T15:21:52Z</time>
      </trkpt>
      <trkpt lat="46.1863" lon="6.52987">
        <ele>1262.1796875</ele>
        <time>2021-08-23T15:21:53Z</time>
      </trkpt>
      <trkpt lat="46.18629" lon="6.52989">
        <ele>1262.1796875</ele>
        <time>2021-08-23T15:21:54Z</time>
      </trkpt>
      <trkpt lat="46.18628" lon="6.52992">
        <ele>1262.125</ele>
        <time>2021-08-23T15:21:55Z</time>
      </trkpt>
      <trkpt lat="46.18625" lon="6.52995">
        <ele>1262.4453125</ele>
        <time>2021-08-23T15:21:56Z</time>
      </trkpt>
      <trkpt lat="46.18608" lon="6.53022">
        <ele>1263.08203125</ele>
        <time>2021-08-23T15:22:07Z</time>
      </trkpt>
      <trkpt lat="46.186" lon="6.53039">
        <ele>1262.203125</ele>
        <time>2021-08-23T15:22:14Z</time>
      </trkpt>
      <trkpt lat="46.18597" lon="6.53041">
        <ele>1262.61328125</ele>
        <time>2021-08-23T15:22:15Z</time>
      </trkpt>
      <trkpt lat="46.18595" lon="6.53043">
        <ele>1263.0703125</ele>
        <time>2021-08-23T15:22:16Z</time>
      </trkpt>
      <trkpt lat="46.18593" lon="6.53045">
        <ele>1263.37109375</ele>
        <time>2021-08-23T15:22:17Z</time>
      </trkpt>
      <trkpt lat="46.18591" lon="6.53047">
        <ele>1263.7578125</ele>
        <time>2021-08-23T15:22:18Z</time>
      </trkpt>
      <trkpt lat="46.18568" lon="6.53062">
        <ele>1270.6015625</ele>
        <time>2021-08-23T15:22:30Z</time>
      </trkpt>
      <trkpt lat="46.18545" lon="6.53077">
        <ele>1277.3828125</ele>
        <time>2021-08-23T15:22:43Z</time>
      </trkpt>
      <trkpt lat="46.18526" lon="6.53104">
        <ele>1276.65625</ele>
        <time>2021-08-23T15:22:56Z</time>
      </trkpt>
      <trkpt lat="46.18504" lon="6.53115">
        <ele>1280.64453125</ele>
        <time>2021-08-23T15:23:08Z</time>
      </trkpt>
      <trkpt lat="46.18503" lon="6.53116">
        <ele>1280.78515625</ele>
        <time>2021-08-23T15:23:09Z</time>
      </trkpt>
      <trkpt lat="46.18478" lon="6.53136">
        <ele>1282.734375</ele>
        <time>2021-08-23T15:23:24Z</time>
      </trkpt>
      <trkpt lat="46.18457" lon="6.53157">
        <ele>1282.5078125</ele>
        <time>2021-08-23T15:23:37Z</time>
      </trkpt>
      <trkpt lat="46.18434" lon="6.53174">
        <ele>1283.94140625</ele>
        <time>2021-08-23T15:23:48Z</time>
      </trkpt>
      <trkpt lat="46.18409" lon="6.53185">
        <ele>1288.0234375</ele>
        <time>2021-08-23T15:24:00Z</time>
      </trkpt>
      <trkpt lat="46.1839" lon="6.53191">
        <ele>1291.765625</ele>
        <time>2021-08-23T15:24:11Z</time>
      </trkpt>
      <trkpt lat="46.18365" lon="6.53198">
        <ele>1296.41015625</ele>
        <time>2021-08-23T15:24:22Z</time>
      </trkpt>
      <trkpt lat="46.18353" lon="6.53204">
        <ele>1297.609375</ele>
        <time>2021-08-23T15:24:29Z</time>
      </trkpt>
      <trkpt lat="46.18351" lon="6.53205">
        <ele>1297.66796875</ele>
        <time>2021-08-23T15:24:30Z</time>
      </trkpt>
      <trkpt lat="46.18349" lon="6.53205">
        <ele>1298.20703125</ele>
        <time>2021-08-23T15:24:31Z</time>
      </trkpt>
      <trkpt lat="46.18344" lon="6.53205">
        <ele>1299.9296875</ele>
        <time>2021-08-23T15:24:34Z</time>
      </trkpt>
      <trkpt lat="46.18339" lon="6.53206">
        <ele>1301.51953125</ele>
        <time>2021-08-23T15:24:38Z</time>
      </trkpt>
      <trkpt lat="46.18337" lon="6.53207">
        <ele>1301.44921875</ele>
        <time>2021-08-23T15:24:39Z</time>
      </trkpt>
      <trkpt lat="46.18336" lon="6.53208">
        <ele>1301.48828125</ele>
        <time>2021-08-23T15:24:40Z</time>
      </trkpt>
      <trkpt lat="46.18334" lon="6.5321">
        <ele>1301.32421875</ele>
        <time>2021-08-23T15:24:42Z</time>
      </trkpt>
      <trkpt lat="46.1831" lon="6.53228">
        <ele>1301.89453125</ele>
        <time>2021-08-23T15:24:55Z</time>
      </trkpt>
      <trkpt lat="46.18287" lon="6.53243">
        <ele>1304.40234375</ele>
        <time>2021-08-23T15:25:08Z</time>
      </trkpt>
      <trkpt lat="46.1825" lon="6.53268">
        <ele>1313.1484375</ele>
        <time>2021-08-23T15:25:22Z</time>
      </trkpt>
      <trkpt lat="46.18248" lon="6.5327">
        <ele>1313.75</ele>
        <time>2021-08-23T15:25:23Z</time>
      </trkpt>
      <trkpt lat="46.18239" lon="6.53277">
        <ele>1316.3203125</ele>
        <time>2021-08-23T15:25:27Z</time>
      </trkpt>
      <trkpt lat="46.18237" lon="6.53279">
        <ele>1316.5078125</ele>
        <time>2021-08-23T15:25:28Z</time>
      </trkpt>
      <trkpt lat="46.18215" lon="6.53313">
        <ele>1319.2890625</ele>
        <time>2021-08-23T15:25:39Z</time>
      </trkpt>
      <trkpt lat="46.18197" lon="6.53366">
        <ele>1318.6796875</ele>
        <time>2021-08-23T15:25:51Z</time>
      </trkpt>
      <trkpt lat="46.18169" lon="6.53388">
        <ele>1323.7109375</ele>
        <time>2021-08-23T15:26:01Z</time>
      </trkpt>
      <trkpt lat="46.18166" lon="6.53389">
        <ele>1324.46484375</ele>
        <time>2021-08-23T15:26:02Z</time>
      </trkpt>
      <trkpt lat="46.18164" lon="6.53391">
        <ele>1324.828125</ele>
        <time>2021-08-23T15:26:03Z</time>
      </trkpt>
      <trkpt lat="46.18161" lon="6.53393">
        <ele>1325.390625</ele>
        <time>2021-08-23T15:26:04Z</time>
      </trkpt>
      <trkpt lat="46.18159" lon="6.53394">
        <ele>1325.609375</ele>
        <time>2021-08-23T15:26:05Z</time>
      </trkpt>
      <trkpt lat="46.1814" lon="6.53438">
        <ele>1325.29296875</ele>
        <time>2021-08-23T15:26:15Z</time>
      </trkpt>
      <trkpt lat="46.18131" lon="6.53487">
        <ele>1322.2890625</ele>
        <time>2021-08-23T15:26:26Z</time>
      </trkpt>
      <trkpt lat="46.18129" lon="6.5349">
        <ele>1322.49609375</ele>
        <time>2021-08-23T15:26:27Z</time>
      </trkpt>
      <trkpt lat="46.18127" lon="6.53494">
        <ele>1322.796875</ele>
        <time>2021-08-23T15:26:28Z</time>
      </trkpt>
      <trkpt lat="46.18125" lon="6.53496">
        <ele>1323.02734375</ele>
        <time>2021-08-23T15:26:29Z</time>
      </trkpt>
      <trkpt lat="46.18124" lon="6.53498">
        <ele>1323.25</ele>
        <time>2021-08-23T15:26:30Z</time>
      </trkpt>
      <trkpt lat="46.18122" lon="6.535">
        <ele>1323.5078125</ele>
        <time>2021-08-23T15:26:31Z</time>
      </trkpt>
      <trkpt lat="46.18094" lon="6.53516">
        <ele>1329.0078125</ele>
        <time>2021-08-23T15:26:41Z</time>
      </trkpt>
      <trkpt lat="46.18076" lon="6.53531">
        <ele>1332.4375</ele>
        <time>2021-08-23T15:26:51Z</time>
      </trkpt>
      <trkpt lat="46.18068" lon="6.53537">
        <ele>1333.92578125</ele>
        <time>2021-08-23T15:26:56Z</time>
      </trkpt>
      <trkpt lat="46.18065" lon="6.53537">
        <ele>1334.546875</ele>
        <time>2021-08-23T15:26:58Z</time>
      </trkpt>
      <trkpt lat="46.18063" lon="6.53537">
        <ele>1334.9375</ele>
        <time>2021-08-23T15:26:59Z</time>
      </trkpt>
      <trkpt lat="46.18061" lon="6.53536">
        <ele>1335.34765625</ele>
        <time>2021-08-23T15:27:00Z</time>
      </trkpt>
      <trkpt lat="46.1806" lon="6.53535">
        <ele>1335.78515625</ele>
        <time>2021-08-23T15:27:01Z</time>
      </trkpt>
      <trkpt lat="46.18058" lon="6.53534">
        <ele>1336.234375</ele>
        <time>2021-08-23T15:27:02Z</time>
      </trkpt>
      <trkpt lat="46.18056" lon="6.53532">
        <ele>1336.6015625</ele>
        <time>2021-08-23T15:27:03Z</time>
      </trkpt>
      <trkpt lat="46.18055" lon="6.5353">
        <ele>1336.87890625</ele>
        <time>2021-08-23T15:27:04Z</time>
      </trkpt>
      <trkpt lat="46.18055" lon="6.53527">
        <ele>1337.0234375</ele>
        <time>2021-08-23T15:27:05Z</time>
      </trkpt>
      <trkpt lat="46.18055" lon="6.53525">
        <ele>1337.13671875</ele>
        <time>2021-08-23T15:27:06Z</time>
      </trkpt>
      <trkpt lat="46.18055" lon="6.53523">
        <ele>1337.1796875</ele>
        <time>2021-08-23T15:27:07Z</time>
      </trkpt>
      <trkpt lat="46.18055" lon="6.5352">
        <ele>1337.2734375</ele>
        <time>2021-08-23T15:27:08Z</time>
      </trkpt>
      <trkpt lat="46.18055" lon="6.53518">
        <ele>1337.3125</ele>
        <time>2021-08-23T15:27:09Z</time>
      </trkpt>
      <trkpt lat="46.18056" lon="6.53515">
        <ele>1337.38671875</ele>
        <time>2021-08-23T15:27:10Z</time>
      </trkpt>
      <trkpt lat="46.18057" lon="6.53512">
        <ele>1337.4296875</ele>
        <time>2021-08-23T15:27:11Z</time>
      </trkpt>
      <trkpt lat="46.18058" lon="6.5351">
        <ele>1337.40625</ele>
        <time>2021-08-23T15:27:12Z</time>
      </trkpt>
      <trkpt lat="46.18058" lon="6.53508">
        <ele>1337.37109375</ele>
        <time>2021-08-23T15:27:13Z</time>
      </trkpt>
      <trkpt lat="46.18068" lon="6.53471">
        <ele>1338.61328125</ele>
        <time>2021-08-23T15:27:27Z</time>
      </trkpt>
      <trkpt lat="46.18077" lon="6.53425">
        <ele>1341.73046875</ele>
        <time>2021-08-23T15:27:39Z</time>
      </trkpt>
      <trkpt lat="46.18101" lon="6.53381">
        <ele>1342.26953125</ele>
        <time>2021-08-23T15:27:51Z</time>
      </trkpt>
      <trkpt lat="46.18108" lon="6.53374">
        <ele>1341.69921875</ele>
        <time>2021-08-23T15:27:53Z</time>
      </trkpt>
      <trkpt lat="46.18111" lon="6.5337">
        <ele>1341.203125</ele>
        <time>2021-08-23T15:27:54Z</time>
      </trkpt>
      <trkpt lat="46.18131" lon="6.53352">
        <ele>1338.9375</ele>
        <time>2021-08-23T15:27:59Z</time>
      </trkpt>
      <trkpt lat="46.18138" lon="6.53341">
        <ele>1338.79296875</ele>
        <time>2021-08-23T15:28:01Z</time>
      </trkpt>
      <trkpt lat="46.18141" lon="6.53334">
        <ele>1338.9609375</ele>
        <time>2021-08-23T15:28:02Z</time>
      </trkpt>
      <trkpt lat="46.18145" lon="6.53327">
        <ele>1339.1328125</ele>
        <time>2021-08-23T15:28:03Z</time>
      </trkpt>
      <trkpt lat="46.1815" lon="6.53319">
        <ele>1338.96875</ele>
        <time>2021-08-23T15:28:04Z</time>
      </trkpt>
      <trkpt lat="46.18154" lon="6.53314">
        <ele>1338.6328125</ele>
        <time>2021-08-23T15:28:05Z</time>
      </trkpt>
      <trkpt lat="46.18163" lon="6.53302">
        <ele>1337.8828125</ele>
        <time>2021-08-23T15:28:07Z</time>
      </trkpt>
      <trkpt lat="46.18169" lon="6.53291">
        <ele>1337.8515625</ele>
        <time>2021-08-23T15:28:09Z</time>
      </trkpt>
      <trkpt lat="46.18172" lon="6.53286">
        <ele>1337.9453125</ele>
        <time>2021-08-23T15:28:10Z</time>
      </trkpt>
      <trkpt lat="46.18176" lon="6.53282">
        <ele>1337.61328125</ele>
        <time>2021-08-23T15:28:11Z</time>
      </trkpt>
      <trkpt lat="46.18193" lon="6.53261">
        <ele>1336.453125</ele>
        <time>2021-08-23T15:28:17Z</time>
      </trkpt>
      <trkpt lat="46.18196" lon="6.53255">
        <ele>1336.62890625</ele>
        <time>2021-08-23T15:28:18Z</time>
      </trkpt>
      <trkpt lat="46.18203" lon="6.53245">
        <ele>1336.6171875</ele>
        <time>2021-08-23T15:28:20Z</time>
      </trkpt>
      <trkpt lat="46.18207" lon="6.53241">
        <ele>1336.3046875</ele>
        <time>2021-08-23T15:28:21Z</time>
      </trkpt>
      <trkpt lat="46.18211" lon="6.53238">
        <ele>1336.0625</ele>
        <time>2021-08-23T15:28:22Z</time>
      </trkpt>
      <trkpt lat="46.18222" lon="6.53227">
        <ele>1335.3203125</ele>
        <time>2021-08-23T15:28:26Z</time>
      </trkpt>
      <trkpt lat="46.1823" lon="6.53224">
        <ele>1333.703125</ele>
        <time>2021-08-23T15:28:28Z</time>
      </trkpt>
      <trkpt lat="46.18234" lon="6.53221">
        <ele>1333.40625</ele>
        <time>2021-08-23T15:28:29Z</time>
      </trkpt>
      <trkpt lat="46.18238" lon="6.53217">
        <ele>1333.16796875</ele>
        <time>2021-08-23T15:28:30Z</time>
      </trkpt>
      <trkpt lat="46.18242" lon="6.53212">
        <ele>1333.15234375</ele>
        <time>2021-08-23T15:28:31Z</time>
      </trkpt>
      <trkpt lat="46.18252" lon="6.53202">
        <ele>1333.5078125</ele>
        <time>2021-08-23T15:28:33Z</time>
      </trkpt>
      <trkpt lat="46.18277" lon="6.53177">
        <ele>1333.53515625</ele>
        <time>2021-08-23T15:28:39Z</time>
      </trkpt>
      <trkpt lat="46.18315" lon="6.53157">
        <ele>1328.453125</ele>
        <time>2021-08-23T15:28:46Z</time>
      </trkpt>
      <trkpt lat="46.18322" lon="6.53152">
        <ele>1328.015625</ele>
        <time>2021-08-23T15:28:47Z</time>
      </trkpt>
      <trkpt lat="46.18354" lon="6.53127">
        <ele>1327.56640625</ele>
        <time>2021-08-23T15:28:51Z</time>
      </trkpt>
      <trkpt lat="46.18386" lon="6.53101">
        <ele>1327.56640625</ele>
        <time>2021-08-23T15:28:55Z</time>
      </trkpt>
      <trkpt lat="46.18392" lon="6.53093">
        <ele>1328.26953125</ele>
        <time>2021-08-23T15:28:56Z</time>
      </trkpt>
      <trkpt lat="46.18418" lon="6.53058">
        <ele>1330.87109375</ele>
        <time>2021-08-23T15:29:00Z</time>
      </trkpt>
      <trkpt lat="46.18425" lon="6.53051">
        <ele>1330.85546875</ele>
        <time>2021-08-23T15:29:01Z</time>
      </trkpt>
      <trkpt lat="46.18432" lon="6.53046">
        <ele>1330.23046875</ele>
        <time>2021-08-23T15:29:02Z</time>
      </trkpt>
      <trkpt lat="46.1846" lon="6.53027">
        <ele>1324.6640625</ele>
        <time>2021-08-23T15:29:06Z</time>
      </trkpt>
      <trkpt lat="46.18464" lon="6.53021">
        <ele>1324.33203125</ele>
        <time>2021-08-23T15:29:07Z</time>
      </trkpt>
      <trkpt lat="46.18472" lon="6.53008">
        <ele>1324.77734375</ele>
        <time>2021-08-23T15:29:09Z</time>
      </trkpt>
      <trkpt lat="46.18475" lon="6.53002">
        <ele>1325</ele>
        <time>2021-08-23T15:29:10Z</time>
      </trkpt>
      <trkpt lat="46.18478" lon="6.52997">
        <ele>1325.234375</ele>
        <time>2021-08-23T15:29:11Z</time>
      </trkpt>
      <trkpt lat="46.18481" lon="6.52992">
        <ele>1325.390625</ele>
        <time>2021-08-23T15:29:12Z</time>
      </trkpt>
      <trkpt lat="46.18488" lon="6.52967">
        <ele>1329.609375</ele>
        <time>2021-08-23T15:29:20Z</time>
      </trkpt>
      <trkpt lat="46.18487" lon="6.52965">
        <ele>1330.21875</ele>
        <time>2021-08-23T15:29:21Z</time>
      </trkpt>
      <trkpt lat="46.18487" lon="6.52963">
        <ele>1330.73828125</ele>
        <time>2021-08-23T15:29:22Z</time>
      </trkpt>
      <trkpt lat="46.18487" lon="6.52961">
        <ele>1331.11328125</ele>
        <time>2021-08-23T15:29:23Z</time>
      </trkpt>
      <trkpt lat="46.18488" lon="6.52958">
        <ele>1331.6953125</ele>
        <time>2021-08-23T15:29:24Z</time>
      </trkpt>
      <trkpt lat="46.1849" lon="6.52954">
        <ele>1332.23046875</ele>
        <time>2021-08-23T15:29:25Z</time>
      </trkpt>
      <trkpt lat="46.18491" lon="6.52951">
        <ele>1332.69140625</ele>
        <time>2021-08-23T15:29:26Z</time>
      </trkpt>
      <trkpt lat="46.18501" lon="6.52924">
        <ele>1336.65625</ele>
        <time>2021-08-23T15:29:35Z</time>
      </trkpt>
      <trkpt lat="46.18512" lon="6.52886">
        <ele>1342.1875</ele>
        <time>2021-08-23T15:29:46Z</time>
      </trkpt>
      <trkpt lat="46.18521" lon="6.52863">
        <ele>1343.734375</ele>
        <time>2021-08-23T15:29:53Z</time>
      </trkpt>
      <trkpt lat="46.18522" lon="6.5283">
        <ele>1350.453125</ele>
        <time>2021-08-23T15:30:03Z</time>
      </trkpt>
      <trkpt lat="46.18523" lon="6.52827">
        <ele>1350.921875</ele>
        <time>2021-08-23T15:30:04Z</time>
      </trkpt>
      <trkpt lat="46.18523" lon="6.52823">
        <ele>1351.31640625</ele>
        <time>2021-08-23T15:30:05Z</time>
      </trkpt>
      <trkpt lat="46.18524" lon="6.5282">
        <ele>1351.62109375</ele>
        <time>2021-08-23T15:30:06Z</time>
      </trkpt>
      <trkpt lat="46.18524" lon="6.52817">
        <ele>1351.984375</ele>
        <time>2021-08-23T15:30:07Z</time>
      </trkpt>
      <trkpt lat="46.18525" lon="6.52814">
        <ele>1352.0390625</ele>
        <time>2021-08-23T15:30:08Z</time>
      </trkpt>
      <trkpt lat="46.18526" lon="6.5281">
        <ele>1352.2109375</ele>
        <time>2021-08-23T15:30:09Z</time>
      </trkpt>
      <trkpt lat="46.18529" lon="6.52795">
        <ele>1353.16015625</ele>
        <time>2021-08-23T15:30:13Z</time>
      </trkpt>
      <trkpt lat="46.1853" lon="6.52752">
        <ele>1360.89453125</ele>
        <time>2021-08-23T15:30:25Z</time>
      </trkpt>
      <trkpt lat="46.18535" lon="6.52711">
        <ele>1365.453125</ele>
        <time>2021-08-23T15:30:36Z</time>
      </trkpt>
      <trkpt lat="46.18535" lon="6.52703">
        <ele>1367.17578125</ele>
        <time>2021-08-23T15:30:39Z</time>
      </trkpt>
      <trkpt lat="46.18535" lon="6.527">
        <ele>1367.50390625</ele>
        <time>2021-08-23T15:30:40Z</time>
      </trkpt>
      <trkpt lat="46.18531" lon="6.52664">
        <ele>1377.08203125</ele>
        <time>2021-08-23T15:30:49Z</time>
      </trkpt>
      <trkpt lat="46.1853" lon="6.52634">
        <ele>1379.2421875</ele>
        <time>2021-08-23T15:30:58Z</time>
      </trkpt>
      <trkpt lat="46.18529" lon="6.52624">
        <ele>1379.71875</ele>
        <time>2021-08-23T15:31:01Z</time>
      </trkpt>
      <trkpt lat="46.1853" lon="6.52621">
        <ele>1379.38671875</ele>
        <time>2021-08-23T15:31:02Z</time>
      </trkpt>
      <trkpt lat="46.18529" lon="6.52618">
        <ele>1379.33984375</ele>
        <time>2021-08-23T15:31:03Z</time>
      </trkpt>
      <trkpt lat="46.18529" lon="6.52614">
        <ele>1379.1953125</ele>
        <time>2021-08-23T15:31:04Z</time>
      </trkpt>
      <trkpt lat="46.18529" lon="6.52611">
        <ele>1379.328125</ele>
        <time>2021-08-23T15:31:05Z</time>
      </trkpt>
      <trkpt lat="46.18519" lon="6.52572">
        <ele>1380.10546875</ele>
        <time>2021-08-23T15:31:17Z</time>
      </trkpt>
      <trkpt lat="46.18502" lon="6.52553">
        <ele>1383.421875</ele>
        <time>2021-08-23T15:31:23Z</time>
      </trkpt>
      <trkpt lat="46.18495" lon="6.52544">
        <ele>1382.8203125</ele>
        <time>2021-08-23T15:31:25Z</time>
      </trkpt>
      <trkpt lat="46.1849" lon="6.52539">
        <ele>1382.48046875</ele>
        <time>2021-08-23T15:31:26Z</time>
      </trkpt>
      <trkpt lat="46.18485" lon="6.52535">
        <ele>1381.91796875</ele>
        <time>2021-08-23T15:31:27Z</time>
      </trkpt>
      <trkpt lat="46.18428" lon="6.52507">
        <ele>1382.22265625</ele>
        <time>2021-08-23T15:31:36Z</time>
      </trkpt>
      <trkpt lat="46.18416" lon="6.52501">
        <ele>1382.1328125</ele>
        <time>2021-08-23T15:31:38Z</time>
      </trkpt>
      <trkpt lat="46.18384" lon="6.52474">
        <ele>1379.87109375</ele>
        <time>2021-08-23T15:31:46Z</time>
      </trkpt>
      <trkpt lat="46.18376" lon="6.52463">
        <ele>1378.30078125</ele>
        <time>2021-08-23T15:31:50Z</time>
      </trkpt>
      <trkpt lat="46.18374" lon="6.52462">
        <ele>1378.484375</ele>
        <time>2021-08-23T15:31:51Z</time>
      </trkpt>
      <trkpt lat="46.18372" lon="6.5246">
        <ele>1378.37109375</ele>
        <time>2021-08-23T15:31:52Z</time>
      </trkpt>
      <trkpt lat="46.1837" lon="6.52456">
        <ele>1377.90625</ele>
        <time>2021-08-23T15:31:53Z</time>
      </trkpt>
      <trkpt lat="46.18369" lon="6.52452">
        <ele>1377.2734375</ele>
        <time>2021-08-23T15:31:54Z</time>
      </trkpt>
      <trkpt lat="46.18367" lon="6.52447">
        <ele>1376.52734375</ele>
        <time>2021-08-23T15:31:55Z</time>
      </trkpt>
      <trkpt lat="46.18365" lon="6.52442">
        <ele>1375.8671875</ele>
        <time>2021-08-23T15:31:56Z</time>
      </trkpt>
      <trkpt lat="46.18363" lon="6.52437">
        <ele>1374.9765625</ele>
        <time>2021-08-23T15:31:57Z</time>
      </trkpt>
      <trkpt lat="46.18362" lon="6.52432">
        <ele>1374.4140625</ele>
        <time>2021-08-23T15:31:58Z</time>
      </trkpt>
      <trkpt lat="46.1836" lon="6.52427">
        <ele>1374.19921875</ele>
        <time>2021-08-23T15:31:59Z</time>
      </trkpt>
      <trkpt lat="46.18357" lon="6.52423">
        <ele>1374.15234375</ele>
        <time>2021-08-23T15:32:00Z</time>
      </trkpt>
      <trkpt lat="46.18355" lon="6.52418">
        <ele>1374.2421875</ele>
        <time>2021-08-23T15:32:01Z</time>
      </trkpt>
      <trkpt lat="46.18353" lon="6.52414">
        <ele>1374.19140625</ele>
        <time>2021-08-23T15:32:02Z</time>
      </trkpt>
      <trkpt lat="46.18332" lon="6.52376">
        <ele>1374.94921875</ele>
        <time>2021-08-23T15:32:13Z</time>
      </trkpt>
      <trkpt lat="46.18331" lon="6.52372">
        <ele>1374.72265625</ele>
        <time>2021-08-23T15:32:14Z</time>
      </trkpt>
      <trkpt lat="46.18329" lon="6.52363">
        <ele>1374.67578125</ele>
        <time>2021-08-23T15:32:15Z</time>
      </trkpt>
      <trkpt lat="46.18327" lon="6.52357">
        <ele>1374.76171875</ele>
        <time>2021-08-23T15:32:16Z</time>
      </trkpt>
      <trkpt lat="46.18325" lon="6.52352">
        <ele>1374.87109375</ele>
        <time>2021-08-23T15:32:17Z</time>
      </trkpt>
      <trkpt lat="46.18324" lon="6.52346">
        <ele>1375.25390625</ele>
        <time>2021-08-23T15:32:18Z</time>
      </trkpt>
      <trkpt lat="46.18321" lon="6.52303">
        <ele>1375.87890625</ele>
        <time>2021-08-23T15:32:27Z</time>
      </trkpt>
      <trkpt lat="46.18321" lon="6.52299">
        <ele>1375.84765625</ele>
        <time>2021-08-23T15:32:28Z</time>
      </trkpt>
      <trkpt lat="46.18326" lon="6.52276">
        <ele>1374.21875</ele>
        <time>2021-08-23T15:32:35Z</time>
      </trkpt>
      <trkpt lat="46.18329" lon="6.52266">
        <ele>1373.3359375</ele>
        <time>2021-08-23T15:32:38Z</time>
      </trkpt>
      <trkpt lat="46.18331" lon="6.52251">
        <ele>1373.5625</ele>
        <time>2021-08-23T15:32:42Z</time>
      </trkpt>
      <trkpt lat="46.18327" lon="6.52227">
        <ele>1376.44140625</ele>
        <time>2021-08-23T15:32:53Z</time>
      </trkpt>
      <trkpt lat="46.18328" lon="6.52223">
        <ele>1376.421875</ele>
        <time>2021-08-23T15:33:07Z</time>
      </trkpt>
      <trkpt lat="46.1833" lon="6.52223">
        <ele>1375.41015625</ele>
        <time>2021-08-23T15:33:27Z</time>
      </trkpt>
      <trkpt lat="46.18328" lon="6.5222">
        <ele>1376.58203125</ele>
        <time>2021-08-23T15:33:43Z</time>
      </trkpt>
      <trkpt lat="46.18328" lon="6.52216">
        <ele>1376.625</ele>
        <time>2021-08-23T15:34:01Z</time>
      </trkpt>
      <trkpt lat="46.1833" lon="6.52214">
        <ele>1376.0078125</ele>
        <time>2021-08-23T15:34:29Z</time>
      </trkpt>
      <trkpt lat="46.18331" lon="6.52213">
        <ele>1375.5546875</ele>
        <time>2021-08-23T15:34:44Z</time>
      </trkpt>
      <trkpt lat="46.18332" lon="6.52214">
        <ele>1375.04296875</ele>
        <time>2021-08-23T15:35:12Z</time>
      </trkpt>
      <trkpt lat="46.1833" lon="6.52214">
        <ele>1375.890625</ele>
        <time>2021-08-23T15:35:17Z</time>
      </trkpt>
      <trkpt lat="46.1833" lon="6.52212">
        <ele>1375.953125</ele>
        <time>2021-08-23T15:35:18Z</time>
      </trkpt>
      <trkpt lat="46.18329" lon="6.52211">
        <ele>1376.12890625</ele>
        <time>2021-08-23T15:35:19Z</time>
      </trkpt>
      <trkpt lat="46.18328" lon="6.5221">
        <ele>1376.71875</ele>
        <time>2021-08-23T15:35:20Z</time>
      </trkpt>
      <trkpt lat="46.18326" lon="6.52209">
        <ele>1377.4140625</ele>
        <time>2021-08-23T15:35:21Z</time>
      </trkpt>
      <trkpt lat="46.18324" lon="6.52207">
        <ele>1377.953125</ele>
        <time>2021-08-23T15:35:22Z</time>
      </trkpt>
      <trkpt lat="46.18293" lon="6.52191">
        <ele>1383.6015625</ele>
        <time>2021-08-23T15:35:33Z</time>
      </trkpt>
      <trkpt lat="46.1826" lon="6.52183">
        <ele>1386.1640625</ele>
        <time>2021-08-23T15:35:42Z</time>
      </trkpt>
      <trkpt lat="46.18255" lon="6.52182">
        <ele>1386.27734375</ele>
        <time>2021-08-23T15:35:43Z</time>
      </trkpt>
      <trkpt lat="46.18251" lon="6.52181">
        <ele>1386.609375</ele>
        <time>2021-08-23T15:35:44Z</time>
      </trkpt>
      <trkpt lat="46.18246" lon="6.5218">
        <ele>1386.75390625</ele>
        <time>2021-08-23T15:35:45Z</time>
      </trkpt>
      <trkpt lat="46.18241" lon="6.52178">
        <ele>1386.4453125</ele>
        <time>2021-08-23T15:35:46Z</time>
      </trkpt>
      <trkpt lat="46.18237" lon="6.52176">
        <ele>1385.8203125</ele>
        <time>2021-08-23T15:35:47Z</time>
      </trkpt>
      <trkpt lat="46.18232" lon="6.52175">
        <ele>1385.42578125</ele>
        <time>2021-08-23T15:35:48Z</time>
      </trkpt>
      <trkpt lat="46.18209" lon="6.52172">
        <ele>1385.04296875</ele>
        <time>2021-08-23T15:35:53Z</time>
      </trkpt>
      <trkpt lat="46.18177" lon="6.52175">
        <ele>1387.01953125</ele>
        <time>2021-08-23T15:36:00Z</time>
      </trkpt>
      <trkpt lat="46.18173" lon="6.52177">
        <ele>1387.85546875</ele>
        <time>2021-08-23T15:36:01Z</time>
      </trkpt>
      <trkpt lat="46.18161" lon="6.52182">
        <ele>1390.15625</ele>
        <time>2021-08-23T15:36:04Z</time>
      </trkpt>
      <trkpt lat="46.18157" lon="6.52183">
        <ele>1390.609375</ele>
        <time>2021-08-23T15:36:05Z</time>
      </trkpt>
      <trkpt lat="46.18152" lon="6.52184">
        <ele>1391.05078125</ele>
        <time>2021-08-23T15:36:06Z</time>
      </trkpt>
      <trkpt lat="46.18144" lon="6.52186">
        <ele>1392.02734375</ele>
        <time>2021-08-23T15:36:08Z</time>
      </trkpt>
      <trkpt lat="46.18139" lon="6.52186">
        <ele>1392.16796875</ele>
        <time>2021-08-23T15:36:09Z</time>
      </trkpt>
      <trkpt lat="46.18135" lon="6.52187">
        <ele>1392.24609375</ele>
        <time>2021-08-23T15:36:10Z</time>
      </trkpt>
      <trkpt lat="46.18108" lon="6.52187">
        <ele>1391.48046875</ele>
        <time>2021-08-23T15:36:16Z</time>
      </trkpt>
      <trkpt lat="46.18103" lon="6.52186">
        <ele>1390.9375</ele>
        <time>2021-08-23T15:36:17Z</time>
      </trkpt>
      <trkpt lat="46.18099" lon="6.52186">
        <ele>1390.984375</ele>
        <time>2021-08-23T15:36:18Z</time>
      </trkpt>
      <trkpt lat="46.18041" lon="6.52177">
        <ele>1388.765625</ele>
        <time>2021-08-23T15:36:28Z</time>
      </trkpt>
      <trkpt lat="46.18027" lon="6.52173">
        <ele>1387.53125</ele>
        <time>2021-08-23T15:36:30Z</time>
      </trkpt>
      <trkpt lat="46.17982" lon="6.52154">
        <ele>1379.91015625</ele>
        <time>2021-08-23T15:36:36Z</time>
      </trkpt>
      <trkpt lat="46.17956" lon="6.52142">
        <ele>1373.49609375</ele>
        <time>2021-08-23T15:36:40Z</time>
      </trkpt>
      <trkpt lat="46.1795" lon="6.52141">
        <ele>1372</ele>
        <time>2021-08-23T15:36:41Z</time>
      </trkpt>
      <trkpt lat="46.17939" lon="6.5214">
        <ele>1369.49609375</ele>
        <time>2021-08-23T15:36:44Z</time>
      </trkpt>
      <trkpt lat="46.17931" lon="6.5214">
        <ele>1367.11328125</ele>
        <time>2021-08-23T15:36:46Z</time>
      </trkpt>
      <trkpt lat="46.17925" lon="6.52141">
        <ele>1365.8359375</ele>
        <time>2021-08-23T15:36:47Z</time>
      </trkpt>
      <trkpt lat="46.1792" lon="6.52143">
        <ele>1364.69140625</ele>
        <time>2021-08-23T15:36:48Z</time>
      </trkpt>
      <trkpt lat="46.17914" lon="6.52147">
        <ele>1363.5703125</ele>
        <time>2021-08-23T15:36:49Z</time>
      </trkpt>
      <trkpt lat="46.17909" lon="6.52152">
        <ele>1362.40625</ele>
        <time>2021-08-23T15:36:50Z</time>
      </trkpt>
      <trkpt lat="46.17903" lon="6.52158">
        <ele>1361.08984375</ele>
        <time>2021-08-23T15:36:51Z</time>
      </trkpt>
      <trkpt lat="46.17897" lon="6.52165">
        <ele>1360.015625</ele>
        <time>2021-08-23T15:36:52Z</time>
      </trkpt>
      <trkpt lat="46.17891" lon="6.52174">
        <ele>1359.44140625</ele>
        <time>2021-08-23T15:36:53Z</time>
      </trkpt>
      <trkpt lat="46.17886" lon="6.52185">
        <ele>1359.4609375</ele>
        <time>2021-08-23T15:36:54Z</time>
      </trkpt>
      <trkpt lat="46.17883" lon="6.52196">
        <ele>1360.03515625</ele>
        <time>2021-08-23T15:36:55Z</time>
      </trkpt>
      <trkpt lat="46.1788" lon="6.52207">
        <ele>1360.74609375</ele>
        <time>2021-08-23T15:36:56Z</time>
      </trkpt>
      <trkpt lat="46.17877" lon="6.52218">
        <ele>1361.48828125</ele>
        <time>2021-08-23T15:36:57Z</time>
      </trkpt>
      <trkpt lat="46.17865" lon="6.52248">
        <ele>1364.0859375</ele>
        <time>2021-08-23T15:37:00Z</time>
      </trkpt>
      <trkpt lat="46.17861" lon="6.52255">
        <ele>1365.140625</ele>
        <time>2021-08-23T15:37:01Z</time>
      </trkpt>
      <trkpt lat="46.17858" lon="6.52262">
        <ele>1366.10546875</ele>
        <time>2021-08-23T15:37:02Z</time>
      </trkpt>
      <trkpt lat="46.17852" lon="6.52272">
        <ele>1367.47265625</ele>
        <time>2021-08-23T15:37:04Z</time>
      </trkpt>
      <trkpt lat="46.17841" lon="6.5229">
        <ele>1370.4140625</ele>
        <time>2021-08-23T15:37:09Z</time>
      </trkpt>
      <trkpt lat="46.17838" lon="6.52296">
        <ele>1371.61328125</ele>
        <time>2021-08-23T15:37:11Z</time>
      </trkpt>
      <trkpt lat="46.17822" lon="6.52323">
        <ele>1375.7265625</ele>
        <time>2021-08-23T15:37:21Z</time>
      </trkpt>
      <trkpt lat="46.17804" lon="6.52339">
        <ele>1376</ele>
        <time>2021-08-23T15:37:32Z</time>
      </trkpt>
      <trkpt lat="46.17791" lon="6.52358">
        <ele>1377.7265625</ele>
        <time>2021-08-23T15:37:42Z</time>
      </trkpt>
      <trkpt lat="46.17789" lon="6.52361">
        <ele>1377.7578125</ele>
        <time>2021-08-23T15:37:43Z</time>
      </trkpt>
      <trkpt lat="46.17787" lon="6.52363">
        <ele>1377.80859375</ele>
        <time>2021-08-23T15:37:44Z</time>
      </trkpt>
      <trkpt lat="46.17751" lon="6.52405">
        <ele>1377.265625</ele>
        <time>2021-08-23T15:37:58Z</time>
      </trkpt>
      <trkpt lat="46.17727" lon="6.52464">
        <ele>1380.609375</ele>
        <time>2021-08-23T15:38:15Z</time>
      </trkpt>
      <trkpt lat="46.17718" lon="6.52493">
        <ele>1381.640625</ele>
        <time>2021-08-23T15:38:24Z</time>
      </trkpt>
      <trkpt lat="46.17704" lon="6.52549">
        <ele>1384.1875</ele>
        <time>2021-08-23T15:38:41Z</time>
      </trkpt>
      <trkpt lat="46.17691" lon="6.52597">
        <ele>1387.984375</ele>
        <time>2021-08-23T15:38:54Z</time>
      </trkpt>
      <trkpt lat="46.1768" lon="6.52636">
        <ele>1391.06640625</ele>
        <time>2021-08-23T15:39:08Z</time>
      </trkpt>
      <trkpt lat="46.17678" lon="6.52637">
        <ele>1390.66015625</ele>
        <time>2021-08-23T15:39:30Z</time>
      </trkpt>
      <trkpt lat="46.17675" lon="6.52637">
        <ele>1389.8671875</ele>
        <time>2021-08-23T15:39:58Z</time>
      </trkpt>
      <trkpt lat="46.17681" lon="6.52638">
        <ele>1391.75</ele>
        <time>2021-08-23T15:40:31Z</time>
      </trkpt>
      <trkpt lat="46.17681" lon="6.5264">
        <ele>1392.2109375</ele>
        <time>2021-08-23T15:40:34Z</time>
      </trkpt>
      <trkpt lat="46.17681" lon="6.52642">
        <ele>1392.5703125</ele>
        <time>2021-08-23T15:40:35Z</time>
      </trkpt>
      <trkpt lat="46.17681" lon="6.52645">
        <ele>1393.04296875</ele>
        <time>2021-08-23T15:40:36Z</time>
      </trkpt>
      <trkpt lat="46.1768" lon="6.52648">
        <ele>1393.43359375</ele>
        <time>2021-08-23T15:40:37Z</time>
      </trkpt>
      <trkpt lat="46.17679" lon="6.52651">
        <ele>1393.7265625</ele>
        <time>2021-08-23T15:40:38Z</time>
      </trkpt>
      <trkpt lat="46.17658" lon="6.52719">
        <ele>1400.9296875</ele>
        <time>2021-08-23T15:40:54Z</time>
      </trkpt>
      <trkpt lat="46.17638" lon="6.52753">
        <ele>1404.91015625</ele>
        <time>2021-08-23T15:41:04Z</time>
      </trkpt>
      <trkpt lat="46.17622" lon="6.52768">
        <ele>1405.76171875</ele>
        <time>2021-08-23T15:41:11Z</time>
      </trkpt>
      <trkpt lat="46.17594" lon="6.52784">
        <ele>1405.09375</ele>
        <time>2021-08-23T15:41:25Z</time>
      </trkpt>
      <trkpt lat="46.17583" lon="6.52791">
        <ele>1404.546875</ele>
        <time>2021-08-23T15:41:40Z</time>
      </trkpt>
      <trkpt lat="46.17583" lon="6.5279">
        <ele>1404.421875</ele>
        <time>2021-08-23T15:42:12Z</time>
      </trkpt>
      <trkpt lat="46.17584" lon="6.52792">
        <ele>1404.8828125</ele>
        <time>2021-08-23T15:42:39Z</time>
      </trkpt>
      <trkpt lat="46.17576" lon="6.52798">
        <ele>1404.3828125</ele>
        <time>2021-08-23T15:42:51Z</time>
      </trkpt>
      <trkpt lat="46.17572" lon="6.52803">
        <ele>1404.6796875</ele>
        <time>2021-08-23T15:43:04Z</time>
      </trkpt>
      <trkpt lat="46.17558" lon="6.52823">
        <ele>1405.57421875</ele>
        <time>2021-08-23T15:43:14Z</time>
      </trkpt>
      <trkpt lat="46.17544" lon="6.52841">
        <ele>1406.34765625</ele>
        <time>2021-08-23T15:43:26Z</time>
      </trkpt>
      <trkpt lat="46.17541" lon="6.52842">
        <ele>1405.88671875</ele>
        <time>2021-08-23T15:43:35Z</time>
      </trkpt>
      <trkpt lat="46.17526" lon="6.52857">
        <ele>1406.171875</ele>
        <time>2021-08-23T15:43:42Z</time>
      </trkpt>
      <trkpt lat="46.17504" lon="6.52881">
        <ele>1408.10546875</ele>
        <time>2021-08-23T15:43:52Z</time>
      </trkpt>
      <trkpt lat="46.17466" lon="6.52921">
        <ele>1412.34765625</ele>
        <time>2021-08-23T15:44:06Z</time>
      </trkpt>
      <trkpt lat="46.17452" lon="6.52935">
        <ele>1415.36328125</ele>
        <time>2021-08-23T15:44:10Z</time>
      </trkpt>
      <trkpt lat="46.17448" lon="6.52937">
        <ele>1415.85546875</ele>
        <time>2021-08-23T15:44:11Z</time>
      </trkpt>
      <trkpt lat="46.17419" lon="6.52954">
        <ele>1419.203125</ele>
        <time>2021-08-23T15:44:18Z</time>
      </trkpt>
      <trkpt lat="46.17408" lon="6.52958">
        <ele>1420.04296875</ele>
        <time>2021-08-23T15:44:20Z</time>
      </trkpt>
      <trkpt lat="46.17403" lon="6.52959">
        <ele>1420.4921875</ele>
        <time>2021-08-23T15:44:21Z</time>
      </trkpt>
      <trkpt lat="46.17399" lon="6.52961">
        <ele>1420.9375</ele>
        <time>2021-08-23T15:44:22Z</time>
      </trkpt>
      <trkpt lat="46.17394" lon="6.52962">
        <ele>1421.33203125</ele>
        <time>2021-08-23T15:44:23Z</time>
      </trkpt>
      <trkpt lat="46.17389" lon="6.52962">
        <ele>1421.6875</ele>
        <time>2021-08-23T15:44:24Z</time>
      </trkpt>
      <trkpt lat="46.17369" lon="6.52964">
        <ele>1422.73828125</ele>
        <time>2021-08-23T15:44:28Z</time>
      </trkpt>
      <trkpt lat="46.17326" lon="6.52952">
        <ele>1417.2109375</ele>
        <time>2021-08-23T15:44:35Z</time>
      </trkpt>
      <trkpt lat="46.17314" lon="6.52952">
        <ele>1416.7265625</ele>
        <time>2021-08-23T15:44:37Z</time>
      </trkpt>
      <trkpt lat="46.17308" lon="6.52953">
        <ele>1416.9375</ele>
        <time>2021-08-23T15:44:38Z</time>
      </trkpt>
      <trkpt lat="46.17294" lon="6.52956">
        <ele>1417.796875</ele>
        <time>2021-08-23T15:44:41Z</time>
      </trkpt>
      <trkpt lat="46.17286" lon="6.52958">
        <ele>1418.265625</ele>
        <time>2021-08-23T15:44:43Z</time>
      </trkpt>
      <trkpt lat="46.17267" lon="6.52961">
        <ele>1418.9140625</ele>
        <time>2021-08-23T15:44:48Z</time>
      </trkpt>
      <trkpt lat="46.17251" lon="6.52966">
        <ele>1420.5703125</ele>
        <time>2021-08-23T15:44:52Z</time>
      </trkpt>
      <trkpt lat="46.17247" lon="6.52967">
        <ele>1420.72265625</ele>
        <time>2021-08-23T15:44:53Z</time>
      </trkpt>
      <trkpt lat="46.17237" lon="6.5297">
        <ele>1421.47265625</ele>
        <time>2021-08-23T15:44:55Z</time>
      </trkpt>
      <trkpt lat="46.17232" lon="6.52971">
        <ele>1421.69921875</ele>
        <time>2021-08-23T15:44:56Z</time>
      </trkpt>
      <trkpt lat="46.1722" lon="6.52972">
        <ele>1421.515625</ele>
        <time>2021-08-23T15:44:59Z</time>
      </trkpt>
      <trkpt lat="46.172" lon="6.52968">
        <ele>1419.83984375</ele>
        <time>2021-08-23T15:45:04Z</time>
      </trkpt>
      <trkpt lat="46.17196" lon="6.52969">
        <ele>1420.40625</ele>
        <time>2021-08-23T15:45:05Z</time>
      </trkpt>
      <trkpt lat="46.17191" lon="6.52971">
        <ele>1420.92578125</ele>
        <time>2021-08-23T15:45:06Z</time>
      </trkpt>
      <trkpt lat="46.17186" lon="6.52971">
        <ele>1421.203125</ele>
        <time>2021-08-23T15:45:07Z</time>
      </trkpt>
      <trkpt lat="46.17182" lon="6.52972">
        <ele>1421.44140625</ele>
        <time>2021-08-23T15:45:08Z</time>
      </trkpt>
      <trkpt lat="46.17178" lon="6.52971">
        <ele>1421.36328125</ele>
        <time>2021-08-23T15:45:09Z</time>
      </trkpt>
      <trkpt lat="46.17173" lon="6.52969">
        <ele>1420.9296875</ele>
        <time>2021-08-23T15:45:10Z</time>
      </trkpt>
      <trkpt lat="46.17138" lon="6.5296">
        <ele>1418.37109375</ele>
        <time>2021-08-23T15:45:19Z</time>
      </trkpt>
      <trkpt lat="46.17133" lon="6.52959">
        <ele>1417.9609375</ele>
        <time>2021-08-23T15:45:20Z</time>
      </trkpt>
      <trkpt lat="46.17128" lon="6.52958">
        <ele>1417.859375</ele>
        <time>2021-08-23T15:45:21Z</time>
      </trkpt>
      <trkpt lat="46.17124" lon="6.52958">
        <ele>1417.89453125</ele>
        <time>2021-08-23T15:45:22Z</time>
      </trkpt>
      <trkpt lat="46.1712" lon="6.52959">
        <ele>1418.0625</ele>
        <time>2021-08-23T15:45:23Z</time>
      </trkpt>
      <trkpt lat="46.17116" lon="6.5296">
        <ele>1418.6875</ele>
        <time>2021-08-23T15:45:24Z</time>
      </trkpt>
      <trkpt lat="46.17112" lon="6.5296">
        <ele>1418.6953125</ele>
        <time>2021-08-23T15:45:25Z</time>
      </trkpt>
      <trkpt lat="46.17107" lon="6.52959">
        <ele>1418.3203125</ele>
        <time>2021-08-23T15:45:26Z</time>
      </trkpt>
      <trkpt lat="46.17064" lon="6.52964">
        <ele>1415.44140625</ele>
        <time>2021-08-23T15:45:36Z</time>
      </trkpt>
      <trkpt lat="46.17045" lon="6.52978">
        <ele>1412.7265625</ele>
        <time>2021-08-23T15:45:46Z</time>
      </trkpt>
      <trkpt lat="46.17043" lon="6.52982">
        <ele>1412.74609375</ele>
        <time>2021-08-23T15:45:48Z</time>
      </trkpt>
      <trkpt lat="46.17039" lon="6.52993">
        <ele>1414.0234375</ele>
        <time>2021-08-23T15:45:52Z</time>
      </trkpt>
      <trkpt lat="46.17038" lon="6.52995">
        <ele>1413.78125</ele>
        <time>2021-08-23T15:45:53Z</time>
      </trkpt>
      <trkpt lat="46.17036" lon="6.52997">
        <ele>1413.5859375</ele>
        <time>2021-08-23T15:45:55Z</time>
      </trkpt>
      <trkpt lat="46.17036" lon="6.52999">
        <ele>1414.0234375</ele>
        <time>2021-08-23T15:45:56Z</time>
      </trkpt>
      <trkpt lat="46.17035" lon="6.53001">
        <ele>1414.18359375</ele>
        <time>2021-08-23T15:45:57Z</time>
      </trkpt>
      <trkpt lat="46.17034" lon="6.53004">
        <ele>1414.546875</ele>
        <time>2021-08-23T15:45:58Z</time>
      </trkpt>
      <trkpt lat="46.17032" lon="6.53006">
        <ele>1414.3515625</ele>
        <time>2021-08-23T15:45:59Z</time>
      </trkpt>
      <trkpt lat="46.17031" lon="6.53008">
        <ele>1414.11328125</ele>
        <time>2021-08-23T15:46:00Z</time>
      </trkpt>
      <trkpt lat="46.17018" lon="6.53034">
        <ele>1416.05859375</ele>
        <time>2021-08-23T15:46:10Z</time>
      </trkpt>
      <trkpt lat="46.1701" lon="6.5307">
        <ele>1422.25</ele>
        <time>2021-08-23T15:46:17Z</time>
      </trkpt>
      <trkpt lat="46.16991" lon="6.53092">
        <ele>1422.3203125</ele>
        <time>2021-08-23T15:46:27Z</time>
      </trkpt>
      <trkpt lat="46.16989" lon="6.53094">
        <ele>1422.00390625</ele>
        <time>2021-08-23T15:46:28Z</time>
      </trkpt>
      <trkpt lat="46.16987" lon="6.53095">
        <ele>1421.73828125</ele>
        <time>2021-08-23T15:46:29Z</time>
      </trkpt>
      <trkpt lat="46.16985" lon="6.53097">
        <ele>1421.5234375</ele>
        <time>2021-08-23T15:46:30Z</time>
      </trkpt>
      <trkpt lat="46.16984" lon="6.53099">
        <ele>1421.4609375</ele>
        <time>2021-08-23T15:46:31Z</time>
      </trkpt>
      <trkpt lat="46.1697" lon="6.53108">
        <ele>1418.73828125</ele>
        <time>2021-08-23T15:46:40Z</time>
      </trkpt>
      <trkpt lat="46.16969" lon="6.53108">
        <ele>1418.2890625</ele>
        <time>2021-08-23T15:46:41Z</time>
      </trkpt>
      <trkpt lat="46.16967" lon="6.5311">
        <ele>1417.82421875</ele>
        <time>2021-08-23T15:46:42Z</time>
      </trkpt>
      <trkpt lat="46.16964" lon="6.53112">
        <ele>1417.2265625</ele>
        <time>2021-08-23T15:46:43Z</time>
      </trkpt>
      <trkpt lat="46.16963" lon="6.53115">
        <ele>1416.79296875</ele>
        <time>2021-08-23T15:46:44Z</time>
      </trkpt>
      <trkpt lat="46.16953" lon="6.53154">
        <ele>1414.51171875</ele>
        <time>2021-08-23T15:46:55Z</time>
      </trkpt>
      <trkpt lat="46.16954" lon="6.53158">
        <ele>1415.00390625</ele>
        <time>2021-08-23T15:46:56Z</time>
      </trkpt>
      <trkpt lat="46.16956" lon="6.53176">
        <ele>1416.734375</ele>
        <time>2021-08-23T15:47:01Z</time>
      </trkpt>
      <trkpt lat="46.16956" lon="6.53179">
        <ele>1417.08203125</ele>
        <time>2021-08-23T15:47:02Z</time>
      </trkpt>
      <trkpt lat="46.1696" lon="6.5321">
        <ele>1418.23828125</ele>
        <time>2021-08-23T15:47:14Z</time>
      </trkpt>
      <trkpt lat="46.16961" lon="6.53215">
        <ele>1418.43359375</ele>
        <time>2021-08-23T15:47:16Z</time>
      </trkpt>
      <trkpt lat="46.16961" lon="6.53217">
        <ele>1418.3828125</ele>
        <time>2021-08-23T15:47:17Z</time>
      </trkpt>
      <trkpt lat="46.16961" lon="6.5322">
        <ele>1418.4609375</ele>
        <time>2021-08-23T15:47:18Z</time>
      </trkpt>
      <trkpt lat="46.16962" lon="6.53222">
        <ele>1418.6171875</ele>
        <time>2021-08-23T15:47:19Z</time>
      </trkpt>
      <trkpt lat="46.16963" lon="6.53223">
        <ele>1418.91796875</ele>
        <time>2021-08-23T15:47:20Z</time>
      </trkpt>
      <trkpt lat="46.16963" lon="6.53225">
        <ele>1419.21875</ele>
        <time>2021-08-23T15:47:21Z</time>
      </trkpt>
      <trkpt lat="46.16964" lon="6.53227">
        <ele>1419.3984375</ele>
        <time>2021-08-23T15:47:22Z</time>
      </trkpt>
      <trkpt lat="46.16965" lon="6.5323">
        <ele>1419.7890625</ele>
        <time>2021-08-23T15:47:23Z</time>
      </trkpt>
      <trkpt lat="46.16971" lon="6.53253">
        <ele>1421.60546875</ele>
        <time>2021-08-23T15:47:33Z</time>
      </trkpt>
      <trkpt lat="46.16972" lon="6.53255">
        <ele>1422</ele>
        <time>2021-08-23T15:47:34Z</time>
      </trkpt>
      <trkpt lat="46.16973" lon="6.53257">
        <ele>1422.296875</ele>
        <time>2021-08-23T15:47:35Z</time>
      </trkpt>
      <trkpt lat="46.16974" lon="6.53259">
        <ele>1422.62890625</ele>
        <time>2021-08-23T15:47:36Z</time>
      </trkpt>
      <trkpt lat="46.16975" lon="6.5326">
        <ele>1422.984375</ele>
        <time>2021-08-23T15:47:37Z</time>
      </trkpt>
      <trkpt lat="46.16983" lon="6.53302">
        <ele>1425.1015625</ele>
        <time>2021-08-23T15:47:50Z</time>
      </trkpt>
      <trkpt lat="46.16994" lon="6.53329">
        <ele>1429.94921875</ele>
        <time>2021-08-23T15:48:01Z</time>
      </trkpt>
      <trkpt lat="46.16998" lon="6.53354">
        <ele>1433.4375</ele>
        <time>2021-08-23T15:48:11Z</time>
      </trkpt>
      <trkpt lat="46.17006" lon="6.53385">
        <ele>1439.37890625</ele>
        <time>2021-08-23T15:48:25Z</time>
      </trkpt>
      <trkpt lat="46.17017" lon="6.53411">
        <ele>1446.0390625</ele>
        <time>2021-08-23T15:48:38Z</time>
      </trkpt>
      <trkpt lat="46.17029" lon="6.53443">
        <ele>1452.69140625</ele>
        <time>2021-08-23T15:48:53Z</time>
      </trkpt>
      <trkpt lat="46.17037" lon="6.53475">
        <ele>1457.5703125</ele>
        <time>2021-08-23T15:49:07Z</time>
      </trkpt>
      <trkpt lat="46.17034" lon="6.53508">
        <ele>1460.66015625</ele>
        <time>2021-08-23T15:49:20Z</time>
      </trkpt>
      <trkpt lat="46.17034" lon="6.53513">
        <ele>1461.28125</ele>
        <time>2021-08-23T15:49:22Z</time>
      </trkpt>
      <trkpt lat="46.17028" lon="6.53542">
        <ele>1461.64453125</ele>
        <time>2021-08-23T15:49:35Z</time>
      </trkpt>
      <trkpt lat="46.17025" lon="6.5356">
        <ele>1461.46484375</ele>
        <time>2021-08-23T15:49:43Z</time>
      </trkpt>
      <trkpt lat="46.17025" lon="6.53563">
        <ele>1461.55859375</ele>
        <time>2021-08-23T15:49:44Z</time>
      </trkpt>
      <trkpt lat="46.17035" lon="6.53589">
        <ele>1464.30078125</ele>
        <time>2021-08-23T15:49:57Z</time>
      </trkpt>
      <trkpt lat="46.1705" lon="6.53614">
        <ele>1467.18359375</ele>
        <time>2021-08-23T15:50:11Z</time>
      </trkpt>
      <trkpt lat="46.17065" lon="6.53637">
        <ele>1470.53515625</ele>
        <time>2021-08-23T15:50:25Z</time>
      </trkpt>
      <trkpt lat="46.17081" lon="6.53664">
        <ele>1474.12890625</ele>
        <time>2021-08-23T15:50:40Z</time>
      </trkpt>
      <trkpt lat="46.17097" lon="6.53687">
        <ele>1479.4375</ele>
        <time>2021-08-23T15:50:53Z</time>
      </trkpt>
      <trkpt lat="46.17102" lon="6.53692">
        <ele>1481.0078125</ele>
        <time>2021-08-23T15:50:57Z</time>
      </trkpt>
      <trkpt lat="46.17104" lon="6.53694">
        <ele>1481.3671875</ele>
        <time>2021-08-23T15:50:58Z</time>
      </trkpt>
      <trkpt lat="46.17119" lon="6.53711">
        <ele>1485.99609375</ele>
        <time>2021-08-23T15:51:11Z</time>
      </trkpt>
      <trkpt lat="46.17127" lon="6.5374">
        <ele>1489.96484375</ele>
        <time>2021-08-23T15:51:23Z</time>
      </trkpt>
      <trkpt lat="46.17131" lon="6.53773">
        <ele>1495.91015625</ele>
        <time>2021-08-23T15:51:37Z</time>
      </trkpt>
      <trkpt lat="46.17122" lon="6.53797">
        <ele>1499.7890625</ele>
        <time>2021-08-23T15:51:48Z</time>
      </trkpt>
      <trkpt lat="46.17113" lon="6.5381">
        <ele>1501.24609375</ele>
        <time>2021-08-23T15:51:56Z</time>
      </trkpt>
      <trkpt lat="46.17105" lon="6.53821">
        <ele>1502.56640625</ele>
        <time>2021-08-23T15:52:05Z</time>
      </trkpt>
      <trkpt lat="46.17104" lon="6.53822">
        <ele>1502.7265625</ele>
        <time>2021-08-23T15:52:06Z</time>
      </trkpt>
      <trkpt lat="46.17103" lon="6.53824">
        <ele>1503.14453125</ele>
        <time>2021-08-23T15:52:07Z</time>
      </trkpt>
      <trkpt lat="46.17103" lon="6.53827">
        <ele>1503.734375</ele>
        <time>2021-08-23T15:52:08Z</time>
      </trkpt>
      <trkpt lat="46.17103" lon="6.53829">
        <ele>1504.3515625</ele>
        <time>2021-08-23T15:52:09Z</time>
      </trkpt>
      <trkpt lat="46.17101" lon="6.53856">
        <ele>1510.91796875</ele>
        <time>2021-08-23T15:52:19Z</time>
      </trkpt>
      <trkpt lat="46.17106" lon="6.53896">
        <ele>1515.8671875</ele>
        <time>2021-08-23T15:52:34Z</time>
      </trkpt>
      <trkpt lat="46.17103" lon="6.53934">
        <ele>1519.01953125</ele>
        <time>2021-08-23T15:52:49Z</time>
      </trkpt>
      <trkpt lat="46.171" lon="6.53965">
        <ele>1522.3828125</ele>
        <time>2021-08-23T15:53:00Z</time>
      </trkpt>
      <trkpt lat="46.17096" lon="6.53997">
        <ele>1525.45703125</ele>
        <time>2021-08-23T15:53:13Z</time>
      </trkpt>
      <trkpt lat="46.17092" lon="6.54022">
        <ele>1527.30078125</ele>
        <time>2021-08-23T15:53:24Z</time>
      </trkpt>
      <trkpt lat="46.1709" lon="6.54065">
        <ele>1530.36328125</ele>
        <time>2021-08-23T15:53:41Z</time>
      </trkpt>
      <trkpt lat="46.17101" lon="6.54092">
        <ele>1532.33203125</ele>
        <time>2021-08-23T15:53:54Z</time>
      </trkpt>
      <trkpt lat="46.1711" lon="6.54133">
        <ele>1536.73046875</ele>
        <time>2021-08-23T15:54:08Z</time>
      </trkpt>
      <trkpt lat="46.17105" lon="6.54172">
        <ele>1541.28125</ele>
        <time>2021-08-23T15:54:20Z</time>
      </trkpt>
      <trkpt lat="46.1709" lon="6.542">
        <ele>1546.390625</ele>
        <time>2021-08-23T15:54:34Z</time>
      </trkpt>
      <trkpt lat="46.17071" lon="6.54213">
        <ele>1549.4609375</ele>
        <time>2021-08-23T15:54:47Z</time>
      </trkpt>
      <trkpt lat="46.1706" lon="6.54215">
        <ele>1550.73046875</ele>
        <time>2021-08-23T15:54:53Z</time>
      </trkpt>
      <trkpt lat="46.17048" lon="6.5422">
        <ele>1552.75</ele>
        <time>2021-08-23T15:55:01Z</time>
      </trkpt>
      <trkpt lat="46.17038" lon="6.54245">
        <ele>1558.76171875</ele>
        <time>2021-08-23T15:55:13Z</time>
      </trkpt>
      <trkpt lat="46.17037" lon="6.54259">
        <ele>1561.59765625</ele>
        <time>2021-08-23T15:55:19Z</time>
      </trkpt>
      <trkpt lat="46.17038" lon="6.54261">
        <ele>1561.96484375</ele>
        <time>2021-08-23T15:55:20Z</time>
      </trkpt>
      <trkpt lat="46.17039" lon="6.54263">
        <ele>1562.4140625</ele>
        <time>2021-08-23T15:55:21Z</time>
      </trkpt>
      <trkpt lat="46.17051" lon="6.54274">
        <ele>1564.109375</ele>
        <time>2021-08-23T15:55:30Z</time>
      </trkpt>
      <trkpt lat="46.17064" lon="6.54272">
        <ele>1563.40234375</ele>
        <time>2021-08-23T15:55:38Z</time>
      </trkpt>
      <trkpt lat="46.17082" lon="6.54269">
        <ele>1562.48046875</ele>
        <time>2021-08-23T15:55:49Z</time>
      </trkpt>
      <trkpt lat="46.17112" lon="6.54272">
        <ele>1564.19140625</ele>
        <time>2021-08-23T15:56:03Z</time>
      </trkpt>
      <trkpt lat="46.17133" lon="6.54272">
        <ele>1565.08984375</ele>
        <time>2021-08-23T15:56:14Z</time>
      </trkpt>
      <trkpt lat="46.17134" lon="6.5428">
        <ele>1566.875</ele>
        <time>2021-08-23T15:56:28Z</time>
      </trkpt>
      <trkpt lat="46.17135" lon="6.54281">
        <ele>1567.0078125</ele>
        <time>2021-08-23T15:56:39Z</time>
      </trkpt>
      <trkpt lat="46.17135" lon="6.54282">
        <ele>1567.3125</ele>
        <time>2021-08-23T15:56:40Z</time>
      </trkpt>
      <trkpt lat="46.17134" lon="6.54284">
        <ele>1567.6171875</ele>
        <time>2021-08-23T15:56:48Z</time>
      </trkpt>
      <trkpt lat="46.17133" lon="6.54282">
        <ele>1567.02734375</ele>
        <time>2021-08-23T15:57:19Z</time>
      </trkpt>
      <trkpt lat="46.17133" lon="6.5428">
        <ele>1566.69921875</ele>
        <time>2021-08-23T15:57:47Z</time>
      </trkpt>
      <trkpt lat="46.17135" lon="6.54278">
        <ele>1566.4453125</ele>
        <time>2021-08-23T15:57:48Z</time>
      </trkpt>
      <trkpt lat="46.17136" lon="6.54277">
        <ele>1566.28515625</ele>
        <time>2021-08-23T15:57:49Z</time>
      </trkpt>
      <trkpt lat="46.17165" lon="6.54266">
        <ele>1565.80078125</ele>
        <time>2021-08-23T15:58:01Z</time>
      </trkpt>
      <trkpt lat="46.17185" lon="6.54258">
        <ele>1565.15234375</ele>
        <time>2021-08-23T15:58:08Z</time>
      </trkpt>
      <trkpt lat="46.17195" lon="6.54249">
        <ele>1564.1875</ele>
        <time>2021-08-23T15:58:10Z</time>
      </trkpt>
      <trkpt lat="46.17198" lon="6.54242">
        <ele>1563.47265625</ele>
        <time>2021-08-23T15:58:11Z</time>
      </trkpt>
      <trkpt lat="46.17201" lon="6.54235">
        <ele>1562.80078125</ele>
        <time>2021-08-23T15:58:12Z</time>
      </trkpt>
      <trkpt lat="46.17202" lon="6.54228">
        <ele>1562.1796875</ele>
        <time>2021-08-23T15:58:13Z</time>
      </trkpt>
      <trkpt lat="46.17203" lon="6.54223">
        <ele>1561.6953125</ele>
        <time>2021-08-23T15:58:14Z</time>
      </trkpt>
      <trkpt lat="46.17204" lon="6.5422">
        <ele>1561.38671875</ele>
        <time>2021-08-23T15:58:15Z</time>
      </trkpt>
      <trkpt lat="46.17205" lon="6.54217">
        <ele>1561.13671875</ele>
        <time>2021-08-23T15:58:16Z</time>
      </trkpt>
      <trkpt lat="46.17211" lon="6.542">
        <ele>1559.56640625</ele>
        <time>2021-08-23T15:58:23Z</time>
      </trkpt>
      <trkpt lat="46.17213" lon="6.542">
        <ele>1559.8515625</ele>
        <time>2021-08-23T15:58:24Z</time>
      </trkpt>
      <trkpt lat="46.17224" lon="6.54193">
        <ele>1561.3359375</ele>
        <time>2021-08-23T15:58:31Z</time>
      </trkpt>
      <trkpt lat="46.17241" lon="6.54178">
        <ele>1563.90625</ele>
        <time>2021-08-23T15:58:43Z</time>
      </trkpt>
      <trkpt lat="46.17262" lon="6.54207">
        <ele>1570.16015625</ele>
        <time>2021-08-23T15:58:55Z</time>
      </trkpt>
      <trkpt lat="46.17279" lon="6.54212">
        <ele>1573.3125</ele>
        <time>2021-08-23T15:59:06Z</time>
      </trkpt>
      <trkpt lat="46.1728" lon="6.54209">
        <ele>1573.27734375</ele>
        <time>2021-08-23T15:59:07Z</time>
      </trkpt>
      <trkpt lat="46.17282" lon="6.54181">
        <ele>1572.515625</ele>
        <time>2021-08-23T15:59:17Z</time>
      </trkpt>
      <trkpt lat="46.17287" lon="6.54155">
        <ele>1573.21484375</ele>
        <time>2021-08-23T15:59:27Z</time>
      </trkpt>
      <trkpt lat="46.17288" lon="6.54153">
        <ele>1573.41015625</ele>
        <time>2021-08-23T15:59:28Z</time>
      </trkpt>
      <trkpt lat="46.17302" lon="6.54148">
        <ele>1576.9921875</ele>
        <time>2021-08-23T15:59:36Z</time>
      </trkpt>
      <trkpt lat="46.17315" lon="6.54163">
        <ele>1580.18359375</ele>
        <time>2021-08-23T15:59:46Z</time>
      </trkpt>
      <trkpt lat="46.17324" lon="6.54174">
        <ele>1581.92578125</ele>
        <time>2021-08-23T16:00:01Z</time>
      </trkpt>
      <trkpt lat="46.17323" lon="6.54172">
        <ele>1581.9453125</ele>
        <time>2021-08-23T16:00:20Z</time>
      </trkpt>
      <trkpt lat="46.17325" lon="6.54173">
        <ele>1582.29296875</ele>
        <time>2021-08-23T16:00:32Z</time>
      </trkpt>
      <trkpt lat="46.17331" lon="6.54179">
        <ele>1583.36328125</ele>
        <time>2021-08-23T16:00:46Z</time>
      </trkpt>
      <trkpt lat="46.17344" lon="6.54192">
        <ele>1585.75390625</ele>
        <time>2021-08-23T16:00:55Z</time>
      </trkpt>
      <trkpt lat="46.17357" lon="6.542">
        <ele>1588.28125</ele>
        <time>2021-08-23T16:01:03Z</time>
      </trkpt>
      <trkpt lat="46.17373" lon="6.54211">
        <ele>1591.3828125</ele>
        <time>2021-08-23T16:01:13Z</time>
      </trkpt>
      <trkpt lat="46.17376" lon="6.54213">
        <ele>1591.9296875</ele>
        <time>2021-08-23T16:01:15Z</time>
      </trkpt>
      <trkpt lat="46.17394" lon="6.54217">
        <ele>1595.50390625</ele>
        <time>2021-08-23T16:01:26Z</time>
      </trkpt>
      <trkpt lat="46.17403" lon="6.54212">
        <ele>1597.71484375</ele>
        <time>2021-08-23T16:01:32Z</time>
      </trkpt>
      <trkpt lat="46.17404" lon="6.5421">
        <ele>1598.14453125</ele>
        <time>2021-08-23T16:01:33Z</time>
      </trkpt>
      <trkpt lat="46.17405" lon="6.54209">
        <ele>1598.4765625</ele>
        <time>2021-08-23T16:01:34Z</time>
      </trkpt>
      <trkpt lat="46.17405" lon="6.54206">
        <ele>1598.796875</ele>
        <time>2021-08-23T16:01:35Z</time>
      </trkpt>
      <trkpt lat="46.17405" lon="6.54204">
        <ele>1599.1015625</ele>
        <time>2021-08-23T16:01:36Z</time>
      </trkpt>
      <trkpt lat="46.17407" lon="6.5417">
        <ele>1602.62109375</ele>
        <time>2021-08-23T16:01:49Z</time>
      </trkpt>
      <trkpt lat="46.17409" lon="6.54138">
        <ele>1606.1328125</ele>
        <time>2021-08-23T16:02:01Z</time>
      </trkpt>
      <trkpt lat="46.17408" lon="6.54107">
        <ele>1607.515625</ele>
        <time>2021-08-23T16:02:13Z</time>
      </trkpt>
      <trkpt lat="46.17405" lon="6.54086">
        <ele>1608.5390625</ele>
        <time>2021-08-23T16:02:22Z</time>
      </trkpt>
      <trkpt lat="46.17401" lon="6.54064">
        <ele>1610.05859375</ele>
        <time>2021-08-23T16:02:31Z</time>
      </trkpt>
      <trkpt lat="46.17404" lon="6.54034">
        <ele>1614.5390625</ele>
        <time>2021-08-23T16:02:43Z</time>
      </trkpt>
      <trkpt lat="46.17409" lon="6.5403">
        <ele>1616.1328125</ele>
        <time>2021-08-23T16:02:46Z</time>
      </trkpt>
      <trkpt lat="46.17411" lon="6.54031">
        <ele>1616.703125</ele>
        <time>2021-08-23T16:02:47Z</time>
      </trkpt>
      <trkpt lat="46.17413" lon="6.54032">
        <ele>1617.2421875</ele>
        <time>2021-08-23T16:02:48Z</time>
      </trkpt>
      <trkpt lat="46.17414" lon="6.54033">
        <ele>1617.66796875</ele>
        <time>2021-08-23T16:02:49Z</time>
      </trkpt>
      <trkpt lat="46.17416" lon="6.54035">
        <ele>1618.01171875</ele>
        <time>2021-08-23T16:02:50Z</time>
      </trkpt>
      <trkpt lat="46.17417" lon="6.54038">
        <ele>1618.19921875</ele>
        <time>2021-08-23T16:02:51Z</time>
      </trkpt>
      <trkpt lat="46.17418" lon="6.5404">
        <ele>1618.30078125</ele>
        <time>2021-08-23T16:02:52Z</time>
      </trkpt>
      <trkpt lat="46.17418" lon="6.54043">
        <ele>1618.26953125</ele>
        <time>2021-08-23T16:02:53Z</time>
      </trkpt>
      <trkpt lat="46.17419" lon="6.54045">
        <ele>1618.20703125</ele>
        <time>2021-08-23T16:02:54Z</time>
      </trkpt>
      <trkpt lat="46.17423" lon="6.54057">
        <ele>1617.94140625</ele>
        <time>2021-08-23T16:02:59Z</time>
      </trkpt>
      <trkpt lat="46.1743" lon="6.54071">
        <ele>1618.1328125</ele>
        <time>2021-08-23T16:03:06Z</time>
      </trkpt>
      <trkpt lat="46.17444" lon="6.54081">
        <ele>1621.3359375</ele>
        <time>2021-08-23T16:03:15Z</time>
      </trkpt>
      <trkpt lat="46.17461" lon="6.54105">
        <ele>1623.6328125</ele>
        <time>2021-08-23T16:03:29Z</time>
      </trkpt>
      <trkpt lat="46.17474" lon="6.54118">
        <ele>1626.07421875</ele>
        <time>2021-08-23T16:03:40Z</time>
      </trkpt>
      <trkpt lat="46.17474" lon="6.54119">
        <ele>1626.06640625</ele>
        <time>2021-08-23T16:03:41Z</time>
      </trkpt>
      <trkpt lat="46.17475" lon="6.54121">
        <ele>1626.09765625</ele>
        <time>2021-08-23T16:03:42Z</time>
      </trkpt>
      <trkpt lat="46.17476" lon="6.54123">
        <ele>1626.09375</ele>
        <time>2021-08-23T16:03:43Z</time>
      </trkpt>
      <trkpt lat="46.17477" lon="6.54126">
        <ele>1626.03125</ele>
        <time>2021-08-23T16:03:44Z</time>
      </trkpt>
      <trkpt lat="46.17478" lon="6.54129">
        <ele>1625.90625</ele>
        <time>2021-08-23T16:03:45Z</time>
      </trkpt>
      <trkpt lat="46.1749" lon="6.54161">
        <ele>1623.890625</ele>
        <time>2021-08-23T16:03:56Z</time>
      </trkpt>
      <trkpt lat="46.1749" lon="6.54162">
        <ele>1623.61328125</ele>
        <time>2021-08-23T16:04:07Z</time>
      </trkpt>
      <trkpt lat="46.17491" lon="6.54161">
        <ele>1624.15625</ele>
        <time>2021-08-23T16:04:40Z</time>
      </trkpt>
      <trkpt lat="46.1749" lon="6.54162">
        <ele>1623.74609375</ele>
        <time>2021-08-23T16:05:08Z</time>
      </trkpt>
      <trkpt lat="46.17491" lon="6.54162">
        <ele>1623.84375</ele>
        <time>2021-08-23T16:05:50Z</time>
      </trkpt>
      <trkpt lat="46.17498" lon="6.54177">
        <ele>1623.91796875</ele>
        <time>2021-08-23T16:06:04Z</time>
      </trkpt>
      <trkpt lat="46.17518" lon="6.54209">
        <ele>1623.9765625</ele>
        <time>2021-08-23T16:06:14Z</time>
      </trkpt>
      <trkpt lat="46.1752" lon="6.54211">
        <ele>1624.30859375</ele>
        <time>2021-08-23T16:06:16Z</time>
      </trkpt>
      <trkpt lat="46.17521" lon="6.54213">
        <ele>1624.28515625</ele>
        <time>2021-08-23T16:06:17Z</time>
      </trkpt>
      <trkpt lat="46.17523" lon="6.54215">
        <ele>1624.3046875</ele>
        <time>2021-08-23T16:06:18Z</time>
      </trkpt>
      <trkpt lat="46.17542" lon="6.54253">
        <ele>1624.44140625</ele>
        <time>2021-08-23T16:06:30Z</time>
      </trkpt>
      <trkpt lat="46.1755" lon="6.54266">
        <ele>1625.96484375</ele>
        <time>2021-08-23T16:06:41Z</time>
      </trkpt>
      <trkpt lat="46.17556" lon="6.54274">
        <ele>1627.37109375</ele>
        <time>2021-08-23T16:06:52Z</time>
      </trkpt>
      <trkpt lat="46.17568" lon="6.54286">
        <ele>1630.40625</ele>
        <time>2021-08-23T16:07:03Z</time>
      </trkpt>
      <trkpt lat="46.17586" lon="6.54311">
        <ele>1633.265625</ele>
        <time>2021-08-23T16:07:17Z</time>
      </trkpt>
      <trkpt lat="46.17601" lon="6.54344">
        <ele>1635.50390625</ele>
        <time>2021-08-23T16:07:32Z</time>
      </trkpt>
      <trkpt lat="46.17602" lon="6.54346">
        <ele>1635.80859375</ele>
        <time>2021-08-23T16:07:33Z</time>
      </trkpt>
      <trkpt lat="46.17603" lon="6.54347">
        <ele>1636.1328125</ele>
        <time>2021-08-23T16:07:34Z</time>
      </trkpt>
      <trkpt lat="46.17604" lon="6.5435">
        <ele>1636.375</ele>
        <time>2021-08-23T16:07:35Z</time>
      </trkpt>
      <trkpt lat="46.17606" lon="6.54352">
        <ele>1636.6484375</ele>
        <time>2021-08-23T16:07:36Z</time>
      </trkpt>
      <trkpt lat="46.17607" lon="6.54354">
        <ele>1636.97265625</ele>
        <time>2021-08-23T16:07:37Z</time>
      </trkpt>
      <trkpt lat="46.17617" lon="6.54374">
        <ele>1639.83984375</ele>
        <time>2021-08-23T16:07:47Z</time>
      </trkpt>
      <trkpt lat="46.17622" lon="6.54379">
        <ele>1641.453125</ele>
        <time>2021-08-23T16:07:59Z</time>
      </trkpt>
      <trkpt lat="46.17627" lon="6.54382">
        <ele>1643.48828125</ele>
        <time>2021-08-23T16:08:11Z</time>
      </trkpt>
      <trkpt lat="46.1763" lon="6.54384">
        <ele>1644.56640625</ele>
        <time>2021-08-23T16:08:26Z</time>
      </trkpt>
      <trkpt lat="46.17631" lon="6.54384">
        <ele>1645.1328125</ele>
        <time>2021-08-23T16:08:27Z</time>
      </trkpt>
      <trkpt lat="46.17632" lon="6.54386">
        <ele>1645.66015625</ele>
        <time>2021-08-23T16:08:28Z</time>
      </trkpt>
      <trkpt lat="46.17633" lon="6.54388">
        <ele>1646.23828125</ele>
        <time>2021-08-23T16:08:29Z</time>
      </trkpt>
      <trkpt lat="46.17634" lon="6.54389">
        <ele>1646.80078125</ele>
        <time>2021-08-23T16:08:30Z</time>
      </trkpt>
      <trkpt lat="46.17636" lon="6.54391">
        <ele>1647.3359375</ele>
        <time>2021-08-23T16:08:31Z</time>
      </trkpt>
      <trkpt lat="46.17637" lon="6.54392">
        <ele>1647.8359375</ele>
        <time>2021-08-23T16:08:32Z</time>
      </trkpt>
      <trkpt lat="46.17638" lon="6.54393">
        <ele>1648.484375</ele>
        <time>2021-08-23T16:08:33Z</time>
      </trkpt>
      <trkpt lat="46.17639" lon="6.54395">
        <ele>1649.2421875</ele>
        <time>2021-08-23T16:08:34Z</time>
      </trkpt>
      <trkpt lat="46.17641" lon="6.54397">
        <ele>1649.921875</ele>
        <time>2021-08-23T16:08:35Z</time>
      </trkpt>
      <trkpt lat="46.17642" lon="6.54398">
        <ele>1650.5078125</ele>
        <time>2021-08-23T16:08:36Z</time>
      </trkpt>
      <trkpt lat="46.17643" lon="6.54399">
        <ele>1651.1484375</ele>
        <time>2021-08-23T16:08:37Z</time>
      </trkpt>
      <trkpt lat="46.17645" lon="6.544">
        <ele>1651.859375</ele>
        <time>2021-08-23T16:08:38Z</time>
      </trkpt>
      <trkpt lat="46.17651" lon="6.54406">
        <ele>1655.6953125</ele>
        <time>2021-08-23T16:08:51Z</time>
      </trkpt>
      <trkpt lat="46.17665" lon="6.54425">
        <ele>1664.65625</ele>
        <time>2021-08-23T16:09:02Z</time>
      </trkpt>
      <trkpt lat="46.17682" lon="6.54448">
        <ele>1677.62890625</ele>
        <time>2021-08-23T16:09:14Z</time>
      </trkpt>
      <trkpt lat="46.17686" lon="6.54454">
        <ele>1681.75390625</ele>
        <time>2021-08-23T16:09:17Z</time>
      </trkpt>
      <trkpt lat="46.17687" lon="6.54457">
        <ele>1682.8359375</ele>
        <time>2021-08-23T16:09:18Z</time>
      </trkpt>
      <trkpt lat="46.1769" lon="6.54462">
        <ele>1683.8828125</ele>
        <time>2021-08-23T16:09:28Z</time>
      </trkpt>
      <trkpt lat="46.17696" lon="6.54477">
        <ele>1687.7265625</ele>
        <time>2021-08-23T16:09:40Z</time>
      </trkpt>
      <trkpt lat="46.17699" lon="6.54491">
        <ele>1691.93359375</ele>
        <time>2021-08-23T16:09:46Z</time>
      </trkpt>
      <trkpt lat="46.17701" lon="6.54494">
        <ele>1692.6015625</ele>
        <time>2021-08-23T16:09:47Z</time>
      </trkpt>
      <trkpt lat="46.17716" lon="6.54515">
        <ele>1699.25</ele>
        <time>2021-08-23T16:09:55Z</time>
      </trkpt>
      <trkpt lat="46.17718" lon="6.54516">
        <ele>1698.5703125</ele>
        <time>2021-08-23T16:09:56Z</time>
      </trkpt>
      <trkpt lat="46.1772" lon="6.54516">
        <ele>1697.84765625</ele>
        <time>2021-08-23T16:09:57Z</time>
      </trkpt>
      <trkpt lat="46.17727" lon="6.54519">
        <ele>1695.15625</ele>
        <time>2021-08-23T16:10:04Z</time>
      </trkpt>
      <trkpt lat="46.17729" lon="6.54519">
        <ele>1694.4140625</ele>
        <time>2021-08-23T16:10:05Z</time>
      </trkpt>
      <trkpt lat="46.17731" lon="6.54517">
        <ele>1692.68359375</ele>
        <time>2021-08-23T16:10:15Z</time>
      </trkpt>
      <trkpt lat="46.17732" lon="6.54517">
        <ele>1692.234375</ele>
        <time>2021-08-23T16:10:31Z</time>
      </trkpt>
      <trkpt lat="46.17734" lon="6.54514">
        <ele>1689.9140625</ele>
        <time>2021-08-23T16:11:02Z</time>
      </trkpt>
      <trkpt lat="46.17733" lon="6.54519">
        <ele>1692.75390625</ele>
        <time>2021-08-23T16:11:17Z</time>
      </trkpt>
      <trkpt lat="46.17734" lon="6.54527">
        <ele>1693.98828125</ele>
        <time>2021-08-23T16:11:34Z</time>
      </trkpt>
      <trkpt lat="46.17735" lon="6.5453">
        <ele>1694.41015625</ele>
        <time>2021-08-23T16:11:37Z</time>
      </trkpt>
      <trkpt lat="46.17739" lon="6.54539">
        <ele>1695.45703125</ele>
        <time>2021-08-23T16:11:41Z</time>
      </trkpt>
      <trkpt lat="46.17739" lon="6.54546">
        <ele>1697.03515625</ele>
        <time>2021-08-23T16:11:43Z</time>
      </trkpt>
      <trkpt lat="46.17739" lon="6.54549">
        <ele>1697.80859375</ele>
        <time>2021-08-23T16:11:44Z</time>
      </trkpt>
      <trkpt lat="46.17741" lon="6.54551">
        <ele>1697.890625</ele>
        <time>2021-08-23T16:11:45Z</time>
      </trkpt>
      <trkpt lat="46.17743" lon="6.54553">
        <ele>1697.21875</ele>
        <time>2021-08-23T16:11:46Z</time>
      </trkpt>
      <trkpt lat="46.17744" lon="6.54554">
        <ele>1695.87109375</ele>
        <time>2021-08-23T16:11:47Z</time>
      </trkpt>
      <trkpt lat="46.17745" lon="6.54557">
        <ele>1695.3671875</ele>
        <time>2021-08-23T16:11:48Z</time>
      </trkpt>
      <trkpt lat="46.17747" lon="6.54561">
        <ele>1694.7265625</ele>
        <time>2021-08-23T16:11:49Z</time>
      </trkpt>
      <trkpt lat="46.17748" lon="6.54565">
        <ele>1694.47265625</ele>
        <time>2021-08-23T16:11:50Z</time>
      </trkpt>
      <trkpt lat="46.1775" lon="6.54569">
        <ele>1694.43359375</ele>
        <time>2021-08-23T16:11:51Z</time>
      </trkpt>
      <trkpt lat="46.17751" lon="6.54574">
        <ele>1694.93359375</ele>
        <time>2021-08-23T16:11:52Z</time>
      </trkpt>
      <trkpt lat="46.17752" lon="6.54578">
        <ele>1695.67578125</ele>
        <time>2021-08-23T16:11:53Z</time>
      </trkpt>
      <trkpt lat="46.17753" lon="6.54587">
        <ele>1697.65234375</ele>
        <time>2021-08-23T16:11:56Z</time>
      </trkpt>
      <trkpt lat="46.17753" lon="6.54588">
        <ele>1698.0859375</ele>
        <time>2021-08-23T16:11:57Z</time>
      </trkpt>
      <trkpt lat="46.17754" lon="6.5459">
        <ele>1698.18359375</ele>
        <time>2021-08-23T16:11:58Z</time>
      </trkpt>
      <trkpt lat="46.17755" lon="6.54593">
        <ele>1698.4609375</ele>
        <time>2021-08-23T16:12:01Z</time>
      </trkpt>
      <trkpt lat="46.17763" lon="6.54597">
        <ele>1695.29296875</ele>
        <time>2021-08-23T16:12:06Z</time>
      </trkpt>
      <trkpt lat="46.17765" lon="6.54598">
        <ele>1694.8671875</ele>
        <time>2021-08-23T16:12:07Z</time>
      </trkpt>
      <trkpt lat="46.17766" lon="6.546">
        <ele>1695.00390625</ele>
        <time>2021-08-23T16:12:08Z</time>
      </trkpt>
      <trkpt lat="46.17775" lon="6.54608">
        <ele>1693.640625</ele>
        <time>2021-08-23T16:12:13Z</time>
      </trkpt>
      <trkpt lat="46.17788" lon="6.54625">
        <ele>1693.9609375</ele>
        <time>2021-08-23T16:12:19Z</time>
      </trkpt>
      <trkpt lat="46.17795" lon="6.54636">
        <ele>1696.49609375</ele>
        <time>2021-08-23T16:12:28Z</time>
      </trkpt>
      <trkpt lat="46.17796" lon="6.54641">
        <ele>1699.3515625</ele>
        <time>2021-08-23T16:12:30Z</time>
      </trkpt>
      <trkpt lat="46.17799" lon="6.54647">
        <ele>1701.7890625</ele>
        <time>2021-08-23T16:12:34Z</time>
      </trkpt>
      <trkpt lat="46.178" lon="6.54649">
        <ele>1702.43359375</ele>
        <time>2021-08-23T16:12:35Z</time>
      </trkpt>
      <trkpt lat="46.17801" lon="6.54652">
        <ele>1703.13671875</ele>
        <time>2021-08-23T16:12:36Z</time>
      </trkpt>
      <trkpt lat="46.17803" lon="6.54654">
        <ele>1702.8984375</ele>
        <time>2021-08-23T16:12:37Z</time>
      </trkpt>
      <trkpt lat="46.17805" lon="6.54655">
        <ele>1701.984375</ele>
        <time>2021-08-23T16:12:38Z</time>
      </trkpt>
      <trkpt lat="46.17809" lon="6.54657">
        <ele>1700.8671875</ele>
        <time>2021-08-23T16:12:39Z</time>
      </trkpt>
      <trkpt lat="46.17816" lon="6.54664">
        <ele>1700.8203125</ele>
        <time>2021-08-23T16:12:41Z</time>
      </trkpt>
      <trkpt lat="46.17819" lon="6.54668">
        <ele>1702.3515625</ele>
        <time>2021-08-23T16:12:42Z</time>
      </trkpt>
      <trkpt lat="46.17822" lon="6.54672">
        <ele>1704.87109375</ele>
        <time>2021-08-23T16:12:43Z</time>
      </trkpt>
      <trkpt lat="46.17824" lon="6.54675">
        <ele>1707.3828125</ele>
        <time>2021-08-23T16:12:44Z</time>
      </trkpt>
      <trkpt lat="46.17826" lon="6.54679">
        <ele>1709.26953125</ele>
        <time>2021-08-23T16:12:45Z</time>
      </trkpt>
      <trkpt lat="46.17828" lon="6.54682">
        <ele>1709.484375</ele>
        <time>2021-08-23T16:12:46Z</time>
      </trkpt>
      <trkpt lat="46.1783" lon="6.54684">
        <ele>1708.3359375</ele>
        <time>2021-08-23T16:12:47Z</time>
      </trkpt>
      <trkpt lat="46.17832" lon="6.54685">
        <ele>1707.40625</ele>
        <time>2021-08-23T16:12:48Z</time>
      </trkpt>
      <trkpt lat="46.17856" lon="6.54714">
        <ele>1704.19921875</ele>
        <time>2021-08-23T16:12:57Z</time>
      </trkpt>
      <trkpt lat="46.17861" lon="6.54717">
        <ele>1700.21484375</ele>
        <time>2021-08-23T16:13:02Z</time>
      </trkpt>
      <trkpt lat="46.17863" lon="6.54718">
        <ele>1700.38671875</ele>
        <time>2021-08-23T16:13:03Z</time>
      </trkpt>
      <trkpt lat="46.17864" lon="6.5472">
        <ele>1700.58203125</ele>
        <time>2021-08-23T16:13:04Z</time>
      </trkpt>
      <trkpt lat="46.17866" lon="6.54722">
        <ele>1701.3359375</ele>
        <time>2021-08-23T16:13:05Z</time>
      </trkpt>
      <trkpt lat="46.17867" lon="6.54725">
        <ele>1702.78125</ele>
        <time>2021-08-23T16:13:06Z</time>
      </trkpt>
      <trkpt lat="46.17869" lon="6.54728">
        <ele>1704.61328125</ele>
        <time>2021-08-23T16:13:07Z</time>
      </trkpt>
      <trkpt lat="46.1787" lon="6.54731">
        <ele>1707.40234375</ele>
        <time>2021-08-23T16:13:08Z</time>
      </trkpt>
      <trkpt lat="46.17871" lon="6.54734">
        <ele>1711.046875</ele>
        <time>2021-08-23T16:13:09Z</time>
      </trkpt>
      <trkpt lat="46.17872" lon="6.54737">
        <ele>1714.55078125</ele>
        <time>2021-08-23T16:13:10Z</time>
      </trkpt>
      <trkpt lat="46.17874" lon="6.54744">
        <ele>1719.15625</ele>
        <time>2021-08-23T16:13:21Z</time>
      </trkpt>
      <trkpt lat="46.17877" lon="6.54753">
        <ele>1726.12109375</ele>
        <time>2021-08-23T16:13:32Z</time>
      </trkpt>
      <trkpt lat="46.17885" lon="6.54775">
        <ele>1740.296875</ele>
        <time>2021-08-23T16:13:43Z</time>
      </trkpt>
      <trkpt lat="46.17889" lon="6.54787">
        <ele>1746.08203125</ele>
        <time>2021-08-23T16:13:54Z</time>
      </trkpt>
      <trkpt lat="46.17894" lon="6.54799">
        <ele>1751.03125</ele>
        <time>2021-08-23T16:14:07Z</time>
      </trkpt>
      <trkpt lat="46.17898" lon="6.54809">
        <ele>1755.65234375</ele>
        <time>2021-08-23T16:14:22Z</time>
      </trkpt>
      <trkpt lat="46.179" lon="6.54814">
        <ele>1758.3984375</ele>
        <time>2021-08-23T16:14:35Z</time>
      </trkpt>
      <trkpt lat="46.17901" lon="6.54816">
        <ele>1758.84375</ele>
        <time>2021-08-23T16:14:36Z</time>
      </trkpt>
      <trkpt lat="46.17902" lon="6.54817">
        <ele>1759.4453125</ele>
        <time>2021-08-23T16:14:37Z</time>
      </trkpt>
      <trkpt lat="46.17903" lon="6.54819">
        <ele>1760.171875</ele>
        <time>2021-08-23T16:14:38Z</time>
      </trkpt>
      <trkpt lat="46.17904" lon="6.54822">
        <ele>1761.0859375</ele>
        <time>2021-08-23T16:14:39Z</time>
      </trkpt>
      <trkpt lat="46.17906" lon="6.54824">
        <ele>1761.9921875</ele>
        <time>2021-08-23T16:14:40Z</time>
      </trkpt>
      <trkpt lat="46.17908" lon="6.54827">
        <ele>1762.54296875</ele>
        <time>2021-08-23T16:14:41Z</time>
      </trkpt>
      <trkpt lat="46.17909" lon="6.54829">
        <ele>1762.58984375</ele>
        <time>2021-08-23T16:14:42Z</time>
      </trkpt>
      <trkpt lat="46.17924" lon="6.54852">
        <ele>1765.0078125</ele>
        <time>2021-08-23T16:14:55Z</time>
      </trkpt>
      <trkpt lat="46.1793" lon="6.54858">
        <ele>1763.11328125</ele>
        <time>2021-08-23T16:15:09Z</time>
      </trkpt>
      <trkpt lat="46.17937" lon="6.54869">
        <ele>1767.421875</ele>
        <time>2021-08-23T16:15:23Z</time>
      </trkpt>
      <trkpt lat="46.17941" lon="6.54872">
        <ele>1765.87109375</ele>
        <time>2021-08-23T16:15:37Z</time>
      </trkpt>
      <trkpt lat="46.17943" lon="6.54874">
        <ele>1765.6953125</ele>
        <time>2021-08-23T16:15:38Z</time>
      </trkpt>
      <trkpt lat="46.17944" lon="6.54875">
        <ele>1765.55078125</ele>
        <time>2021-08-23T16:15:39Z</time>
      </trkpt>
      <trkpt lat="46.17946" lon="6.54877">
        <ele>1765.7421875</ele>
        <time>2021-08-23T16:15:40Z</time>
      </trkpt>
      <trkpt lat="46.17948" lon="6.5488">
        <ele>1766.3359375</ele>
        <time>2021-08-23T16:15:41Z</time>
      </trkpt>
      <trkpt lat="46.17949" lon="6.54882">
        <ele>1766.91796875</ele>
        <time>2021-08-23T16:15:42Z</time>
      </trkpt>
      <trkpt lat="46.1795" lon="6.54883">
        <ele>1767.49609375</ele>
        <time>2021-08-23T16:15:43Z</time>
      </trkpt>
      <trkpt lat="46.1795" lon="6.54885">
        <ele>1768.296875</ele>
        <time>2021-08-23T16:15:44Z</time>
      </trkpt>
      <trkpt lat="46.17951" lon="6.54886">
        <ele>1768.58203125</ele>
        <time>2021-08-23T16:15:45Z</time>
      </trkpt>
      <trkpt lat="46.17952" lon="6.54887">
        <ele>1768.0234375</ele>
        <time>2021-08-23T16:15:46Z</time>
      </trkpt>
      <trkpt lat="46.17954" lon="6.54889">
        <ele>1767.0625</ele>
        <time>2021-08-23T16:15:47Z</time>
      </trkpt>
      <trkpt lat="46.17956" lon="6.5489">
        <ele>1766.79296875</ele>
        <time>2021-08-23T16:15:48Z</time>
      </trkpt>
      <trkpt lat="46.17958" lon="6.54892">
        <ele>1766.8828125</ele>
        <time>2021-08-23T16:15:49Z</time>
      </trkpt>
      <trkpt lat="46.17959" lon="6.54894">
        <ele>1767.46875</ele>
        <time>2021-08-23T16:15:50Z</time>
      </trkpt>
      <trkpt lat="46.17959" lon="6.54895">
        <ele>1768.7890625</ele>
        <time>2021-08-23T16:15:51Z</time>
      </trkpt>
      <trkpt lat="46.1796" lon="6.54897">
        <ele>1769.64453125</ele>
        <time>2021-08-23T16:15:52Z</time>
      </trkpt>
      <trkpt lat="46.17961" lon="6.549">
        <ele>1773.328125</ele>
        <time>2021-08-23T16:16:02Z</time>
      </trkpt>
      <trkpt lat="46.17962" lon="6.54902">
        <ele>1774.27734375</ele>
        <time>2021-08-23T16:16:03Z</time>
      </trkpt>
      <trkpt lat="46.17963" lon="6.54903">
        <ele>1775.4453125</ele>
        <time>2021-08-23T16:16:04Z</time>
      </trkpt>
      <trkpt lat="46.17964" lon="6.54905">
        <ele>1776.79296875</ele>
        <time>2021-08-23T16:16:05Z</time>
      </trkpt>
      <trkpt lat="46.17968" lon="6.54913">
        <ele>1776.39453125</ele>
        <time>2021-08-23T16:16:16Z</time>
      </trkpt>
      <trkpt lat="46.17972" lon="6.54915">
        <ele>1772.8203125</ele>
        <time>2021-08-23T16:16:29Z</time>
      </trkpt>
      <trkpt lat="46.17973" lon="6.54915">
        <ele>1771.6484375</ele>
        <time>2021-08-23T16:16:30Z</time>
      </trkpt>
      <trkpt lat="46.17975" lon="6.54917">
        <ele>1769.7421875</ele>
        <time>2021-08-23T16:16:31Z</time>
      </trkpt>
      <trkpt lat="46.17981" lon="6.54921">
        <ele>1764.640625</ele>
        <time>2021-08-23T16:16:43Z</time>
      </trkpt>
      <trkpt lat="46.17983" lon="6.54928">
        <ele>1768.5546875</ele>
        <time>2021-08-23T16:16:56Z</time>
      </trkpt>
      <trkpt lat="46.17991" lon="6.54935">
        <ele>1764.234375</ele>
        <time>2021-08-23T16:17:08Z</time>
      </trkpt>
      <trkpt lat="46.17999" lon="6.54941">
        <ele>1759.34765625</ele>
        <time>2021-08-23T16:17:23Z</time>
      </trkpt>
      <trkpt lat="46.18004" lon="6.54944">
        <ele>1755.8515625</ele>
        <time>2021-08-23T16:17:26Z</time>
      </trkpt>
      <trkpt lat="46.18006" lon="6.54944">
        <ele>1753.796875</ele>
        <time>2021-08-23T16:17:27Z</time>
      </trkpt>
      <trkpt lat="46.18008" lon="6.54945">
        <ele>1752.03125</ele>
        <time>2021-08-23T16:17:28Z</time>
      </trkpt>
      <trkpt lat="46.18024" lon="6.54946">
        <ele>1732.83984375</ele>
        <time>2021-08-23T16:17:38Z</time>
      </trkpt>
      <trkpt lat="46.18029" lon="6.54943">
        <ele>1723.578125</ele>
        <time>2021-08-23T16:17:52Z</time>
      </trkpt>
      <trkpt lat="46.18035" lon="6.54943">
        <ele>1716.83984375</ele>
        <time>2021-08-23T16:17:56Z</time>
      </trkpt>
      <trkpt lat="46.18036" lon="6.54943">
        <ele>1714.96875</ele>
        <time>2021-08-23T16:17:57Z</time>
      </trkpt>
      <trkpt lat="46.18043" lon="6.54944">
        <ele>1707.484375</ele>
        <time>2021-08-23T16:18:01Z</time>
      </trkpt>
      <trkpt lat="46.18045" lon="6.54944">
        <ele>1704.94140625</ele>
        <time>2021-08-23T16:18:02Z</time>
      </trkpt>
      <trkpt lat="46.18047" lon="6.54943">
        <ele>1702.29296875</ele>
        <time>2021-08-23T16:18:03Z</time>
      </trkpt>
      <trkpt lat="46.18048" lon="6.54942">
        <ele>1699.828125</ele>
        <time>2021-08-23T16:18:04Z</time>
      </trkpt>
      <trkpt lat="46.1805" lon="6.54941">
        <ele>1697.89453125</ele>
        <time>2021-08-23T16:18:05Z</time>
      </trkpt>
      <trkpt lat="46.18052" lon="6.54941">
        <ele>1696.33203125</ele>
        <time>2021-08-23T16:18:06Z</time>
      </trkpt>
      <trkpt lat="46.1808" lon="6.54926">
        <ele>1670.6015625</ele>
        <time>2021-08-23T16:18:18Z</time>
      </trkpt>
      <trkpt lat="46.18082" lon="6.54925">
        <ele>1670.24609375</ele>
        <time>2021-08-23T16:18:19Z</time>
      </trkpt>
      <trkpt lat="46.18084" lon="6.54926">
        <ele>1670.63671875</ele>
        <time>2021-08-23T16:18:20Z</time>
      </trkpt>
      <trkpt lat="46.18086" lon="6.54927">
        <ele>1671.03125</ele>
        <time>2021-08-23T16:18:21Z</time>
      </trkpt>
      <trkpt lat="46.18088" lon="6.54927">
        <ele>1670.87109375</ele>
        <time>2021-08-23T16:18:22Z</time>
      </trkpt>
      <trkpt lat="46.1809" lon="6.54926">
        <ele>1670.00390625</ele>
        <time>2021-08-23T16:18:23Z</time>
      </trkpt>
      <trkpt lat="46.18092" lon="6.54924">
        <ele>1669.1640625</ele>
        <time>2021-08-23T16:18:24Z</time>
      </trkpt>
      <trkpt lat="46.18095" lon="6.5492">
        <ele>1666.92578125</ele>
        <time>2021-08-23T16:18:30Z</time>
      </trkpt>
      <trkpt lat="46.18096" lon="6.54919">
        <ele>1666.3125</ele>
        <time>2021-08-23T16:18:31Z</time>
      </trkpt>
      <trkpt lat="46.18097" lon="6.54917">
        <ele>1665.53515625</ele>
        <time>2021-08-23T16:18:32Z</time>
      </trkpt>
      <trkpt lat="46.18113" lon="6.54881">
        <ele>1653.9296875</ele>
        <time>2021-08-23T16:18:44Z</time>
      </trkpt>
      <trkpt lat="46.1813" lon="6.54872">
        <ele>1656.96875</ele>
        <time>2021-08-23T16:18:52Z</time>
      </trkpt>
      <trkpt lat="46.18132" lon="6.5487">
        <ele>1657.19140625</ele>
        <time>2021-08-23T16:18:53Z</time>
      </trkpt>
      <trkpt lat="46.18134" lon="6.54869">
        <ele>1657.6328125</ele>
        <time>2021-08-23T16:18:54Z</time>
      </trkpt>
      <trkpt lat="46.18136" lon="6.54868">
        <ele>1658.16015625</ele>
        <time>2021-08-23T16:18:55Z</time>
      </trkpt>
      <trkpt lat="46.18164" lon="6.54862">
        <ele>1664.1796875</ele>
        <time>2021-08-23T16:19:08Z</time>
      </trkpt>
      <trkpt lat="46.18175" lon="6.54864">
        <ele>1665.46484375</ele>
        <time>2021-08-23T16:19:14Z</time>
      </trkpt>
      <trkpt lat="46.18177" lon="6.54864">
        <ele>1665.5625</ele>
        <time>2021-08-23T16:19:15Z</time>
      </trkpt>
      <trkpt lat="46.1819" lon="6.54865">
        <ele>1666.34765625</ele>
        <time>2021-08-23T16:19:22Z</time>
      </trkpt>
      <trkpt lat="46.18192" lon="6.54865">
        <ele>1666.29296875</ele>
        <time>2021-08-23T16:19:23Z</time>
      </trkpt>
      <trkpt lat="46.18199" lon="6.54868">
        <ele>1666.4140625</ele>
        <time>2021-08-23T16:19:27Z</time>
      </trkpt>
      <trkpt lat="46.182" lon="6.54869">
        <ele>1666.40625</ele>
        <time>2021-08-23T16:19:28Z</time>
      </trkpt>
      <trkpt lat="46.18202" lon="6.5487">
        <ele>1666.39453125</ele>
        <time>2021-08-23T16:19:29Z</time>
      </trkpt>
      <trkpt lat="46.18208" lon="6.54871">
        <ele>1666.15234375</ele>
        <time>2021-08-23T16:19:33Z</time>
      </trkpt>
      <trkpt lat="46.1821" lon="6.54871">
        <ele>1666.0390625</ele>
        <time>2021-08-23T16:19:34Z</time>
      </trkpt>
      <trkpt lat="46.18211" lon="6.54872">
        <ele>1665.9296875</ele>
        <time>2021-08-23T16:19:35Z</time>
      </trkpt>
      <trkpt lat="46.18213" lon="6.54872">
        <ele>1665.828125</ele>
        <time>2021-08-23T16:19:36Z</time>
      </trkpt>
      <trkpt lat="46.18214" lon="6.54877">
        <ele>1665.953125</ele>
        <time>2021-08-23T16:19:47Z</time>
      </trkpt>
      <trkpt lat="46.18218" lon="6.54877">
        <ele>1664.8671875</ele>
        <time>2021-08-23T16:20:02Z</time>
      </trkpt>
      <trkpt lat="46.18219" lon="6.54878">
        <ele>1664.6484375</ele>
        <time>2021-08-23T16:20:04Z</time>
      </trkpt>
      <trkpt lat="46.1822" lon="6.54879">
        <ele>1664.3984375</ele>
        <time>2021-08-23T16:20:05Z</time>
      </trkpt>
      <trkpt lat="46.18221" lon="6.54878">
        <ele>1664.09765625</ele>
        <time>2021-08-23T16:20:06Z</time>
      </trkpt>
      <trkpt lat="46.18223" lon="6.54879">
        <ele>1663.8046875</ele>
        <time>2021-08-23T16:20:07Z</time>
      </trkpt>
      <trkpt lat="46.18224" lon="6.5488">
        <ele>1663.50390625</ele>
        <time>2021-08-23T16:20:08Z</time>
      </trkpt>
      <trkpt lat="46.18225" lon="6.54882">
        <ele>1663.1484375</ele>
        <time>2021-08-23T16:20:09Z</time>
      </trkpt>
      <trkpt lat="46.18227" lon="6.54883">
        <ele>1662.625</ele>
        <time>2021-08-23T16:20:10Z</time>
      </trkpt>
      <trkpt lat="46.18231" lon="6.54884">
        <ele>1661.29296875</ele>
        <time>2021-08-23T16:20:13Z</time>
      </trkpt>
      <trkpt lat="46.18233" lon="6.54883">
        <ele>1660.8515625</ele>
        <time>2021-08-23T16:20:14Z</time>
      </trkpt>
      <trkpt lat="46.18239" lon="6.54879">
        <ele>1659.74609375</ele>
        <time>2021-08-23T16:20:18Z</time>
      </trkpt>
      <trkpt lat="46.1824" lon="6.54879">
        <ele>1659.28125</ele>
        <time>2021-08-23T16:20:19Z</time>
      </trkpt>
      <trkpt lat="46.18245" lon="6.5488">
        <ele>1658.70703125</ele>
        <time>2021-08-23T16:20:22Z</time>
      </trkpt>
      <trkpt lat="46.18247" lon="6.5488">
        <ele>1658.65625</ele>
        <time>2021-08-23T16:20:23Z</time>
      </trkpt>
      <trkpt lat="46.18249" lon="6.5488">
        <ele>1658.5859375</ele>
        <time>2021-08-23T16:20:24Z</time>
      </trkpt>
      <trkpt lat="46.18251" lon="6.5488">
        <ele>1658.50390625</ele>
        <time>2021-08-23T16:20:25Z</time>
      </trkpt>
      <trkpt lat="46.18253" lon="6.54879">
        <ele>1658.46875</ele>
        <time>2021-08-23T16:20:26Z</time>
      </trkpt>
      <trkpt lat="46.18257" lon="6.5488">
        <ele>1658.16796875</ele>
        <time>2021-08-23T16:20:29Z</time>
      </trkpt>
      <trkpt lat="46.18258" lon="6.54881">
        <ele>1657.8828125</ele>
        <time>2021-08-23T16:20:30Z</time>
      </trkpt>
      <trkpt lat="46.1826" lon="6.54881">
        <ele>1657.765625</ele>
        <time>2021-08-23T16:20:31Z</time>
      </trkpt>
      <trkpt lat="46.18262" lon="6.54881">
        <ele>1657.71875</ele>
        <time>2021-08-23T16:20:32Z</time>
      </trkpt>
      <trkpt lat="46.18264" lon="6.54881">
        <ele>1657.63671875</ele>
        <time>2021-08-23T16:20:33Z</time>
      </trkpt>
      <trkpt lat="46.18266" lon="6.54881">
        <ele>1657.5</ele>
        <time>2021-08-23T16:20:34Z</time>
      </trkpt>
      <trkpt lat="46.18268" lon="6.54881">
        <ele>1657.42578125</ele>
        <time>2021-08-23T16:20:35Z</time>
      </trkpt>
      <trkpt lat="46.1827" lon="6.54881">
        <ele>1657.4296875</ele>
        <time>2021-08-23T16:20:36Z</time>
      </trkpt>
      <trkpt lat="46.18272" lon="6.5488">
        <ele>1657.68359375</ele>
        <time>2021-08-23T16:20:37Z</time>
      </trkpt>
      <trkpt lat="46.18273" lon="6.5488">
        <ele>1657.796875</ele>
        <time>2021-08-23T16:20:38Z</time>
      </trkpt>
      <trkpt lat="46.18284" lon="6.54878">
        <ele>1658.77734375</ele>
        <time>2021-08-23T16:20:45Z</time>
      </trkpt>
      <trkpt lat="46.18301" lon="6.5488">
        <ele>1659.21875</ele>
        <time>2021-08-23T16:20:57Z</time>
      </trkpt>
      <trkpt lat="46.18315" lon="6.54884">
        <ele>1661.25390625</ele>
        <time>2021-08-23T16:21:07Z</time>
      </trkpt>
      <trkpt lat="46.18319" lon="6.54883">
        <ele>1662.21484375</ele>
        <time>2021-08-23T16:21:10Z</time>
      </trkpt>
      <trkpt lat="46.18322" lon="6.54882">
        <ele>1663.203125</ele>
        <time>2021-08-23T16:21:11Z</time>
      </trkpt>
      <trkpt lat="46.18324" lon="6.5488">
        <ele>1664.3671875</ele>
        <time>2021-08-23T16:21:12Z</time>
      </trkpt>
      <trkpt lat="46.18327" lon="6.54879">
        <ele>1665.1953125</ele>
        <time>2021-08-23T16:21:13Z</time>
      </trkpt>
      <trkpt lat="46.18334" lon="6.54872">
        <ele>1667.84375</ele>
        <time>2021-08-23T16:21:17Z</time>
      </trkpt>
      <trkpt lat="46.18336" lon="6.54871">
        <ele>1668.26953125</ele>
        <time>2021-08-23T16:21:18Z</time>
      </trkpt>
      <trkpt lat="46.18346" lon="6.54869">
        <ele>1670.14453125</ele>
        <time>2021-08-23T16:21:25Z</time>
      </trkpt>
      <trkpt lat="46.18348" lon="6.54869">
        <ele>1670.484375</ele>
        <time>2021-08-23T16:21:26Z</time>
      </trkpt>
      <trkpt lat="46.1835" lon="6.54869">
        <ele>1670.74609375</ele>
        <time>2021-08-23T16:21:27Z</time>
      </trkpt>
      <trkpt lat="46.18351" lon="6.54869">
        <ele>1670.828125</ele>
        <time>2021-08-23T16:21:28Z</time>
      </trkpt>
      <trkpt lat="46.18352" lon="6.54869">
        <ele>1670.9765625</ele>
        <time>2021-08-23T16:21:29Z</time>
      </trkpt>
      <trkpt lat="46.18369" lon="6.54874">
        <ele>1671.1875</ele>
        <time>2021-08-23T16:21:38Z</time>
      </trkpt>
      <trkpt lat="46.18387" lon="6.5487">
        <ele>1673.68359375</ele>
        <time>2021-08-23T16:21:51Z</time>
      </trkpt>
      <trkpt lat="46.18394" lon="6.54868">
        <ele>1675.3046875</ele>
        <time>2021-08-23T16:22:12Z</time>
      </trkpt>
      <trkpt lat="46.18395" lon="6.54867">
        <ele>1675.59765625</ele>
        <time>2021-08-23T16:22:13Z</time>
      </trkpt>
      <trkpt lat="46.18398" lon="6.54865">
        <ele>1676.39453125</ele>
        <time>2021-08-23T16:22:16Z</time>
      </trkpt>
      <trkpt lat="46.18399" lon="6.54866">
        <ele>1676.48046875</ele>
        <time>2021-08-23T16:22:17Z</time>
      </trkpt>
      <trkpt lat="46.184" lon="6.54866">
        <ele>1676.51171875</ele>
        <time>2021-08-23T16:22:18Z</time>
      </trkpt>
      <trkpt lat="46.18409" lon="6.54864">
        <ele>1678.34375</ele>
        <time>2021-08-23T16:22:32Z</time>
      </trkpt>
      <trkpt lat="46.1842" lon="6.54864">
        <ele>1680.35546875</ele>
        <time>2021-08-23T16:22:48Z</time>
      </trkpt>
      <trkpt lat="46.18426" lon="6.54862">
        <ele>1681.7421875</ele>
        <time>2021-08-23T16:22:52Z</time>
      </trkpt>
      <trkpt lat="46.18428" lon="6.54862">
        <ele>1682.24609375</ele>
        <time>2021-08-23T16:22:53Z</time>
      </trkpt>
      <trkpt lat="46.1843" lon="6.54862">
        <ele>1682.47265625</ele>
        <time>2021-08-23T16:22:54Z</time>
      </trkpt>
      <trkpt lat="46.18432" lon="6.54862">
        <ele>1682.76171875</ele>
        <time>2021-08-23T16:22:55Z</time>
      </trkpt>
      <trkpt lat="46.18433" lon="6.54863">
        <ele>1682.87109375</ele>
        <time>2021-08-23T16:22:56Z</time>
      </trkpt>
      <trkpt lat="46.18435" lon="6.54864">
        <ele>1682.96875</ele>
        <time>2021-08-23T16:22:57Z</time>
      </trkpt>
      <trkpt lat="46.18441" lon="6.54867">
        <ele>1683.7109375</ele>
        <time>2021-08-23T16:23:01Z</time>
      </trkpt>
      <trkpt lat="46.18443" lon="6.54867">
        <ele>1684.140625</ele>
        <time>2021-08-23T16:23:02Z</time>
      </trkpt>
      <trkpt lat="46.18454" lon="6.54873">
        <ele>1685.09765625</ele>
        <time>2021-08-23T16:23:09Z</time>
      </trkpt>
      <trkpt lat="46.18457" lon="6.54874">
        <ele>1685.52734375</ele>
        <time>2021-08-23T16:23:11Z</time>
      </trkpt>
      <trkpt lat="46.18462" lon="6.54873">
        <ele>1687.0234375</ele>
        <time>2021-08-23T16:23:27Z</time>
      </trkpt>
      <trkpt lat="46.18467" lon="6.54874">
        <ele>1687.69921875</ele>
        <time>2021-08-23T16:23:38Z</time>
      </trkpt>
      <trkpt lat="46.18467" lon="6.54872">
        <ele>1688.15234375</ele>
        <time>2021-08-23T16:23:56Z</time>
      </trkpt>
      <trkpt lat="46.18473" lon="6.54874">
        <ele>1689.125</ele>
        <time>2021-08-23T16:24:07Z</time>
      </trkpt>
      <trkpt lat="46.18482" lon="6.54874">
        <ele>1691.08203125</ele>
        <time>2021-08-23T16:24:13Z</time>
      </trkpt>
      <trkpt lat="46.18493" lon="6.54874">
        <ele>1693.78515625</ele>
        <time>2021-08-23T16:24:20Z</time>
      </trkpt>
      <trkpt lat="46.18505" lon="6.5488">
        <ele>1695.9296875</ele>
        <time>2021-08-23T16:24:27Z</time>
      </trkpt>
      <trkpt lat="46.18507" lon="6.54882">
        <ele>1695.58984375</ele>
        <time>2021-08-23T16:24:29Z</time>
      </trkpt>
      <trkpt lat="46.18512" lon="6.54884">
        <ele>1696.4453125</ele>
        <time>2021-08-23T16:24:33Z</time>
      </trkpt>
      <trkpt lat="46.18516" lon="6.54883">
        <ele>1698</ele>
        <time>2021-08-23T16:24:35Z</time>
      </trkpt>
      <trkpt lat="46.18526" lon="6.54878">
        <ele>1702.96875</ele>
        <time>2021-08-23T16:24:51Z</time>
      </trkpt>
      <trkpt lat="46.18529" lon="6.54884">
        <ele>1701.3671875</ele>
        <time>2021-08-23T16:25:04Z</time>
      </trkpt>
      <trkpt lat="46.18531" lon="6.54886">
        <ele>1701.3671875</ele>
        <time>2021-08-23T16:25:17Z</time>
      </trkpt>
      <trkpt lat="46.18539" lon="6.5489">
        <ele>1701.8125</ele>
        <time>2021-08-23T16:25:24Z</time>
      </trkpt>
      <trkpt lat="46.18541" lon="6.5489">
        <ele>1702.33984375</ele>
        <time>2021-08-23T16:25:25Z</time>
      </trkpt>
      <trkpt lat="46.18548" lon="6.54892">
        <ele>1703.42578125</ele>
        <time>2021-08-23T16:25:29Z</time>
      </trkpt>
      <trkpt lat="46.1855" lon="6.54892">
        <ele>1704.05078125</ele>
        <time>2021-08-23T16:25:30Z</time>
      </trkpt>
      <trkpt lat="46.18552" lon="6.54892">
        <ele>1704.75</ele>
        <time>2021-08-23T16:25:31Z</time>
      </trkpt>
      <trkpt lat="46.18553" lon="6.54891">
        <ele>1705.69140625</ele>
        <time>2021-08-23T16:25:32Z</time>
      </trkpt>
      <trkpt lat="46.18555" lon="6.5489">
        <ele>1706.4453125</ele>
        <time>2021-08-23T16:25:33Z</time>
      </trkpt>
      <trkpt lat="46.18557" lon="6.5489">
        <ele>1706.9375</ele>
        <time>2021-08-23T16:25:34Z</time>
      </trkpt>
      <trkpt lat="46.18558" lon="6.54891">
        <ele>1707.0546875</ele>
        <time>2021-08-23T16:25:35Z</time>
      </trkpt>
      <trkpt lat="46.18564" lon="6.54887">
        <ele>1710.5546875</ele>
        <time>2021-08-23T16:25:39Z</time>
      </trkpt>
      <trkpt lat="46.18566" lon="6.54884">
        <ele>1712.23046875</ele>
        <time>2021-08-23T16:25:40Z</time>
      </trkpt>
      <trkpt lat="46.18567" lon="6.54882">
        <ele>1713.5703125</ele>
        <time>2021-08-23T16:25:41Z</time>
      </trkpt>
      <trkpt lat="46.18588" lon="6.54872">
        <ele>1720.98046875</ele>
        <time>2021-08-23T16:25:54Z</time>
      </trkpt>
      <trkpt lat="46.18603" lon="6.54871">
        <ele>1724.26953125</ele>
        <time>2021-08-23T16:26:02Z</time>
      </trkpt>
      <trkpt lat="46.18621" lon="6.54874">
        <ele>1726.98828125</ele>
        <time>2021-08-23T16:26:13Z</time>
      </trkpt>
      <trkpt lat="46.18626" lon="6.54873">
        <ele>1728.01953125</ele>
        <time>2021-08-23T16:26:16Z</time>
      </trkpt>
      <trkpt lat="46.18628" lon="6.54874">
        <ele>1728.19921875</ele>
        <time>2021-08-23T16:26:17Z</time>
      </trkpt>
      <trkpt lat="46.18629" lon="6.54875">
        <ele>1728.25390625</ele>
        <time>2021-08-23T16:26:18Z</time>
      </trkpt>
      <trkpt lat="46.18633" lon="6.54878">
        <ele>1728.578125</ele>
        <time>2021-08-23T16:26:21Z</time>
      </trkpt>
      <trkpt lat="46.18649" lon="6.54876">
        <ele>1731.7265625</ele>
        <time>2021-08-23T16:26:33Z</time>
      </trkpt>
      <trkpt lat="46.18669" lon="6.54877">
        <ele>1734.40234375</ele>
        <time>2021-08-23T16:26:44Z</time>
      </trkpt>
      <trkpt lat="46.18692" lon="6.54881">
        <ele>1735.5</ele>
        <time>2021-08-23T16:26:57Z</time>
      </trkpt>
      <trkpt lat="46.18715" lon="6.54886">
        <ele>1734.5234375</ele>
        <time>2021-08-23T16:27:10Z</time>
      </trkpt>
      <trkpt lat="46.18721" lon="6.54886">
        <ele>1734.515625</ele>
        <time>2021-08-23T16:27:13Z</time>
      </trkpt>
      <trkpt lat="46.18745" lon="6.54881">
        <ele>1737.20703125</ele>
        <time>2021-08-23T16:27:25Z</time>
      </trkpt>
      <trkpt lat="46.18769" lon="6.54873">
        <ele>1740.48828125</ele>
        <time>2021-08-23T16:27:35Z</time>
      </trkpt>
      <trkpt lat="46.18796" lon="6.54871">
        <ele>1743.4765625</ele>
        <time>2021-08-23T16:27:46Z</time>
      </trkpt>
      <trkpt lat="46.18819" lon="6.54882">
        <ele>1741.96875</ele>
        <time>2021-08-23T16:27:58Z</time>
      </trkpt>
      <trkpt lat="46.18845" lon="6.5489">
        <ele>1742.18359375</ele>
        <time>2021-08-23T16:28:11Z</time>
      </trkpt>
      <trkpt lat="46.18846" lon="6.54892">
        <ele>1741.48828125</ele>
        <time>2021-08-23T16:28:28Z</time>
      </trkpt>
      <trkpt lat="46.18849" lon="6.54891">
        <ele>1742.3984375</ele>
        <time>2021-08-23T16:28:50Z</time>
      </trkpt>
      <trkpt lat="46.18848" lon="6.5489">
        <ele>1742.37890625</ele>
        <time>2021-08-23T16:29:22Z</time>
      </trkpt>
      <trkpt lat="46.18865" lon="6.54899">
        <ele>1741.6875</ele>
        <time>2021-08-23T16:29:37Z</time>
      </trkpt>
      <trkpt lat="46.18867" lon="6.54899">
        <ele>1741.9375</ele>
        <time>2021-08-23T16:29:38Z</time>
      </trkpt>
      <trkpt lat="46.18869" lon="6.549">
        <ele>1741.96484375</ele>
        <time>2021-08-23T16:29:39Z</time>
      </trkpt>
      <trkpt lat="46.18871" lon="6.54902">
        <ele>1741.80078125</ele>
        <time>2021-08-23T16:29:40Z</time>
      </trkpt>
      <trkpt lat="46.18873" lon="6.54903">
        <ele>1741.58984375</ele>
        <time>2021-08-23T16:29:41Z</time>
      </trkpt>
      <trkpt lat="46.18875" lon="6.54905">
        <ele>1741.546875</ele>
        <time>2021-08-23T16:29:42Z</time>
      </trkpt>
      <trkpt lat="46.18877" lon="6.54906">
        <ele>1741.4921875</ele>
        <time>2021-08-23T16:29:43Z</time>
      </trkpt>
      <trkpt lat="46.1888" lon="6.54908">
        <ele>1741.3515625</ele>
        <time>2021-08-23T16:29:44Z</time>
      </trkpt>
      <trkpt lat="46.18883" lon="6.54909">
        <ele>1741.3515625</ele>
        <time>2021-08-23T16:29:45Z</time>
      </trkpt>
      <trkpt lat="46.18925" lon="6.54927">
        <ele>1743.09375</ele>
        <time>2021-08-23T16:29:59Z</time>
      </trkpt>
      <trkpt lat="46.18956" lon="6.54939">
        <ele>1744.50390625</ele>
        <time>2021-08-23T16:30:09Z</time>
      </trkpt>
      <trkpt lat="46.18964" lon="6.54942">
        <ele>1744.1953125</ele>
        <time>2021-08-23T16:30:13Z</time>
      </trkpt>
      <trkpt lat="46.18966" lon="6.54944">
        <ele>1743.4453125</ele>
        <time>2021-08-23T16:30:14Z</time>
      </trkpt>
      <trkpt lat="46.18968" lon="6.54946">
        <ele>1742.8671875</ele>
        <time>2021-08-23T16:30:15Z</time>
      </trkpt>
      <trkpt lat="46.1897" lon="6.54947">
        <ele>1742.28125</ele>
        <time>2021-08-23T16:30:16Z</time>
      </trkpt>
      <trkpt lat="46.18973" lon="6.5495">
        <ele>1741.37109375</ele>
        <time>2021-08-23T16:30:17Z</time>
      </trkpt>
      <trkpt lat="46.18975" lon="6.54952">
        <ele>1740.34765625</ele>
        <time>2021-08-23T16:30:18Z</time>
      </trkpt>
      <trkpt lat="46.18978" lon="6.54954">
        <ele>1739.53515625</ele>
        <time>2021-08-23T16:30:19Z</time>
      </trkpt>
      <trkpt lat="46.18982" lon="6.54956">
        <ele>1739.08203125</ele>
        <time>2021-08-23T16:30:20Z</time>
      </trkpt>
      <trkpt lat="46.1903" lon="6.54973">
        <ele>1736.90625</ele>
        <time>2021-08-23T16:30:34Z</time>
      </trkpt>
      <trkpt lat="46.19042" lon="6.54974">
        <ele>1737.953125</ele>
        <time>2021-08-23T16:30:37Z</time>
      </trkpt>
      <trkpt lat="46.19045" lon="6.54974">
        <ele>1738.60546875</ele>
        <time>2021-08-23T16:30:38Z</time>
      </trkpt>
      <trkpt lat="46.19049" lon="6.54972">
        <ele>1739.62890625</ele>
        <time>2021-08-23T16:30:39Z</time>
      </trkpt>
      <trkpt lat="46.19062" lon="6.54967">
        <ele>1743.36328125</ele>
        <time>2021-08-23T16:30:50Z</time>
      </trkpt>
      <trkpt lat="46.19066" lon="6.54967">
        <ele>1744.2265625</ele>
        <time>2021-08-23T16:31:04Z</time>
      </trkpt>
      <trkpt lat="46.19066" lon="6.54967">
        <ele>1744.01953125</ele>
        <time>2021-08-23T16:31:35Z</time>
      </trkpt>
      <trkpt lat="46.19067" lon="6.54969">
        <ele>1743.53125</ele>
        <time>2021-08-23T16:32:12Z</time>
      </trkpt>
      <trkpt lat="46.19063" lon="6.5497">
        <ele>1742.58984375</ele>
        <time>2021-08-23T16:32:50Z</time>
      </trkpt>
      <trkpt lat="46.19069" lon="6.54967">
        <ele>1744.47265625</ele>
        <time>2021-08-23T16:33:21Z</time>
      </trkpt>
      <trkpt lat="46.19067" lon="6.54966">
        <ele>1744.62109375</ele>
        <time>2021-08-23T16:33:52Z</time>
      </trkpt>
      <trkpt lat="46.19066" lon="6.54964">
        <ele>1745.19140625</ele>
        <time>2021-08-23T16:34:13Z</time>
      </trkpt>
      <trkpt lat="46.19067" lon="6.54962">
        <ele>1745.9375</ele>
        <time>2021-08-23T16:34:15Z</time>
      </trkpt>
      <trkpt lat="46.19068" lon="6.5496">
        <ele>1746.8203125</ele>
        <time>2021-08-23T16:34:16Z</time>
      </trkpt>
      <trkpt lat="46.19069" lon="6.54957">
        <ele>1747.828125</ele>
        <time>2021-08-23T16:34:17Z</time>
      </trkpt>
      <trkpt lat="46.1907" lon="6.54954">
        <ele>1748.68359375</ele>
        <time>2021-08-23T16:34:18Z</time>
      </trkpt>
      <trkpt lat="46.19075" lon="6.54943">
        <ele>1752.4609375</ele>
        <time>2021-08-23T16:34:26Z</time>
      </trkpt>
      <trkpt lat="46.19076" lon="6.5494">
        <ele>1753.23828125</ele>
        <time>2021-08-23T16:34:27Z</time>
      </trkpt>
      <trkpt lat="46.19076" lon="6.54938">
        <ele>1753.890625</ele>
        <time>2021-08-23T16:34:28Z</time>
      </trkpt>
      <trkpt lat="46.19078" lon="6.54934">
        <ele>1754.87109375</ele>
        <time>2021-08-23T16:34:29Z</time>
      </trkpt>
      <trkpt lat="46.19079" lon="6.5493">
        <ele>1754.24609375</ele>
        <time>2021-08-23T16:34:30Z</time>
      </trkpt>
      <trkpt lat="46.1908" lon="6.54926">
        <ele>1753.6015625</ele>
        <time>2021-08-23T16:34:31Z</time>
      </trkpt>
      <trkpt lat="46.19081" lon="6.54923">
        <ele>1753.07421875</ele>
        <time>2021-08-23T16:34:32Z</time>
      </trkpt>
      <trkpt lat="46.19082" lon="6.5492">
        <ele>1752.609375</ele>
        <time>2021-08-23T16:34:33Z</time>
      </trkpt>
      <trkpt lat="46.19083" lon="6.54916">
        <ele>1752.12890625</ele>
        <time>2021-08-23T16:34:34Z</time>
      </trkpt>
      <trkpt lat="46.19083" lon="6.54914">
        <ele>1751.7109375</ele>
        <time>2021-08-23T16:34:35Z</time>
      </trkpt>
      <trkpt lat="46.19083" lon="6.54911">
        <ele>1751.30078125</ele>
        <time>2021-08-23T16:34:36Z</time>
      </trkpt>
      <trkpt lat="46.19084" lon="6.54908">
        <ele>1750.828125</ele>
        <time>2021-08-23T16:34:37Z</time>
      </trkpt>
      <trkpt lat="46.19085" lon="6.54904">
        <ele>1750.23828125</ele>
        <time>2021-08-23T16:34:38Z</time>
      </trkpt>
      <trkpt lat="46.19086" lon="6.54897">
        <ele>1748.8828125</ele>
        <time>2021-08-23T16:34:40Z</time>
      </trkpt>
      <trkpt lat="46.19088" lon="6.54895">
        <ele>1748.4609375</ele>
        <time>2021-08-23T16:34:41Z</time>
      </trkpt>
      <trkpt lat="46.19089" lon="6.54893">
        <ele>1748.09765625</ele>
        <time>2021-08-23T16:34:42Z</time>
      </trkpt>
      <trkpt lat="46.19091" lon="6.54892">
        <ele>1747.84765625</ele>
        <time>2021-08-23T16:34:43Z</time>
      </trkpt>
      <trkpt lat="46.19093" lon="6.54891">
        <ele>1747.609375</ele>
        <time>2021-08-23T16:34:44Z</time>
      </trkpt>
      <trkpt lat="46.19094" lon="6.54889">
        <ele>1747.1953125</ele>
        <time>2021-08-23T16:34:45Z</time>
      </trkpt>
      <trkpt lat="46.19099" lon="6.54877">
        <ele>1744.703125</ele>
        <time>2021-08-23T16:34:49Z</time>
      </trkpt>
      <trkpt lat="46.19104" lon="6.54865">
        <ele>1741.3203125</ele>
        <time>2021-08-23T16:34:53Z</time>
      </trkpt>
      <trkpt lat="46.1911" lon="6.54856">
        <ele>1738.5703125</ele>
        <time>2021-08-23T16:34:56Z</time>
      </trkpt>
      <trkpt lat="46.19113" lon="6.54854">
        <ele>1737.9765625</ele>
        <time>2021-08-23T16:34:57Z</time>
      </trkpt>
      <trkpt lat="46.19118" lon="6.54846">
        <ele>1735.80078125</ele>
        <time>2021-08-23T16:35:00Z</time>
      </trkpt>
      <trkpt lat="46.19119" lon="6.54843">
        <ele>1734.8203125</ele>
        <time>2021-08-23T16:35:01Z</time>
      </trkpt>
      <trkpt lat="46.19119" lon="6.54841">
        <ele>1734.50390625</ele>
        <time>2021-08-23T16:35:02Z</time>
      </trkpt>
      <trkpt lat="46.19121" lon="6.54833">
        <ele>1732.52734375</ele>
        <time>2021-08-23T16:35:06Z</time>
      </trkpt>
      <trkpt lat="46.19121" lon="6.54829">
        <ele>1731.671875</ele>
        <time>2021-08-23T16:35:07Z</time>
      </trkpt>
      <trkpt lat="46.19126" lon="6.54808">
        <ele>1726.26953125</ele>
        <time>2021-08-23T16:35:20Z</time>
      </trkpt>
      <trkpt lat="46.19129" lon="6.54802">
        <ele>1724.765625</ele>
        <time>2021-08-23T16:35:24Z</time>
      </trkpt>
      <trkpt lat="46.19132" lon="6.54782">
        <ele>1718.953125</ele>
        <time>2021-08-23T16:35:29Z</time>
      </trkpt>
      <trkpt lat="46.19133" lon="6.54776">
        <ele>1716.953125</ele>
        <time>2021-08-23T16:35:31Z</time>
      </trkpt>
      <trkpt lat="46.19138" lon="6.54772">
        <ele>1715.2734375</ele>
        <time>2021-08-23T16:35:33Z</time>
      </trkpt>
      <trkpt lat="46.19148" lon="6.54759">
        <ele>1710.96484375</ele>
        <time>2021-08-23T16:35:42Z</time>
      </trkpt>
      <trkpt lat="46.19152" lon="6.54754">
        <ele>1709.5859375</ele>
        <time>2021-08-23T16:35:44Z</time>
      </trkpt>
      <trkpt lat="46.19155" lon="6.54741">
        <ele>1706.375</ele>
        <time>2021-08-23T16:35:48Z</time>
      </trkpt>
      <trkpt lat="46.19157" lon="6.54738">
        <ele>1705.60546875</ele>
        <time>2021-08-23T16:35:49Z</time>
      </trkpt>
      <trkpt lat="46.19159" lon="6.5473">
        <ele>1703.375</ele>
        <time>2021-08-23T16:35:51Z</time>
      </trkpt>
      <trkpt lat="46.1916" lon="6.54717">
        <ele>1700.23828125</ele>
        <time>2021-08-23T16:35:54Z</time>
      </trkpt>
      <trkpt lat="46.19161" lon="6.54715">
        <ele>1699.5625</ele>
        <time>2021-08-23T16:35:55Z</time>
      </trkpt>
      <trkpt lat="46.19171" lon="6.54701">
        <ele>1695.9609375</ele>
        <time>2021-08-23T16:35:59Z</time>
      </trkpt>
      <trkpt lat="46.19177" lon="6.54695">
        <ele>1694.3359375</ele>
        <time>2021-08-23T16:36:07Z</time>
      </trkpt>
      <trkpt lat="46.19181" lon="6.5469">
        <ele>1693.29296875</ele>
        <time>2021-08-23T16:36:28Z</time>
      </trkpt>
      <trkpt lat="46.19182" lon="6.54691">
        <ele>1693.33984375</ele>
        <time>2021-08-23T16:36:32Z</time>
      </trkpt>
      <trkpt lat="46.19184" lon="6.5469">
        <ele>1693.3046875</ele>
        <time>2021-08-23T16:36:33Z</time>
      </trkpt>
      <trkpt lat="46.19187" lon="6.5469">
        <ele>1692.8828125</ele>
        <time>2021-08-23T16:36:34Z</time>
      </trkpt>
      <trkpt lat="46.1919" lon="6.54688">
        <ele>1691.78515625</ele>
        <time>2021-08-23T16:36:35Z</time>
      </trkpt>
      <trkpt lat="46.19194" lon="6.54685">
        <ele>1690.5390625</ele>
        <time>2021-08-23T16:36:36Z</time>
      </trkpt>
      <trkpt lat="46.19199" lon="6.54683">
        <ele>1689.32421875</ele>
        <time>2021-08-23T16:36:37Z</time>
      </trkpt>
      <trkpt lat="46.19203" lon="6.54682">
        <ele>1688.21875</ele>
        <time>2021-08-23T16:36:38Z</time>
      </trkpt>
      <trkpt lat="46.19208" lon="6.54681">
        <ele>1687.359375</ele>
        <time>2021-08-23T16:36:39Z</time>
      </trkpt>
      <trkpt lat="46.19212" lon="6.54681">
        <ele>1686.6875</ele>
        <time>2021-08-23T16:36:40Z</time>
      </trkpt>
      <trkpt lat="46.19215" lon="6.54681">
        <ele>1685.875</ele>
        <time>2021-08-23T16:36:41Z</time>
      </trkpt>
      <trkpt lat="46.19232" lon="6.54676">
        <ele>1680.984375</ele>
        <time>2021-08-23T16:36:46Z</time>
      </trkpt>
      <trkpt lat="46.19235" lon="6.54674">
        <ele>1679.9453125</ele>
        <time>2021-08-23T16:36:47Z</time>
      </trkpt>
      <trkpt lat="46.19239" lon="6.54672">
        <ele>1678.92578125</ele>
        <time>2021-08-23T16:36:48Z</time>
      </trkpt>
      <trkpt lat="46.19253" lon="6.54668">
        <ele>1673.51171875</ele>
        <time>2021-08-23T16:36:51Z</time>
      </trkpt>
      <trkpt lat="46.1928" lon="6.54652">
        <ele>1663.96484375</ele>
        <time>2021-08-23T16:36:56Z</time>
      </trkpt>
      <trkpt lat="46.19285" lon="6.54648">
        <ele>1662.62890625</ele>
        <time>2021-08-23T16:36:57Z</time>
      </trkpt>
      <trkpt lat="46.19288" lon="6.54644">
        <ele>1661.91015625</ele>
        <time>2021-08-23T16:36:58Z</time>
      </trkpt>
      <trkpt lat="46.193" lon="6.5463">
        <ele>1660.95703125</ele>
        <time>2021-08-23T16:37:02Z</time>
      </trkpt>
      <trkpt lat="46.19305" lon="6.54623">
        <ele>1660.4609375</ele>
        <time>2021-08-23T16:37:10Z</time>
      </trkpt>
      <trkpt lat="46.19301" lon="6.54621">
        <ele>1661.7109375</ele>
        <time>2021-08-23T16:37:25Z</time>
      </trkpt>
      <trkpt lat="46.193" lon="6.5462">
        <ele>1662.15234375</ele>
        <time>2021-08-23T16:37:26Z</time>
      </trkpt>
      <trkpt lat="46.19298" lon="6.54618">
        <ele>1662.796875</ele>
        <time>2021-08-23T16:37:27Z</time>
      </trkpt>
      <trkpt lat="46.19296" lon="6.54617">
        <ele>1663.34765625</ele>
        <time>2021-08-23T16:37:28Z</time>
      </trkpt>
      <trkpt lat="46.19294" lon="6.54618">
        <ele>1663.68359375</ele>
        <time>2021-08-23T16:37:29Z</time>
      </trkpt>
      <trkpt lat="46.1927" lon="6.54615">
        <ele>1667.3515625</ele>
        <time>2021-08-23T16:37:35Z</time>
      </trkpt>
      <trkpt lat="46.19261" lon="6.54612">
        <ele>1668.2421875</ele>
        <time>2021-08-23T16:37:37Z</time>
      </trkpt>
      <trkpt lat="46.19229" lon="6.54604">
        <ele>1669.57421875</ele>
        <time>2021-08-23T16:37:45Z</time>
      </trkpt>
      <trkpt lat="46.19219" lon="6.54598">
        <ele>1668.7578125</ele>
        <time>2021-08-23T16:37:49Z</time>
      </trkpt>
      <trkpt lat="46.19205" lon="6.54594">
        <ele>1668.64453125</ele>
        <time>2021-08-23T16:37:53Z</time>
      </trkpt>
      <trkpt lat="46.19197" lon="6.54589">
        <ele>1667.75390625</ele>
        <time>2021-08-23T16:37:55Z</time>
      </trkpt>
      <trkpt lat="46.19175" lon="6.54564">
        <ele>1662.671875</ele>
        <time>2021-08-23T16:38:04Z</time>
      </trkpt>
      <trkpt lat="46.19162" lon="6.54559">
        <ele>1661.7578125</ele>
        <time>2021-08-23T16:38:09Z</time>
      </trkpt>
      <trkpt lat="46.19146" lon="6.54551">
        <ele>1659.7109375</ele>
        <time>2021-08-23T16:38:15Z</time>
      </trkpt>
      <trkpt lat="46.19145" lon="6.5455">
        <ele>1659.48828125</ele>
        <time>2021-08-23T16:38:16Z</time>
      </trkpt>
      <trkpt lat="46.19127" lon="6.54528">
        <ele>1653.265625</ele>
        <time>2021-08-23T16:38:21Z</time>
      </trkpt>
      <trkpt lat="46.1911" lon="6.54521">
        <ele>1649.546875</ele>
        <time>2021-08-23T16:38:29Z</time>
      </trkpt>
      <trkpt lat="46.19106" lon="6.54511">
        <ele>1646.88671875</ele>
        <time>2021-08-23T16:38:33Z</time>
      </trkpt>
      <trkpt lat="46.19104" lon="6.545">
        <ele>1644.1640625</ele>
        <time>2021-08-23T16:38:38Z</time>
      </trkpt>
      <trkpt lat="46.19102" lon="6.54492">
        <ele>1642.3828125</ele>
        <time>2021-08-23T16:38:51Z</time>
      </trkpt>
      <trkpt lat="46.19101" lon="6.54488">
        <ele>1641.390625</ele>
        <time>2021-08-23T16:38:54Z</time>
      </trkpt>
      <trkpt lat="46.191" lon="6.54483">
        <ele>1639.953125</ele>
        <time>2021-08-23T16:38:57Z</time>
      </trkpt>
      <trkpt lat="46.191" lon="6.5448">
        <ele>1639.12890625</ele>
        <time>2021-08-23T16:38:58Z</time>
      </trkpt>
      <trkpt lat="46.191" lon="6.54473">
        <ele>1637.40625</ele>
        <time>2021-08-23T16:39:00Z</time>
      </trkpt>
      <trkpt lat="46.19099" lon="6.5447">
        <ele>1636.546875</ele>
        <time>2021-08-23T16:39:01Z</time>
      </trkpt>
      <trkpt lat="46.19098" lon="6.54468">
        <ele>1635.828125</ele>
        <time>2021-08-23T16:39:02Z</time>
      </trkpt>
      <trkpt lat="46.19097" lon="6.54466">
        <ele>1635.1015625</ele>
        <time>2021-08-23T16:39:03Z</time>
      </trkpt>
      <trkpt lat="46.19096" lon="6.54463">
        <ele>1634.23828125</ele>
        <time>2021-08-23T16:39:04Z</time>
      </trkpt>
      <trkpt lat="46.19094" lon="6.54461">
        <ele>1633.5</ele>
        <time>2021-08-23T16:39:05Z</time>
      </trkpt>
      <trkpt lat="46.19093" lon="6.5445">
        <ele>1630.53515625</ele>
        <time>2021-08-23T16:39:16Z</time>
      </trkpt>
      <trkpt lat="46.1909" lon="6.54436">
        <ele>1627.03515625</ele>
        <time>2021-08-23T16:39:26Z</time>
      </trkpt>
      <trkpt lat="46.19085" lon="6.54428">
        <ele>1624.57421875</ele>
        <time>2021-08-23T16:39:30Z</time>
      </trkpt>
      <trkpt lat="46.19078" lon="6.54415">
        <ele>1620.33984375</ele>
        <time>2021-08-23T16:39:35Z</time>
      </trkpt>
      <trkpt lat="46.19077" lon="6.54413">
        <ele>1619.80078125</ele>
        <time>2021-08-23T16:39:36Z</time>
      </trkpt>
      <trkpt lat="46.19075" lon="6.54408">
        <ele>1618.23828125</ele>
        <time>2021-08-23T16:39:39Z</time>
      </trkpt>
      <trkpt lat="46.19065" lon="6.54389">
        <ele>1613.1484375</ele>
        <time>2021-08-23T16:39:44Z</time>
      </trkpt>
      <trkpt lat="46.19061" lon="6.54384">
        <ele>1611.6484375</ele>
        <time>2021-08-23T16:39:45Z</time>
      </trkpt>
      <trkpt lat="46.19058" lon="6.54378">
        <ele>1610.0234375</ele>
        <time>2021-08-23T16:39:46Z</time>
      </trkpt>
      <trkpt lat="46.19056" lon="6.54372">
        <ele>1608.375</ele>
        <time>2021-08-23T16:39:47Z</time>
      </trkpt>
      <trkpt lat="46.19051" lon="6.54361">
        <ele>1605.45703125</ele>
        <time>2021-08-23T16:39:49Z</time>
      </trkpt>
      <trkpt lat="46.19049" lon="6.54357">
        <ele>1604.33203125</ele>
        <time>2021-08-23T16:39:50Z</time>
      </trkpt>
      <trkpt lat="46.19036" lon="6.54351">
        <ele>1601.015625</ele>
        <time>2021-08-23T16:39:54Z</time>
      </trkpt>
      <trkpt lat="46.19026" lon="6.54347">
        <ele>1598.296875</ele>
        <time>2021-08-23T16:39:57Z</time>
      </trkpt>
      <trkpt lat="46.19015" lon="6.54349">
        <ele>1596.91015625</ele>
        <time>2021-08-23T16:40:04Z</time>
      </trkpt>
      <trkpt lat="46.19014" lon="6.5435">
        <ele>1596.83984375</ele>
        <time>2021-08-23T16:40:05Z</time>
      </trkpt>
      <trkpt lat="46.19009" lon="6.54354">
        <ele>1596.765625</ele>
        <time>2021-08-23T16:40:08Z</time>
      </trkpt>
      <trkpt lat="46.19005" lon="6.54357">
        <ele>1596.72265625</ele>
        <time>2021-08-23T16:40:10Z</time>
      </trkpt>
      <trkpt lat="46.18991" lon="6.54361">
        <ele>1595.390625</ele>
        <time>2021-08-23T16:40:13Z</time>
      </trkpt>
      <trkpt lat="46.18987" lon="6.54363">
        <ele>1595.734375</ele>
        <time>2021-08-23T16:40:14Z</time>
      </trkpt>
      <trkpt lat="46.18972" lon="6.54368">
        <ele>1596.1171875</ele>
        <time>2021-08-23T16:40:18Z</time>
      </trkpt>
      <trkpt lat="46.18968" lon="6.54366">
        <ele>1595.40234375</ele>
        <time>2021-08-23T16:40:19Z</time>
      </trkpt>
      <trkpt lat="46.18963" lon="6.54362">
        <ele>1594.19140625</ele>
        <time>2021-08-23T16:40:20Z</time>
      </trkpt>
      <trkpt lat="46.18954" lon="6.54354">
        <ele>1591.4375</ele>
        <time>2021-08-23T16:40:22Z</time>
      </trkpt>
      <trkpt lat="46.18951" lon="6.54348">
        <ele>1589.61328125</ele>
        <time>2021-08-23T16:40:23Z</time>
      </trkpt>
      <trkpt lat="46.18936" lon="6.54324">
        <ele>1581.26953125</ele>
        <time>2021-08-23T16:40:27Z</time>
      </trkpt>
      <trkpt lat="46.18926" lon="6.54308">
        <ele>1576.33203125</ele>
        <time>2021-08-23T16:40:30Z</time>
      </trkpt>
      <trkpt lat="46.18918" lon="6.54299">
        <ele>1573.30078125</ele>
        <time>2021-08-23T16:40:32Z</time>
      </trkpt>
      <trkpt lat="46.18914" lon="6.54296">
        <ele>1572.15234375</ele>
        <time>2021-08-23T16:40:33Z</time>
      </trkpt>
      <trkpt lat="46.189" lon="6.54288">
        <ele>1568.12890625</ele>
        <time>2021-08-23T16:40:36Z</time>
      </trkpt>
      <trkpt lat="46.18887" lon="6.54281">
        <ele>1564.3046875</ele>
        <time>2021-08-23T16:40:39Z</time>
      </trkpt>
      <trkpt lat="46.18884" lon="6.54279">
        <ele>1563.046875</ele>
        <time>2021-08-23T16:40:40Z</time>
      </trkpt>
      <trkpt lat="46.18879" lon="6.54277">
        <ele>1561.6953125</ele>
        <time>2021-08-23T16:40:41Z</time>
      </trkpt>
      <trkpt lat="46.18859" lon="6.5427">
        <ele>1555.90625</ele>
        <time>2021-08-23T16:40:45Z</time>
      </trkpt>
      <trkpt lat="46.18846" lon="6.54266">
        <ele>1551.3828125</ele>
        <time>2021-08-23T16:40:48Z</time>
      </trkpt>
      <trkpt lat="46.18839" lon="6.54265">
        <ele>1549.14453125</ele>
        <time>2021-08-23T16:40:51Z</time>
      </trkpt>
      <trkpt lat="46.18835" lon="6.54266">
        <ele>1548.3125</ele>
        <time>2021-08-23T16:40:52Z</time>
      </trkpt>
      <trkpt lat="46.18832" lon="6.54266">
        <ele>1547.59765625</ele>
        <time>2021-08-23T16:40:53Z</time>
      </trkpt>
      <trkpt lat="46.18829" lon="6.54267">
        <ele>1546.89453125</ele>
        <time>2021-08-23T16:40:54Z</time>
      </trkpt>
      <trkpt lat="46.1882" lon="6.54268">
        <ele>1544.56640625</ele>
        <time>2021-08-23T16:40:58Z</time>
      </trkpt>
      <trkpt lat="46.18814" lon="6.54267">
        <ele>1542.5703125</ele>
        <time>2021-08-23T16:41:00Z</time>
      </trkpt>
      <trkpt lat="46.1881" lon="6.54267">
        <ele>1541.2734375</ele>
        <time>2021-08-23T16:41:01Z</time>
      </trkpt>
      <trkpt lat="46.18806" lon="6.54267">
        <ele>1540.3125</ele>
        <time>2021-08-23T16:41:02Z</time>
      </trkpt>
      <trkpt lat="46.18794" lon="6.54274">
        <ele>1538.61328125</ele>
        <time>2021-08-23T16:41:08Z</time>
      </trkpt>
      <trkpt lat="46.1879" lon="6.54274">
        <ele>1537.5703125</ele>
        <time>2021-08-23T16:41:10Z</time>
      </trkpt>
      <trkpt lat="46.18787" lon="6.54274">
        <ele>1536.7265625</ele>
        <time>2021-08-23T16:41:11Z</time>
      </trkpt>
      <trkpt lat="46.18779" lon="6.54271">
        <ele>1533.9296875</ele>
        <time>2021-08-23T16:41:13Z</time>
      </trkpt>
      <trkpt lat="46.18769" lon="6.54267">
        <ele>1530.65625</ele>
        <time>2021-08-23T16:41:15Z</time>
      </trkpt>
      <trkpt lat="46.18761" lon="6.54265">
        <ele>1528.609375</ele>
        <time>2021-08-23T16:41:16Z</time>
      </trkpt>
      <trkpt lat="46.18753" lon="6.54261">
        <ele>1525.80078125</ele>
        <time>2021-08-23T16:41:18Z</time>
      </trkpt>
      <trkpt lat="46.18749" lon="6.5426">
        <ele>1524.7890625</ele>
        <time>2021-08-23T16:41:19Z</time>
      </trkpt>
      <trkpt lat="46.18744" lon="6.54258">
        <ele>1523.0703125</ele>
        <time>2021-08-23T16:41:20Z</time>
      </trkpt>
      <trkpt lat="46.1874" lon="6.54257">
        <ele>1521.8125</ele>
        <time>2021-08-23T16:41:21Z</time>
      </trkpt>
      <trkpt lat="46.18734" lon="6.54255">
        <ele>1520.3984375</ele>
        <time>2021-08-23T16:41:22Z</time>
      </trkpt>
      <trkpt lat="46.18725" lon="6.54256">
        <ele>1518.6796875</ele>
        <time>2021-08-23T16:41:24Z</time>
      </trkpt>
      <trkpt lat="46.18721" lon="6.54257">
        <ele>1518.3515625</ele>
        <time>2021-08-23T16:41:25Z</time>
      </trkpt>
      <trkpt lat="46.18713" lon="6.54257">
        <ele>1516.69140625</ele>
        <time>2021-08-23T16:41:27Z</time>
      </trkpt>
      <trkpt lat="46.18708" lon="6.54257">
        <ele>1516.046875</ele>
        <time>2021-08-23T16:41:28Z</time>
      </trkpt>
      <trkpt lat="46.18699" lon="6.54257">
        <ele>1514.6015625</ele>
        <time>2021-08-23T16:41:30Z</time>
      </trkpt>
      <trkpt lat="46.18694" lon="6.54256">
        <ele>1513.859375</ele>
        <time>2021-08-23T16:41:31Z</time>
      </trkpt>
      <trkpt lat="46.18681" lon="6.54256">
        <ele>1511.73828125</ele>
        <time>2021-08-23T16:41:34Z</time>
      </trkpt>
      <trkpt lat="46.18674" lon="6.54256">
        <ele>1510.85546875</ele>
        <time>2021-08-23T16:41:35Z</time>
      </trkpt>
      <trkpt lat="46.18669" lon="6.54256">
        <ele>1510.23828125</ele>
        <time>2021-08-23T16:41:36Z</time>
      </trkpt>
      <trkpt lat="46.18653" lon="6.54253">
        <ele>1506.80859375</ele>
        <time>2021-08-23T16:41:40Z</time>
      </trkpt>
      <trkpt lat="46.18643" lon="6.54245">
        <ele>1502.81640625</ele>
        <time>2021-08-23T16:41:44Z</time>
      </trkpt>
      <trkpt lat="46.18635" lon="6.54239">
        <ele>1499.578125</ele>
        <time>2021-08-23T16:41:47Z</time>
      </trkpt>
      <trkpt lat="46.1863" lon="6.54232">
        <ele>1496.23046875</ele>
        <time>2021-08-23T16:41:49Z</time>
      </trkpt>
      <trkpt lat="46.18627" lon="6.54217">
        <ele>1490.9140625</ele>
        <time>2021-08-23T16:41:53Z</time>
      </trkpt>
      <trkpt lat="46.18628" lon="6.54213">
        <ele>1489.6484375</ele>
        <time>2021-08-23T16:41:54Z</time>
      </trkpt>
      <trkpt lat="46.18628" lon="6.54197">
        <ele>1485.62109375</ele>
        <time>2021-08-23T16:41:59Z</time>
      </trkpt>
      <trkpt lat="46.18628" lon="6.54179">
        <ele>1480.75390625</ele>
        <time>2021-08-23T16:42:03Z</time>
      </trkpt>
      <trkpt lat="46.18624" lon="6.54171">
        <ele>1477.18359375</ele>
        <time>2021-08-23T16:42:05Z</time>
      </trkpt>
      <trkpt lat="46.18612" lon="6.54163">
        <ele>1472.4140625</ele>
        <time>2021-08-23T16:42:09Z</time>
      </trkpt>
      <trkpt lat="46.18604" lon="6.5416">
        <ele>1470.12890625</ele>
        <time>2021-08-23T16:42:12Z</time>
      </trkpt>
      <trkpt lat="46.18594" lon="6.54162">
        <ele>1468.81640625</ele>
        <time>2021-08-23T16:42:15Z</time>
      </trkpt>
      <trkpt lat="46.18581" lon="6.54164">
        <ele>1467.05859375</ele>
        <time>2021-08-23T16:42:19Z</time>
      </trkpt>
      <trkpt lat="46.18574" lon="6.54195">
        <ele>1474.4765625</ele>
        <time>2021-08-23T16:42:23Z</time>
      </trkpt>
      <trkpt lat="46.18568" lon="6.54187">
        <ele>1471.03125</ele>
        <time>2021-08-23T16:42:27Z</time>
      </trkpt>
      <trkpt lat="46.18563" lon="6.54172">
        <ele>1466.671875</ele>
        <time>2021-08-23T16:42:30Z</time>
      </trkpt>
      <trkpt lat="46.18562" lon="6.54162">
        <ele>1464.03125</ele>
        <time>2021-08-23T16:42:33Z</time>
      </trkpt>
      <trkpt lat="46.18563" lon="6.5416">
        <ele>1463.40234375</ele>
        <time>2021-08-23T16:42:34Z</time>
      </trkpt>
      <trkpt lat="46.18558" lon="6.54135">
        <ele>1457.34765625</ele>
        <time>2021-08-23T16:42:40Z</time>
      </trkpt>
      <trkpt lat="46.18555" lon="6.54133">
        <ele>1456.5625</ele>
        <time>2021-08-23T16:42:41Z</time>
      </trkpt>
      <trkpt lat="46.1855" lon="6.54131">
        <ele>1455.84375</ele>
        <time>2021-08-23T16:42:42Z</time>
      </trkpt>
      <trkpt lat="46.18547" lon="6.54133">
        <ele>1455.7109375</ele>
        <time>2021-08-23T16:42:43Z</time>
      </trkpt>
      <trkpt lat="46.18532" lon="6.54135">
        <ele>1455.25390625</ele>
        <time>2021-08-23T16:42:48Z</time>
      </trkpt>
      <trkpt lat="46.18516" lon="6.54122">
        <ele>1451.5546875</ele>
        <time>2021-08-23T16:42:53Z</time>
      </trkpt>
      <trkpt lat="46.18495" lon="6.54104">
        <ele>1446.8203125</ele>
        <time>2021-08-23T16:42:57Z</time>
      </trkpt>
      <trkpt lat="46.18474" lon="6.5409">
        <ele>1442.5546875</ele>
        <time>2021-08-23T16:43:01Z</time>
      </trkpt>
      <trkpt lat="46.18465" lon="6.54083">
        <ele>1440.4921875</ele>
        <time>2021-08-23T16:43:04Z</time>
      </trkpt>
      <trkpt lat="46.18455" lon="6.54078">
        <ele>1438.64453125</ele>
        <time>2021-08-23T16:43:09Z</time>
      </trkpt>
      <trkpt lat="46.18448" lon="6.54073">
        <ele>1436.67578125</ele>
        <time>2021-08-23T16:43:12Z</time>
      </trkpt>
      <trkpt lat="46.18446" lon="6.54071">
        <ele>1436.13671875</ele>
        <time>2021-08-23T16:43:13Z</time>
      </trkpt>
      <trkpt lat="46.18432" lon="6.54065">
        <ele>1433.66796875</ele>
        <time>2021-08-23T16:43:19Z</time>
      </trkpt>
      <trkpt lat="46.18428" lon="6.54064">
        <ele>1433.2734375</ele>
        <time>2021-08-23T16:43:20Z</time>
      </trkpt>
      <trkpt lat="46.18423" lon="6.54062">
        <ele>1433.05078125</ele>
        <time>2021-08-23T16:43:21Z</time>
      </trkpt>
      <trkpt lat="46.18417" lon="6.54062">
        <ele>1432.890625</ele>
        <time>2021-08-23T16:43:22Z</time>
      </trkpt>
      <trkpt lat="46.1839" lon="6.54056">
        <ele>1431.4453125</ele>
        <time>2021-08-23T16:43:26Z</time>
      </trkpt>
      <trkpt lat="46.18351" lon="6.54045">
        <ele>1427.5</ele>
        <time>2021-08-23T16:43:32Z</time>
      </trkpt>
      <trkpt lat="46.1834" lon="6.54042">
        <ele>1426.49609375</ele>
        <time>2021-08-23T16:43:34Z</time>
      </trkpt>
      <trkpt lat="46.18336" lon="6.5404">
        <ele>1425.9765625</ele>
        <time>2021-08-23T16:43:35Z</time>
      </trkpt>
      <trkpt lat="46.18333" lon="6.5404">
        <ele>1425.71875</ele>
        <time>2021-08-23T16:43:36Z</time>
      </trkpt>
      <trkpt lat="46.18334" lon="6.54043">
        <ele>1426.94921875</ele>
        <time>2021-08-23T16:43:46Z</time>
      </trkpt>
      <trkpt lat="46.18338" lon="6.54042">
        <ele>1426.5703125</ele>
        <time>2021-08-23T16:44:12Z</time>
      </trkpt>
      <trkpt lat="46.18335" lon="6.54046">
        <ele>1427.94140625</ele>
        <time>2021-08-23T16:44:48Z</time>
      </trkpt>
      <trkpt lat="46.18339" lon="6.54042">
        <ele>1426.7578125</ele>
        <time>2021-08-23T16:45:33Z</time>
      </trkpt>
      <trkpt lat="46.18322" lon="6.54035">
        <ele>1424.0234375</ele>
        <time>2021-08-23T16:45:55Z</time>
      </trkpt>
      <trkpt lat="46.18319" lon="6.54034">
        <ele>1423.39453125</ele>
        <time>2021-08-23T16:45:56Z</time>
      </trkpt>
      <trkpt lat="46.18315" lon="6.54032">
        <ele>1422.5390625</ele>
        <time>2021-08-23T16:45:57Z</time>
      </trkpt>
      <trkpt lat="46.1831" lon="6.54028">
        <ele>1421.06640625</ele>
        <time>2021-08-23T16:45:58Z</time>
      </trkpt>
      <trkpt lat="46.183" lon="6.5402">
        <ele>1417.6484375</ele>
        <time>2021-08-23T16:46:00Z</time>
      </trkpt>
      <trkpt lat="46.18294" lon="6.54017">
        <ele>1416.41796875</ele>
        <time>2021-08-23T16:46:01Z</time>
      </trkpt>
      <trkpt lat="46.18288" lon="6.54016">
        <ele>1415.71875</ele>
        <time>2021-08-23T16:46:02Z</time>
      </trkpt>
      <trkpt lat="46.18281" lon="6.54016">
        <ele>1415.14453125</ele>
        <time>2021-08-23T16:46:03Z</time>
      </trkpt>
      <trkpt lat="46.18263" lon="6.54017">
        <ele>1413.85546875</ele>
        <time>2021-08-23T16:46:06Z</time>
      </trkpt>
      <trkpt lat="46.18258" lon="6.54019">
        <ele>1413.85546875</ele>
        <time>2021-08-23T16:46:07Z</time>
      </trkpt>
      <trkpt lat="46.18253" lon="6.5402">
        <ele>1413.88671875</ele>
        <time>2021-08-23T16:46:08Z</time>
      </trkpt>
      <trkpt lat="46.18248" lon="6.5402">
        <ele>1413.37109375</ele>
        <time>2021-08-23T16:46:10Z</time>
      </trkpt>
      <trkpt lat="46.18247" lon="6.54019">
        <ele>1412.76171875</ele>
        <time>2021-08-23T16:46:11Z</time>
      </trkpt>
      <trkpt lat="46.18245" lon="6.54017">
        <ele>1412.0859375</ele>
        <time>2021-08-23T16:46:12Z</time>
      </trkpt>
      <trkpt lat="46.18244" lon="6.54015">
        <ele>1411.3046875</ele>
        <time>2021-08-23T16:46:13Z</time>
      </trkpt>
      <trkpt lat="46.18242" lon="6.54013">
        <ele>1410.65234375</ele>
        <time>2021-08-23T16:46:14Z</time>
      </trkpt>
      <trkpt lat="46.18239" lon="6.54012">
        <ele>1409.98046875</ele>
        <time>2021-08-23T16:46:17Z</time>
      </trkpt>
      <trkpt lat="46.18239" lon="6.5401">
        <ele>1409.3359375</ele>
        <time>2021-08-23T16:46:18Z</time>
      </trkpt>
      <trkpt lat="46.18238" lon="6.54007">
        <ele>1408.46875</ele>
        <time>2021-08-23T16:46:19Z</time>
      </trkpt>
      <trkpt lat="46.18236" lon="6.54004">
        <ele>1407.515625</ele>
        <time>2021-08-23T16:46:20Z</time>
      </trkpt>
      <trkpt lat="46.18235" lon="6.54001">
        <ele>1406.44140625</ele>
        <time>2021-08-23T16:46:21Z</time>
      </trkpt>
      <trkpt lat="46.18234" lon="6.53996">
        <ele>1405.00390625</ele>
        <time>2021-08-23T16:46:22Z</time>
      </trkpt>
      <trkpt lat="46.18234" lon="6.5399">
        <ele>1403.390625</ele>
        <time>2021-08-23T16:46:23Z</time>
      </trkpt>
      <trkpt lat="46.18234" lon="6.53985">
        <ele>1401.98046875</ele>
        <time>2021-08-23T16:46:24Z</time>
      </trkpt>
      <trkpt lat="46.18234" lon="6.53981">
        <ele>1400.87109375</ele>
        <time>2021-08-23T16:46:25Z</time>
      </trkpt>
      <trkpt lat="46.18235" lon="6.53977">
        <ele>1400.05078125</ele>
        <time>2021-08-23T16:46:26Z</time>
      </trkpt>
      <trkpt lat="46.18236" lon="6.53974">
        <ele>1399.34765625</ele>
        <time>2021-08-23T16:46:27Z</time>
      </trkpt>
      <trkpt lat="46.18237" lon="6.53969">
        <ele>1398.2890625</ele>
        <time>2021-08-23T16:46:28Z</time>
      </trkpt>
      <trkpt lat="46.18239" lon="6.53965">
        <ele>1397.22265625</ele>
        <time>2021-08-23T16:46:29Z</time>
      </trkpt>
      <trkpt lat="46.18242" lon="6.5396">
        <ele>1396.42578125</ele>
        <time>2021-08-23T16:46:30Z</time>
      </trkpt>
      <trkpt lat="46.18244" lon="6.53957">
        <ele>1395.62109375</ele>
        <time>2021-08-23T16:46:31Z</time>
      </trkpt>
      <trkpt lat="46.18247" lon="6.53953">
        <ele>1394.7734375</ele>
        <time>2021-08-23T16:46:32Z</time>
      </trkpt>
      <trkpt lat="46.18248" lon="6.53949">
        <ele>1393.89453125</ele>
        <time>2021-08-23T16:46:33Z</time>
      </trkpt>
      <trkpt lat="46.18251" lon="6.53944">
        <ele>1392.73046875</ele>
        <time>2021-08-23T16:46:35Z</time>
      </trkpt>
      <trkpt lat="46.18253" lon="6.53942">
        <ele>1392.35546875</ele>
        <time>2021-08-23T16:46:36Z</time>
      </trkpt>
      <trkpt lat="46.1826" lon="6.53936">
        <ele>1390.9140625</ele>
        <time>2021-08-23T16:46:40Z</time>
      </trkpt>
      <trkpt lat="46.18264" lon="6.53933">
        <ele>1390.17578125</ele>
        <time>2021-08-23T16:46:42Z</time>
      </trkpt>
      <trkpt lat="46.18272" lon="6.53921">
        <ele>1387.23046875</ele>
        <time>2021-08-23T16:46:45Z</time>
      </trkpt>
      <trkpt lat="46.18279" lon="6.53909">
        <ele>1383.73828125</ele>
        <time>2021-08-23T16:46:48Z</time>
      </trkpt>
      <trkpt lat="46.18287" lon="6.53896">
        <ele>1380.015625</ele>
        <time>2021-08-23T16:46:51Z</time>
      </trkpt>
      <trkpt lat="46.18288" lon="6.53889">
        <ele>1378.33203125</ele>
        <time>2021-08-23T16:46:52Z</time>
      </trkpt>
      <trkpt lat="46.18288" lon="6.53885">
        <ele>1377.04296875</ele>
        <time>2021-08-23T16:46:53Z</time>
      </trkpt>
      <trkpt lat="46.18288" lon="6.53881">
        <ele>1376.109375</ele>
        <time>2021-08-23T16:46:54Z</time>
      </trkpt>
      <trkpt lat="46.18286" lon="6.53878">
        <ele>1375.22265625</ele>
        <time>2021-08-23T16:46:55Z</time>
      </trkpt>
      <trkpt lat="46.18284" lon="6.53876">
        <ele>1374.69921875</ele>
        <time>2021-08-23T16:46:56Z</time>
      </trkpt>
      <trkpt lat="46.18282" lon="6.53876">
        <ele>1374.5234375</ele>
        <time>2021-08-23T16:46:57Z</time>
      </trkpt>
      <trkpt lat="46.18279" lon="6.53876">
        <ele>1374.47265625</ele>
        <time>2021-08-23T16:46:58Z</time>
      </trkpt>
      <trkpt lat="46.1826" lon="6.53867">
        <ele>1370.7578125</ele>
        <time>2021-08-23T16:47:04Z</time>
      </trkpt>
      <trkpt lat="46.18255" lon="6.53866">
        <ele>1370.01171875</ele>
        <time>2021-08-23T16:47:05Z</time>
      </trkpt>
      <trkpt lat="46.18242" lon="6.53865">
        <ele>1368.546875</ele>
        <time>2021-08-23T16:47:07Z</time>
      </trkpt>
      <trkpt lat="46.18218" lon="6.53869">
        <ele>1368.28515625</ele>
        <time>2021-08-23T16:47:10Z</time>
      </trkpt>
      <trkpt lat="46.18193" lon="6.53872">
        <ele>1369.7734375</ele>
        <time>2021-08-23T16:47:13Z</time>
      </trkpt>
      <trkpt lat="46.18187" lon="6.53871">
        <ele>1369.93359375</ele>
        <time>2021-08-23T16:47:14Z</time>
      </trkpt>
      <trkpt lat="46.18182" lon="6.53869">
        <ele>1369.98828125</ele>
        <time>2021-08-23T16:47:15Z</time>
      </trkpt>
      <trkpt lat="46.18178" lon="6.53863">
        <ele>1369.390625</ele>
        <time>2021-08-23T16:47:16Z</time>
      </trkpt>
      <trkpt lat="46.18177" lon="6.53856">
        <ele>1368.09765625</ele>
        <time>2021-08-23T16:47:17Z</time>
      </trkpt>
      <trkpt lat="46.18176" lon="6.53849">
        <ele>1366.5234375</ele>
        <time>2021-08-23T16:47:18Z</time>
      </trkpt>
      <trkpt lat="46.18177" lon="6.53841">
        <ele>1364.83203125</ele>
        <time>2021-08-23T16:47:19Z</time>
      </trkpt>
      <trkpt lat="46.18178" lon="6.53834">
        <ele>1362.94921875</ele>
        <time>2021-08-23T16:47:20Z</time>
      </trkpt>
      <trkpt lat="46.1818" lon="6.53827">
        <ele>1361.01953125</ele>
        <time>2021-08-23T16:47:21Z</time>
      </trkpt>
      <trkpt lat="46.18182" lon="6.53811">
        <ele>1357.2265625</ele>
        <time>2021-08-23T16:47:25Z</time>
      </trkpt>
      <trkpt lat="46.18182" lon="6.53816">
        <ele>1358.328125</ele>
        <time>2021-08-23T16:47:31Z</time>
      </trkpt>
      <trkpt lat="46.1818" lon="6.53851">
        <ele>1366.10546875</ele>
        <time>2021-08-23T16:47:43Z</time>
      </trkpt>
      <trkpt lat="46.18189" lon="6.53868">
        <ele>1368.91015625</ele>
        <time>2021-08-23T16:47:47Z</time>
      </trkpt>
      <trkpt lat="46.18192" lon="6.53868">
        <ele>1368.88671875</ele>
        <time>2021-08-23T16:47:48Z</time>
      </trkpt>
      <trkpt lat="46.18195" lon="6.53868">
        <ele>1368.70703125</ele>
        <time>2021-08-23T16:47:49Z</time>
      </trkpt>
      <trkpt lat="46.18214" lon="6.53867">
        <ele>1367.421875</ele>
        <time>2021-08-23T16:47:56Z</time>
      </trkpt>
      <trkpt lat="46.18237" lon="6.53865">
        <ele>1368.2109375</ele>
        <time>2021-08-23T16:48:07Z</time>
      </trkpt>
      <trkpt lat="46.18256" lon="6.53866">
        <ele>1369.87109375</ele>
        <time>2021-08-23T16:48:16Z</time>
      </trkpt>
      <trkpt lat="46.18273" lon="6.53874">
        <ele>1373.67578125</ele>
        <time>2021-08-23T16:48:27Z</time>
      </trkpt>
      <trkpt lat="46.18271" lon="6.53873">
        <ele>1373.16796875</ele>
        <time>2021-08-23T16:48:28Z</time>
      </trkpt>
      <trkpt lat="46.18267" lon="6.53873">
        <ele>1373.01171875</ele>
        <time>2021-08-23T16:48:40Z</time>
      </trkpt>
      <trkpt lat="46.18266" lon="6.53858">
        <ele>1368.4609375</ele>
        <time>2021-08-23T16:49:16Z</time>
      </trkpt>
      <trkpt lat="46.18268" lon="6.53863">
        <ele>1370.28515625</ele>
        <time>2021-08-23T16:49:21Z</time>
      </trkpt>
      <trkpt lat="46.18277" lon="6.53876">
        <ele>1374.37109375</ele>
        <time>2021-08-23T16:49:30Z</time>
      </trkpt>
      <trkpt lat="46.18283" lon="6.53878">
        <ele>1375.16015625</ele>
        <time>2021-08-23T16:49:39Z</time>
      </trkpt>
      <trkpt lat="46.18284" lon="6.53878">
        <ele>1375.1484375</ele>
        <time>2021-08-23T16:49:40Z</time>
      </trkpt>
      <trkpt lat="46.18291" lon="6.53874">
        <ele>1374.5078125</ele>
        <time>2021-08-23T16:49:43Z</time>
      </trkpt>
      <trkpt lat="46.18291" lon="6.53869">
        <ele>1373.0546875</ele>
        <time>2021-08-23T16:49:50Z</time>
      </trkpt>
      <trkpt lat="46.18296" lon="6.53875">
        <ele>1374.78515625</ele>
        <time>2021-08-23T16:49:54Z</time>
      </trkpt>
      <trkpt lat="46.18298" lon="6.53873">
        <ele>1374.359375</ele>
        <time>2021-08-23T16:49:55Z</time>
      </trkpt>
      <trkpt lat="46.18299" lon="6.5387">
        <ele>1373.7578125</ele>
        <time>2021-08-23T16:49:56Z</time>
      </trkpt>
      <trkpt lat="46.183" lon="6.53867">
        <ele>1373.05859375</ele>
        <time>2021-08-23T16:49:57Z</time>
      </trkpt>
      <trkpt lat="46.18302" lon="6.53865">
        <ele>1372.46875</ele>
        <time>2021-08-23T16:49:58Z</time>
      </trkpt>
      <trkpt lat="46.18315" lon="6.53852">
        <ele>1370.45703125</ele>
        <time>2021-08-23T16:50:04Z</time>
      </trkpt>
      <trkpt lat="46.18318" lon="6.5385">
        <ele>1370.16015625</ele>
        <time>2021-08-23T16:50:05Z</time>
      </trkpt>
      <trkpt lat="46.18328" lon="6.53843">
        <ele>1369.26171875</ele>
        <time>2021-08-23T16:50:09Z</time>
      </trkpt>
      <trkpt lat="46.18333" lon="6.53839">
        <ele>1368.73046875</ele>
        <time>2021-08-23T16:50:13Z</time>
      </trkpt>
      <trkpt lat="46.18338" lon="6.53834">
        <ele>1368.0078125</ele>
        <time>2021-08-23T16:50:15Z</time>
      </trkpt>
      <trkpt lat="46.18343" lon="6.5383">
        <ele>1367.48046875</ele>
        <time>2021-08-23T16:50:18Z</time>
      </trkpt>
      <trkpt lat="46.1835" lon="6.53823">
        <ele>1366.71484375</ele>
        <time>2021-08-23T16:50:22Z</time>
      </trkpt>
      <trkpt lat="46.18377" lon="6.53797">
        <ele>1362.14453125</ele>
        <time>2021-08-23T16:50:31Z</time>
      </trkpt>
      <trkpt lat="46.18399" lon="6.53784">
        <ele>1358.66015625</ele>
        <time>2021-08-23T16:50:41Z</time>
      </trkpt>
      <trkpt lat="46.18431" lon="6.53786">
        <ele>1359.71875</ele>
        <time>2021-08-23T16:50:50Z</time>
      </trkpt>
      <trkpt lat="46.18462" lon="6.53796">
        <ele>1362.99609375</ele>
        <time>2021-08-23T16:51:00Z</time>
      </trkpt>
      <trkpt lat="46.18478" lon="6.538">
        <ele>1363.23046875</ele>
        <time>2021-08-23T16:51:07Z</time>
      </trkpt>
      <trkpt lat="46.1849" lon="6.53803">
        <ele>1362.9453125</ele>
        <time>2021-08-23T16:51:11Z</time>
      </trkpt>
      <trkpt lat="46.18493" lon="6.53804">
        <ele>1363.16796875</ele>
        <time>2021-08-23T16:51:12Z</time>
      </trkpt>
      <trkpt lat="46.18495" lon="6.53805">
        <ele>1363.171875</ele>
        <time>2021-08-23T16:51:14Z</time>
      </trkpt>
      <trkpt lat="46.18507" lon="6.53805">
        <ele>1360.95703125</ele>
        <time>2021-08-23T16:51:18Z</time>
      </trkpt>
      <trkpt lat="46.18516" lon="6.53803">
        <ele>1358.48046875</ele>
        <time>2021-08-23T16:51:20Z</time>
      </trkpt>
      <trkpt lat="46.18518" lon="6.53802">
        <ele>1357.8359375</ele>
        <time>2021-08-23T16:51:21Z</time>
      </trkpt>
      <trkpt lat="46.18522" lon="6.53801">
        <ele>1356.7578125</ele>
        <time>2021-08-23T16:51:25Z</time>
      </trkpt>
      <trkpt lat="46.18524" lon="6.53803">
        <ele>1356.99609375</ele>
        <time>2021-08-23T16:51:26Z</time>
      </trkpt>
      <trkpt lat="46.18554" lon="6.53813">
        <ele>1356.63671875</ele>
        <time>2021-08-23T16:51:36Z</time>
      </trkpt>
      <trkpt lat="46.1857" lon="6.53809">
        <ele>1352.02734375</ele>
        <time>2021-08-23T16:51:42Z</time>
      </trkpt>
      <trkpt lat="46.18582" lon="6.53798">
        <ele>1345.73828125</ele>
        <time>2021-08-23T16:51:47Z</time>
      </trkpt>
      <trkpt lat="46.18585" lon="6.53795">
        <ele>1344.4375</ele>
        <time>2021-08-23T16:51:49Z</time>
      </trkpt>
      <trkpt lat="46.18587" lon="6.53792">
        <ele>1343.17578125</ele>
        <time>2021-08-23T16:51:51Z</time>
      </trkpt>
      <trkpt lat="46.1859" lon="6.53792">
        <ele>1342.93359375</ele>
        <time>2021-08-23T16:51:53Z</time>
      </trkpt>
      <trkpt lat="46.18592" lon="6.53791">
        <ele>1342.6484375</ele>
        <time>2021-08-23T16:51:54Z</time>
      </trkpt>
      <trkpt lat="46.18594" lon="6.53791">
        <ele>1342.828125</ele>
        <time>2021-08-23T16:51:55Z</time>
      </trkpt>
      <trkpt lat="46.18595" lon="6.53792">
        <ele>1343.02734375</ele>
        <time>2021-08-23T16:51:56Z</time>
      </trkpt>
      <trkpt lat="46.18602" lon="6.53793">
        <ele>1343.6484375</ele>
        <time>2021-08-23T16:52:00Z</time>
      </trkpt>
      <trkpt lat="46.18605" lon="6.53779">
        <ele>1336.828125</ele>
        <time>2021-08-23T16:52:11Z</time>
      </trkpt>
      <trkpt lat="46.18612" lon="6.53769">
        <ele>1332.62109375</ele>
        <time>2021-08-23T16:52:22Z</time>
      </trkpt>
      <trkpt lat="46.18618" lon="6.53757">
        <ele>1327.83203125</ele>
        <time>2021-08-23T16:52:35Z</time>
      </trkpt>
      <trkpt lat="46.18621" lon="6.53754">
        <ele>1326.53125</ele>
        <time>2021-08-23T16:52:41Z</time>
      </trkpt>
      <trkpt lat="46.18627" lon="6.53745">
        <ele>1322.81640625</ele>
        <time>2021-08-23T16:52:53Z</time>
      </trkpt>
      <trkpt lat="46.18631" lon="6.53742">
        <ele>1321.65625</ele>
        <time>2021-08-23T16:53:03Z</time>
      </trkpt>
      <trkpt lat="46.18636" lon="6.5373">
        <ele>1317.078125</ele>
        <time>2021-08-23T16:53:16Z</time>
      </trkpt>
      <trkpt lat="46.18641" lon="6.5373">
        <ele>1316.921875</ele>
        <time>2021-08-23T16:53:21Z</time>
      </trkpt>
      <trkpt lat="46.18648" lon="6.5373">
        <ele>1317.06640625</ele>
        <time>2021-08-23T16:53:30Z</time>
      </trkpt>
      <trkpt lat="46.1865" lon="6.53729">
        <ele>1316.99609375</ele>
        <time>2021-08-23T16:53:31Z</time>
      </trkpt>
      <trkpt lat="46.18654" lon="6.53728">
        <ele>1316.66015625</ele>
        <time>2021-08-23T16:53:34Z</time>
      </trkpt>
      <trkpt lat="46.18658" lon="6.53723">
        <ele>1314.55078125</ele>
        <time>2021-08-23T16:53:39Z</time>
      </trkpt>
      <trkpt lat="46.18668" lon="6.53712">
        <ele>1309.9375</ele>
        <time>2021-08-23T16:53:43Z</time>
      </trkpt>
      <trkpt lat="46.18678" lon="6.53703">
        <ele>1306.62109375</ele>
        <time>2021-08-23T16:53:48Z</time>
      </trkpt>
      <trkpt lat="46.1868" lon="6.53702">
        <ele>1306.31640625</ele>
        <time>2021-08-23T16:53:49Z</time>
      </trkpt>
      <trkpt lat="46.18686" lon="6.537">
        <ele>1305.29296875</ele>
        <time>2021-08-23T16:53:52Z</time>
      </trkpt>
      <trkpt lat="46.1869" lon="6.53702">
        <ele>1306.54296875</ele>
        <time>2021-08-23T16:53:58Z</time>
      </trkpt>
      <trkpt lat="46.18702" lon="6.53706">
        <ele>1308.23046875</ele>
        <time>2021-08-23T16:54:11Z</time>
      </trkpt>
      <trkpt lat="46.18718" lon="6.53703">
        <ele>1307.10546875</ele>
        <time>2021-08-23T16:54:23Z</time>
      </trkpt>
      <trkpt lat="46.18719" lon="6.53692">
        <ele>1302.578125</ele>
        <time>2021-08-23T16:54:36Z</time>
      </trkpt>
      <trkpt lat="46.18719" lon="6.53687">
        <ele>1300.61328125</ele>
        <time>2021-08-23T16:54:40Z</time>
      </trkpt>
      <trkpt lat="46.1872" lon="6.53685">
        <ele>1300.04296875</ele>
        <time>2021-08-23T16:54:41Z</time>
      </trkpt>
      <trkpt lat="46.18721" lon="6.53684">
        <ele>1299.55859375</ele>
        <time>2021-08-23T16:54:42Z</time>
      </trkpt>
      <trkpt lat="46.18722" lon="6.53682">
        <ele>1298.9765625</ele>
        <time>2021-08-23T16:54:43Z</time>
      </trkpt>
      <trkpt lat="46.18724" lon="6.5368">
        <ele>1298.34375</ele>
        <time>2021-08-23T16:54:44Z</time>
      </trkpt>
      <trkpt lat="46.18726" lon="6.53679">
        <ele>1298.07421875</ele>
        <time>2021-08-23T16:54:45Z</time>
      </trkpt>
      <trkpt lat="46.18728" lon="6.53677">
        <ele>1297.8125</ele>
        <time>2021-08-23T16:54:46Z</time>
      </trkpt>
      <trkpt lat="46.1873" lon="6.53675">
        <ele>1297.3359375</ele>
        <time>2021-08-23T16:54:47Z</time>
      </trkpt>
      <trkpt lat="46.18732" lon="6.53674">
        <ele>1296.9609375</ele>
        <time>2021-08-23T16:54:48Z</time>
      </trkpt>
      <trkpt lat="46.18734" lon="6.53673">
        <ele>1296.76953125</ele>
        <time>2021-08-23T16:54:49Z</time>
      </trkpt>
      <trkpt lat="46.18735" lon="6.53672">
        <ele>1296.52734375</ele>
        <time>2021-08-23T16:54:50Z</time>
      </trkpt>
      <trkpt lat="46.18737" lon="6.53671">
        <ele>1296.3828125</ele>
        <time>2021-08-23T16:54:51Z</time>
      </trkpt>
      <trkpt lat="46.18745" lon="6.53665">
        <ele>1295.01953125</ele>
        <time>2021-08-23T16:54:56Z</time>
      </trkpt>
      <trkpt lat="46.18747" lon="6.53664">
        <ele>1294.80859375</ele>
        <time>2021-08-23T16:54:57Z</time>
      </trkpt>
      <trkpt lat="46.18781" lon="6.5365">
        <ele>1295.875</ele>
        <time>2021-08-23T16:55:08Z</time>
      </trkpt>
      <trkpt lat="46.18808" lon="6.53641">
        <ele>1299.4609375</ele>
        <time>2021-08-23T16:55:18Z</time>
      </trkpt>
      <trkpt lat="46.18834" lon="6.53628">
        <ele>1301.484375</ele>
        <time>2021-08-23T16:55:28Z</time>
      </trkpt>
      <trkpt lat="46.18865" lon="6.53616">
        <ele>1302.50390625</ele>
        <time>2021-08-23T16:55:40Z</time>
      </trkpt>
      <trkpt lat="46.1887" lon="6.53613">
        <ele>1302.171875</ele>
        <time>2021-08-23T16:55:43Z</time>
      </trkpt>
      <trkpt lat="46.18873" lon="6.53611">
        <ele>1301.75</ele>
        <time>2021-08-23T16:55:44Z</time>
      </trkpt>
      <trkpt lat="46.18878" lon="6.53606">
        <ele>1300.3515625</ele>
        <time>2021-08-23T16:55:46Z</time>
      </trkpt>
      <trkpt lat="46.189" lon="6.53577">
        <ele>1293.578125</ele>
        <time>2021-08-23T16:55:53Z</time>
      </trkpt>
      <trkpt lat="46.18919" lon="6.53554">
        <ele>1288.984375</ele>
        <time>2021-08-23T16:55:58Z</time>
      </trkpt>
      <trkpt lat="46.18926" lon="6.53546">
        <ele>1287.875</ele>
        <time>2021-08-23T16:56:00Z</time>
      </trkpt>
      <trkpt lat="46.18934" lon="6.53535">
        <ele>1286.14453125</ele>
        <time>2021-08-23T16:56:03Z</time>
      </trkpt>
      <trkpt lat="46.18944" lon="6.53523">
        <ele>1284.0234375</ele>
        <time>2021-08-23T16:56:07Z</time>
      </trkpt>
      <trkpt lat="46.18957" lon="6.53511">
        <ele>1283.0859375</ele>
        <time>2021-08-23T16:56:11Z</time>
      </trkpt>
      <trkpt lat="46.18972" lon="6.53499">
        <ele>1283.1953125</ele>
        <time>2021-08-23T16:56:15Z</time>
      </trkpt>
      <trkpt lat="46.18974" lon="6.53495">
        <ele>1282.52734375</ele>
        <time>2021-08-23T16:56:16Z</time>
      </trkpt>
      <trkpt lat="46.18976" lon="6.53491">
        <ele>1281.4609375</ele>
        <time>2021-08-23T16:56:17Z</time>
      </trkpt>
      <trkpt lat="46.18978" lon="6.53486">
        <ele>1280.23828125</ele>
        <time>2021-08-23T16:56:18Z</time>
      </trkpt>
      <trkpt lat="46.18982" lon="6.5348">
        <ele>1278.96875</ele>
        <time>2021-08-23T16:56:19Z</time>
      </trkpt>
      <trkpt lat="46.18985" lon="6.53474">
        <ele>1277.62890625</ele>
        <time>2021-08-23T16:56:20Z</time>
      </trkpt>
      <trkpt lat="46.18999" lon="6.53455">
        <ele>1273.9140625</ele>
        <time>2021-08-23T16:56:24Z</time>
      </trkpt>
      <trkpt lat="46.19002" lon="6.53451">
        <ele>1273.1015625</ele>
        <time>2021-08-23T16:56:25Z</time>
      </trkpt>
      <trkpt lat="46.19008" lon="6.53445">
        <ele>1272</ele>
        <time>2021-08-23T16:56:27Z</time>
      </trkpt>
      <trkpt lat="46.19014" lon="6.53439">
        <ele>1271.109375</ele>
        <time>2021-08-23T16:56:30Z</time>
      </trkpt>
      <trkpt lat="46.19019" lon="6.5343">
        <ele>1268.5390625</ele>
        <time>2021-08-23T16:56:32Z</time>
      </trkpt>
      <trkpt lat="46.19021" lon="6.53426">
        <ele>1266.99609375</ele>
        <time>2021-08-23T16:56:33Z</time>
      </trkpt>
      <trkpt lat="46.19024" lon="6.53422">
        <ele>1265.83203125</ele>
        <time>2021-08-23T16:56:34Z</time>
      </trkpt>
      <trkpt lat="46.19027" lon="6.53418">
        <ele>1264.81640625</ele>
        <time>2021-08-23T16:56:35Z</time>
      </trkpt>
      <trkpt lat="46.19029" lon="6.53414">
        <ele>1263.4609375</ele>
        <time>2021-08-23T16:56:36Z</time>
      </trkpt>
      <trkpt lat="46.19033" lon="6.53408">
        <ele>1261.5</ele>
        <time>2021-08-23T16:56:38Z</time>
      </trkpt>
      <trkpt lat="46.19034" lon="6.53404">
        <ele>1259.828125</ele>
        <time>2021-08-23T16:56:39Z</time>
      </trkpt>
      <trkpt lat="46.19035" lon="6.53401">
        <ele>1258.94921875</ele>
        <time>2021-08-23T16:56:40Z</time>
      </trkpt>
      <trkpt lat="46.19036" lon="6.53398">
        <ele>1258.06640625</ele>
        <time>2021-08-23T16:56:41Z</time>
      </trkpt>
      <trkpt lat="46.19038" lon="6.53389">
        <ele>1253.89453125</ele>
        <time>2021-08-23T16:56:43Z</time>
      </trkpt>
      <trkpt lat="46.19035" lon="6.53384">
        <ele>1250.3984375</ele>
        <time>2021-08-23T16:56:45Z</time>
      </trkpt>
      <trkpt lat="46.19034" lon="6.53381">
        <ele>1248.484375</ele>
        <time>2021-08-23T16:56:46Z</time>
      </trkpt>
      <trkpt lat="46.19032" lon="6.5338">
        <ele>1247.13671875</ele>
        <time>2021-08-23T16:56:47Z</time>
      </trkpt>
      <trkpt lat="46.1903" lon="6.5338">
        <ele>1246.75390625</ele>
        <time>2021-08-23T16:56:48Z</time>
      </trkpt>
      <trkpt lat="46.19019" lon="6.53374">
        <ele>1240.87109375</ele>
        <time>2021-08-23T16:56:52Z</time>
      </trkpt>
      <trkpt lat="46.19011" lon="6.53372">
        <ele>1237.6171875</ele>
        <time>2021-08-23T16:56:56Z</time>
      </trkpt>
      <trkpt lat="46.19009" lon="6.53374">
        <ele>1238.1015625</ele>
        <time>2021-08-23T16:56:57Z</time>
      </trkpt>
      <trkpt lat="46.19006" lon="6.53375">
        <ele>1237.60546875</ele>
        <time>2021-08-23T16:56:58Z</time>
      </trkpt>
      <trkpt lat="46.19" lon="6.53375">
        <ele>1236.11328125</ele>
        <time>2021-08-23T16:57:00Z</time>
      </trkpt>
      <trkpt lat="46.18998" lon="6.53373">
        <ele>1234.89453125</ele>
        <time>2021-08-23T16:57:01Z</time>
      </trkpt>
      <trkpt lat="46.18995" lon="6.53372">
        <ele>1233.546875</ele>
        <time>2021-08-23T16:57:02Z</time>
      </trkpt>
      <trkpt lat="46.18992" lon="6.53371">
        <ele>1232.55078125</ele>
        <time>2021-08-23T16:57:03Z</time>
      </trkpt>
      <trkpt lat="46.18982" lon="6.53372">
        <ele>1230.69921875</ele>
        <time>2021-08-23T16:57:12Z</time>
      </trkpt>
      <trkpt lat="46.18978" lon="6.53369">
        <ele>1228.26953125</ele>
        <time>2021-08-23T16:57:15Z</time>
      </trkpt>
      <trkpt lat="46.18975" lon="6.53367">
        <ele>1226.89453125</ele>
        <time>2021-08-23T16:57:17Z</time>
      </trkpt>
      <trkpt lat="46.18968" lon="6.53369">
        <ele>1226.0859375</ele>
        <time>2021-08-23T16:57:32Z</time>
      </trkpt>
      <trkpt lat="46.18961" lon="6.5336">
        <ele>1220.87109375</ele>
        <time>2021-08-23T16:57:44Z</time>
      </trkpt>
      <trkpt lat="46.18958" lon="6.53364">
        <ele>1221.97265625</ele>
        <time>2021-08-23T16:57:56Z</time>
      </trkpt>
      <trkpt lat="46.18954" lon="6.53365">
        <ele>1221.5390625</ele>
        <time>2021-08-23T16:58:02Z</time>
      </trkpt>
      <trkpt lat="46.18952" lon="6.53367">
        <ele>1221.56640625</ele>
        <time>2021-08-23T16:58:03Z</time>
      </trkpt>
      <trkpt lat="46.18948" lon="6.53374">
        <ele>1223.76953125</ele>
        <time>2021-08-23T16:58:16Z</time>
      </trkpt>
      <trkpt lat="46.18952" lon="6.53371">
        <ele>1223.40625</ele>
        <time>2021-08-23T16:58:26Z</time>
      </trkpt>
      <trkpt lat="46.18961" lon="6.53365">
        <ele>1222.8125</ele>
        <time>2021-08-23T16:58:36Z</time>
      </trkpt>
      <trkpt lat="46.18969" lon="6.53361">
        <ele>1223.2578125</ele>
        <time>2021-08-23T16:58:57Z</time>
      </trkpt>
      <trkpt lat="46.18971" lon="6.53351">
        <ele>1219.33984375</ele>
        <time>2021-08-23T16:59:05Z</time>
      </trkpt>
      <trkpt lat="46.18976" lon="6.53338">
        <ele>1214.1640625</ele>
        <time>2021-08-23T16:59:19Z</time>
      </trkpt>
      <trkpt lat="46.18981" lon="6.53331">
        <ele>1212.0234375</ele>
        <time>2021-08-23T16:59:29Z</time>
      </trkpt>
      <trkpt lat="46.18987" lon="6.53326">
        <ele>1210.6484375</ele>
        <time>2021-08-23T16:59:33Z</time>
      </trkpt>
      <trkpt lat="46.18987" lon="6.53323">
        <ele>1209.6015625</ele>
        <time>2021-08-23T16:59:34Z</time>
      </trkpt>
      <trkpt lat="46.1899" lon="6.5332">
        <ele>1208.76171875</ele>
        <time>2021-08-23T16:59:36Z</time>
      </trkpt>
      <trkpt lat="46.18991" lon="6.53317">
        <ele>1207.98828125</ele>
        <time>2021-08-23T16:59:37Z</time>
      </trkpt>
      <trkpt lat="46.18992" lon="6.53316">
        <ele>1207.546875</ele>
        <time>2021-08-23T16:59:38Z</time>
      </trkpt>
      <trkpt lat="46.19002" lon="6.53302">
        <ele>1204.69140625</ele>
        <time>2021-08-23T16:59:49Z</time>
      </trkpt>
      <trkpt lat="46.19012" lon="6.53284">
        <ele>1199.57421875</ele>
        <time>2021-08-23T17:00:00Z</time>
      </trkpt>
      <trkpt lat="46.19015" lon="6.53277">
        <ele>1197.5078125</ele>
        <time>2021-08-23T17:00:02Z</time>
      </trkpt>
      <trkpt lat="46.1902" lon="6.53264">
        <ele>1193.41796875</ele>
        <time>2021-08-23T17:00:06Z</time>
      </trkpt>
      <trkpt lat="46.19031" lon="6.53238">
        <ele>1185.14453125</ele>
        <time>2021-08-23T17:00:10Z</time>
      </trkpt>
      <trkpt lat="46.19039" lon="6.53221">
        <ele>1181.26171875</ele>
        <time>2021-08-23T17:00:13Z</time>
      </trkpt>
      <trkpt lat="46.19056" lon="6.53196">
        <ele>1178.2890625</ele>
        <time>2021-08-23T17:00:18Z</time>
      </trkpt>
      <trkpt lat="46.19069" lon="6.5318">
        <ele>1176.62890625</ele>
        <time>2021-08-23T17:00:21Z</time>
      </trkpt>
      <trkpt lat="46.19085" lon="6.5316">
        <ele>1174.73828125</ele>
        <time>2021-08-23T17:00:27Z</time>
      </trkpt>
      <trkpt lat="46.19093" lon="6.53145">
        <ele>1172.12890625</ele>
        <time>2021-08-23T17:00:31Z</time>
      </trkpt>
      <trkpt lat="46.19094" lon="6.53141">
        <ele>1171.34375</ele>
        <time>2021-08-23T17:00:32Z</time>
      </trkpt>
      <trkpt lat="46.19098" lon="6.53131">
        <ele>1169.015625</ele>
        <time>2021-08-23T17:00:35Z</time>
      </trkpt>
      <trkpt lat="46.19099" lon="6.53127">
        <ele>1168.11328125</ele>
        <time>2021-08-23T17:00:36Z</time>
      </trkpt>
      <trkpt lat="46.19101" lon="6.53117">
        <ele>1165.46875</ele>
        <time>2021-08-23T17:00:40Z</time>
      </trkpt>
      <trkpt lat="46.19105" lon="6.53108">
        <ele>1163.453125</ele>
        <time>2021-08-23T17:00:46Z</time>
      </trkpt>
      <trkpt lat="46.19104" lon="6.531">
        <ele>1160.484375</ele>
        <time>2021-08-23T17:00:53Z</time>
      </trkpt>
      <trkpt lat="46.19103" lon="6.53088">
        <ele>1156.42578125</ele>
        <time>2021-08-23T17:01:04Z</time>
      </trkpt>
      <trkpt lat="46.191" lon="6.53082">
        <ele>1153.9375</ele>
        <time>2021-08-23T17:01:08Z</time>
      </trkpt>
      <trkpt lat="46.19093" lon="6.5307">
        <ele>1148.69140625</ele>
        <time>2021-08-23T17:01:17Z</time>
      </trkpt>
      <trkpt lat="46.19088" lon="6.53059">
        <ele>1144.23828125</ele>
        <time>2021-08-23T17:01:22Z</time>
      </trkpt>
      <trkpt lat="46.19088" lon="6.53052">
        <ele>1142.48046875</ele>
        <time>2021-08-23T17:01:24Z</time>
      </trkpt>
      <trkpt lat="46.19087" lon="6.5304">
        <ele>1139.45703125</ele>
        <time>2021-08-23T17:01:28Z</time>
      </trkpt>
      <trkpt lat="46.19087" lon="6.53034">
        <ele>1138.16796875</ele>
        <time>2021-08-23T17:01:30Z</time>
      </trkpt>
      <trkpt lat="46.19087" lon="6.53027">
        <ele>1136.91015625</ele>
        <time>2021-08-23T17:01:32Z</time>
      </trkpt>
      <trkpt lat="46.19086" lon="6.53025">
        <ele>1136.25390625</ele>
        <time>2021-08-23T17:01:33Z</time>
      </trkpt>
      <trkpt lat="46.19076" lon="6.53022">
        <ele>1133.921875</ele>
        <time>2021-08-23T17:01:36Z</time>
      </trkpt>
      <trkpt lat="46.19073" lon="6.53021">
        <ele>1133.15625</ele>
        <time>2021-08-23T17:01:37Z</time>
      </trkpt>
      <trkpt lat="46.19059" lon="6.53019">
        <ele>1129.515625</ele>
        <time>2021-08-23T17:01:41Z</time>
      </trkpt>
      <trkpt lat="46.19052" lon="6.53014">
        <ele>1127.44921875</ele>
        <time>2021-08-23T17:01:43Z</time>
      </trkpt>
      <trkpt lat="46.19038" lon="6.52998">
        <ele>1121.11328125</ele>
        <time>2021-08-23T17:01:47Z</time>
      </trkpt>
      <trkpt lat="46.19026" lon="6.52971">
        <ele>1113.9375</ele>
        <time>2021-08-23T17:01:50Z</time>
      </trkpt>
      <trkpt lat="46.19018" lon="6.52959">
        <ele>1110.16015625</ele>
        <time>2021-08-23T17:01:53Z</time>
      </trkpt>
      <trkpt lat="46.19016" lon="6.52955">
        <ele>1109.1171875</ele>
        <time>2021-08-23T17:01:54Z</time>
      </trkpt>
      <trkpt lat="46.19012" lon="6.52949">
        <ele>1106.8046875</ele>
        <time>2021-08-23T17:01:57Z</time>
      </trkpt>
      <trkpt lat="46.19005" lon="6.52944">
        <ele>1104.09765625</ele>
        <time>2021-08-23T17:02:01Z</time>
      </trkpt>
      <trkpt lat="46.18996" lon="6.52943">
        <ele>1101.42578125</ele>
        <time>2021-08-23T17:02:05Z</time>
      </trkpt>
      <trkpt lat="46.18987" lon="6.52941">
        <ele>1098.84765625</ele>
        <time>2021-08-23T17:02:13Z</time>
      </trkpt>
      <trkpt lat="46.18986" lon="6.52953">
        <ele>1100.3046875</ele>
        <time>2021-08-23T17:02:27Z</time>
      </trkpt>
      <trkpt lat="46.18976" lon="6.52972">
        <ele>1100.9375</ele>
        <time>2021-08-23T17:02:38Z</time>
      </trkpt>
      <trkpt lat="46.18972" lon="6.52974">
        <ele>1100.41796875</ele>
        <time>2021-08-23T17:02:51Z</time>
      </trkpt>
      <trkpt lat="46.18973" lon="6.52976">
        <ele>1100.90234375</ele>
        <time>2021-08-23T17:03:03Z</time>
      </trkpt>
      <trkpt lat="46.18974" lon="6.52974">
        <ele>1100.7890625</ele>
        <time>2021-08-23T17:03:11Z</time>
      </trkpt>
      <trkpt lat="46.18975" lon="6.52973">
        <ele>1101.02734375</ele>
        <time>2021-08-23T17:03:12Z</time>
      </trkpt>
      <trkpt lat="46.18978" lon="6.5297">
        <ele>1101.09375</ele>
        <time>2021-08-23T17:03:14Z</time>
      </trkpt>
      <trkpt lat="46.18979" lon="6.52968">
        <ele>1101.01171875</ele>
        <time>2021-08-23T17:03:15Z</time>
      </trkpt>
      <trkpt lat="46.1898" lon="6.52966">
        <ele>1100.94140625</ele>
        <time>2021-08-23T17:03:16Z</time>
      </trkpt>
      <trkpt lat="46.18981" lon="6.52964">
        <ele>1100.8828125</ele>
        <time>2021-08-23T17:03:17Z</time>
      </trkpt>
      <trkpt lat="46.18982" lon="6.52962">
        <ele>1100.7421875</ele>
        <time>2021-08-23T17:03:18Z</time>
      </trkpt>
      <trkpt lat="46.18983" lon="6.52955">
        <ele>1099.97265625</ele>
        <time>2021-08-23T17:03:23Z</time>
      </trkpt>
      <trkpt lat="46.18984" lon="6.52951">
        <ele>1099.80078125</ele>
        <time>2021-08-23T17:03:27Z</time>
      </trkpt>
      <trkpt lat="46.18986" lon="6.5295">
        <ele>1099.8828125</ele>
        <time>2021-08-23T17:03:28Z</time>
      </trkpt>
      <trkpt lat="46.1899" lon="6.52941">
        <ele>1099.42578125</ele>
        <time>2021-08-23T17:03:36Z</time>
      </trkpt>
      <trkpt lat="46.18993" lon="6.52926">
        <ele>1097.9921875</ele>
        <time>2021-08-23T17:03:48Z</time>
      </trkpt>
      <trkpt lat="46.18991" lon="6.52914">
        <ele>1095.7890625</ele>
        <time>2021-08-23T17:03:58Z</time>
      </trkpt>
      <trkpt lat="46.18991" lon="6.52912">
        <ele>1095.64453125</ele>
        <time>2021-08-23T17:03:59Z</time>
      </trkpt>
      <trkpt lat="46.18992" lon="6.52902">
        <ele>1094.265625</ele>
        <time>2021-08-23T17:04:13Z</time>
      </trkpt>
      <trkpt lat="46.18988" lon="6.52897">
        <ele>1092.59765625</ele>
        <time>2021-08-23T17:04:23Z</time>
      </trkpt>
      <trkpt lat="46.18986" lon="6.52883">
        <ele>1090.3359375</ele>
        <time>2021-08-23T17:04:36Z</time>
      </trkpt>
      <trkpt lat="46.18989" lon="6.52874">
        <ele>1089.8984375</ele>
        <time>2021-08-23T17:04:50Z</time>
      </trkpt>
      <trkpt lat="46.18992" lon="6.5287">
        <ele>1090.19140625</ele>
        <time>2021-08-23T17:05:11Z</time>
      </trkpt>
      <trkpt lat="46.18992" lon="6.52869">
        <ele>1090.11328125</ele>
        <time>2021-08-23T17:05:26Z</time>
      </trkpt>
      <trkpt lat="46.18995" lon="6.52874">
        <ele>1091.26171875</ele>
        <time>2021-08-23T17:05:42Z</time>
      </trkpt>
      <trkpt lat="46.18995" lon="6.52871">
        <ele>1091.24609375</ele>
        <time>2021-08-23T17:05:59Z</time>
      </trkpt>
      <trkpt lat="46.1899" lon="6.52866">
        <ele>1089.171875</ele>
        <time>2021-08-23T17:06:11Z</time>
      </trkpt>
      <trkpt lat="46.18988" lon="6.52865">
        <ele>1088.70703125</ele>
        <time>2021-08-23T17:06:22Z</time>
      </trkpt>
      <trkpt lat="46.18971" lon="6.52872">
        <ele>1085.65234375</ele>
        <time>2021-08-23T17:06:28Z</time>
      </trkpt>
      <trkpt lat="46.18961" lon="6.52864">
        <ele>1084.15625</ele>
        <time>2021-08-23T17:06:32Z</time>
      </trkpt>
      <trkpt lat="46.18958" lon="6.52858">
        <ele>1084.59375</ele>
        <time>2021-08-23T17:06:34Z</time>
      </trkpt>
      <trkpt lat="46.18955" lon="6.52839">
        <ele>1083.51953125</ele>
        <time>2021-08-23T17:06:39Z</time>
      </trkpt>
      <trkpt lat="46.18955" lon="6.52834">
        <ele>1083.03515625</ele>
        <time>2021-08-23T17:06:41Z</time>
      </trkpt>
      <trkpt lat="46.18954" lon="6.52831">
        <ele>1083.08984375</ele>
        <time>2021-08-23T17:06:42Z</time>
      </trkpt>
      <trkpt lat="46.18953" lon="6.52829">
        <ele>1083.23828125</ele>
        <time>2021-08-23T17:06:43Z</time>
      </trkpt>
      <trkpt lat="46.18951" lon="6.52826">
        <ele>1083.2734375</ele>
        <time>2021-08-23T17:06:44Z</time>
      </trkpt>
      <trkpt lat="46.18949" lon="6.52817">
        <ele>1082.92578125</ele>
        <time>2021-08-23T17:06:46Z</time>
      </trkpt>
      <trkpt lat="46.18948" lon="6.52811">
        <ele>1082.33984375</ele>
        <time>2021-08-23T17:06:47Z</time>
      </trkpt>
      <trkpt lat="46.18947" lon="6.52803">
        <ele>1081.72265625</ele>
        <time>2021-08-23T17:06:48Z</time>
      </trkpt>
      <trkpt lat="46.18946" lon="6.52795">
        <ele>1080.97265625</ele>
        <time>2021-08-23T17:06:49Z</time>
      </trkpt>
      <trkpt lat="46.18945" lon="6.52787">
        <ele>1080.234375</ele>
        <time>2021-08-23T17:06:50Z</time>
      </trkpt>
      <trkpt lat="46.18943" lon="6.5277">
        <ele>1078.578125</ele>
        <time>2021-08-23T17:06:52Z</time>
      </trkpt>
      <trkpt lat="46.18941" lon="6.5274">
        <ele>1075.20703125</ele>
        <time>2021-08-23T17:06:55Z</time>
      </trkpt>
      <trkpt lat="46.18942" lon="6.52729">
        <ele>1073.65625</ele>
        <time>2021-08-23T17:06:56Z</time>
      </trkpt>
      <trkpt lat="46.18943" lon="6.52719">
        <ele>1072.015625</ele>
        <time>2021-08-23T17:06:57Z</time>
      </trkpt>
      <trkpt lat="46.18947" lon="6.52698">
        <ele>1069.5</ele>
        <time>2021-08-23T17:07:00Z</time>
      </trkpt>
      <trkpt lat="46.18947" lon="6.52693">
        <ele>1068.96875</ele>
        <time>2021-08-23T17:07:01Z</time>
      </trkpt>
      <trkpt lat="46.18951" lon="6.52673">
        <ele>1067.171875</ele>
        <time>2021-08-23T17:07:05Z</time>
      </trkpt>
      <trkpt lat="46.18951" lon="6.5266">
        <ele>1066.34765625</ele>
        <time>2021-08-23T17:07:07Z</time>
      </trkpt>
      <trkpt lat="46.18955" lon="6.5264">
        <ele>1064.6640625</ele>
        <time>2021-08-23T17:07:10Z</time>
      </trkpt>
      <trkpt lat="46.18957" lon="6.5262">
        <ele>1063.328125</ele>
        <time>2021-08-23T17:07:14Z</time>
      </trkpt>
      <trkpt lat="46.18956" lon="6.52604">
        <ele>1063.4453125</ele>
        <time>2021-08-23T17:07:17Z</time>
      </trkpt>
      <trkpt lat="46.18956" lon="6.52596">
        <ele>1063.37890625</ele>
        <time>2021-08-23T17:07:18Z</time>
      </trkpt>
      <trkpt lat="46.18958" lon="6.52587">
        <ele>1062.98046875</ele>
        <time>2021-08-23T17:07:19Z</time>
      </trkpt>
      <trkpt lat="46.18961" lon="6.52571">
        <ele>1062.2109375</ele>
        <time>2021-08-23T17:07:21Z</time>
      </trkpt>
      <trkpt lat="46.18961" lon="6.52563">
        <ele>1062.22265625</ele>
        <time>2021-08-23T17:07:22Z</time>
      </trkpt>
      <trkpt lat="46.18962" lon="6.52555">
        <ele>1062.30078125</ele>
        <time>2021-08-23T17:07:23Z</time>
      </trkpt>
      <trkpt lat="46.18962" lon="6.52522">
        <ele>1063.36328125</ele>
        <time>2021-08-23T17:07:27Z</time>
      </trkpt>
      <trkpt lat="46.18962" lon="6.52514">
        <ele>1063.41015625</ele>
        <time>2021-08-23T17:07:28Z</time>
      </trkpt>
      <trkpt lat="46.18963" lon="6.52506">
        <ele>1063.35546875</ele>
        <time>2021-08-23T17:07:29Z</time>
      </trkpt>
      <trkpt lat="46.18964" lon="6.52498">
        <ele>1062.984375</ele>
        <time>2021-08-23T17:07:30Z</time>
      </trkpt>
      <trkpt lat="46.18964" lon="6.52494">
        <ele>1062.8828125</ele>
        <time>2021-08-23T17:07:31Z</time>
      </trkpt>
      <trkpt lat="46.18973" lon="6.52465">
        <ele>1061.86328125</ele>
        <time>2021-08-23T17:07:35Z</time>
      </trkpt>
      <trkpt lat="46.18975" lon="6.52459">
        <ele>1061.28515625</ele>
        <time>2021-08-23T17:07:36Z</time>
      </trkpt>
      <trkpt lat="46.18976" lon="6.52453">
        <ele>1060.95703125</ele>
        <time>2021-08-23T17:07:37Z</time>
      </trkpt>
      <trkpt lat="46.18976" lon="6.52446">
        <ele>1060.8828125</ele>
        <time>2021-08-23T17:07:38Z</time>
      </trkpt>
      <trkpt lat="46.18976" lon="6.5244">
        <ele>1060.99609375</ele>
        <time>2021-08-23T17:07:39Z</time>
      </trkpt>
      <trkpt lat="46.18975" lon="6.52433">
        <ele>1061.50390625</ele>
        <time>2021-08-23T17:07:40Z</time>
      </trkpt>
      <trkpt lat="46.18975" lon="6.52427">
        <ele>1062.08984375</ele>
        <time>2021-08-23T17:07:41Z</time>
      </trkpt>
      <trkpt lat="46.18973" lon="6.52403">
        <ele>1064.08203125</ele>
        <time>2021-08-23T17:07:46Z</time>
      </trkpt>
      <trkpt lat="46.1897" lon="6.52381">
        <ele>1066.86328125</ele>
        <time>2021-08-23T17:07:51Z</time>
      </trkpt>
      <trkpt lat="46.18969" lon="6.52376">
        <ele>1067.46875</ele>
        <time>2021-08-23T17:07:52Z</time>
      </trkpt>
      <trkpt lat="46.18968" lon="6.52372">
        <ele>1067.8515625</ele>
        <time>2021-08-23T17:07:53Z</time>
      </trkpt>
      <trkpt lat="46.18968" lon="6.52367">
        <ele>1068.0703125</ele>
        <time>2021-08-23T17:07:54Z</time>
      </trkpt>
      <trkpt lat="46.18967" lon="6.52362">
        <ele>1068.24609375</ele>
        <time>2021-08-23T17:07:55Z</time>
      </trkpt>
      <trkpt lat="46.18967" lon="6.52357">
        <ele>1068.515625</ele>
        <time>2021-08-23T17:07:56Z</time>
      </trkpt>
      <trkpt lat="46.18966" lon="6.52352">
        <ele>1068.8515625</ele>
        <time>2021-08-23T17:07:57Z</time>
      </trkpt>
      <trkpt lat="46.18965" lon="6.52343">
        <ele>1069.6796875</ele>
        <time>2021-08-23T17:07:59Z</time>
      </trkpt>
      <trkpt lat="46.18961" lon="6.52293">
        <ele>1073.125</ele>
        <time>2021-08-23T17:08:10Z</time>
      </trkpt>
      <trkpt lat="46.1896" lon="6.5223">
        <ele>1074.25390625</ele>
        <time>2021-08-23T17:08:25Z</time>
      </trkpt>
      <trkpt lat="46.18966" lon="6.52214">
        <ele>1071.7421875</ele>
        <time>2021-08-23T17:08:29Z</time>
      </trkpt>
      <trkpt lat="46.18983" lon="6.52188">
        <ele>1063.91796875</ele>
        <time>2021-08-23T17:08:35Z</time>
      </trkpt>
      <trkpt lat="46.18981" lon="6.52174">
        <ele>1064.76953125</ele>
        <time>2021-08-23T17:08:37Z</time>
      </trkpt>
      <trkpt lat="46.18976" lon="6.52153">
        <ele>1066.81640625</ele>
        <time>2021-08-23T17:08:39Z</time>
      </trkpt>
      <trkpt lat="46.18976" lon="6.52144">
        <ele>1066.890625</ele>
        <time>2021-08-23T17:08:40Z</time>
      </trkpt>
      <trkpt lat="46.18976" lon="6.52136">
        <ele>1066.5859375</ele>
        <time>2021-08-23T17:08:41Z</time>
      </trkpt>
      <trkpt lat="46.18977" lon="6.52129">
        <ele>1065.97265625</ele>
        <time>2021-08-23T17:08:42Z</time>
      </trkpt>
      <trkpt lat="46.18979" lon="6.52125">
        <ele>1065.48046875</ele>
        <time>2021-08-23T17:08:43Z</time>
      </trkpt>
      <trkpt lat="46.18984" lon="6.52114">
        <ele>1063.58203125</ele>
        <time>2021-08-23T17:08:45Z</time>
      </trkpt>
      <trkpt lat="46.19013" lon="6.52078">
        <ele>1051.23828125</ele>
        <time>2021-08-23T17:08:51Z</time>
      </trkpt>
      <trkpt lat="46.1902" lon="6.52064">
        <ele>1048.82421875</ele>
        <time>2021-08-23T17:08:53Z</time>
      </trkpt>
      <trkpt lat="46.19021" lon="6.52055">
        <ele>1048.77734375</ele>
        <time>2021-08-23T17:08:54Z</time>
      </trkpt>
      <trkpt lat="46.19022" lon="6.52045">
        <ele>1049.01953125</ele>
        <time>2021-08-23T17:08:55Z</time>
      </trkpt>
      <trkpt lat="46.19022" lon="6.52035">
        <ele>1049.7109375</ele>
        <time>2021-08-23T17:08:56Z</time>
      </trkpt>
      <trkpt lat="46.1902" lon="6.52024">
        <ele>1051.1484375</ele>
        <time>2021-08-23T17:08:57Z</time>
      </trkpt>
      <trkpt lat="46.19017" lon="6.52013">
        <ele>1052.6484375</ele>
        <time>2021-08-23T17:08:58Z</time>
      </trkpt>
      <trkpt lat="46.19012" lon="6.52002">
        <ele>1054.0703125</ele>
        <time>2021-08-23T17:08:59Z</time>
      </trkpt>
      <trkpt lat="46.19007" lon="6.51992">
        <ele>1055.5703125</ele>
        <time>2021-08-23T17:09:00Z</time>
      </trkpt>
      <trkpt lat="46.19" lon="6.51981">
        <ele>1056.83984375</ele>
        <time>2021-08-23T17:09:01Z</time>
      </trkpt>
      <trkpt lat="46.18994" lon="6.51968">
        <ele>1057.5078125</ele>
        <time>2021-08-23T17:09:02Z</time>
      </trkpt>
      <trkpt lat="46.18989" lon="6.51953">
        <ele>1056.84765625</ele>
        <time>2021-08-23T17:09:03Z</time>
      </trkpt>
      <trkpt lat="46.18986" lon="6.51937">
        <ele>1055.42578125</ele>
        <time>2021-08-23T17:09:04Z</time>
      </trkpt>
      <trkpt lat="46.18982" lon="6.51922">
        <ele>1054.03125</ele>
        <time>2021-08-23T17:09:05Z</time>
      </trkpt>
      <trkpt lat="46.1898" lon="6.51906">
        <ele>1052.328125</ele>
        <time>2021-08-23T17:09:06Z</time>
      </trkpt>
      <trkpt lat="46.1898" lon="6.51891">
        <ele>1049.72265625</ele>
        <time>2021-08-23T17:09:07Z</time>
      </trkpt>
      <trkpt lat="46.18981" lon="6.51878">
        <ele>1047.296875</ele>
        <time>2021-08-23T17:09:08Z</time>
      </trkpt>
      <trkpt lat="46.18984" lon="6.51864">
        <ele>1045.73828125</ele>
        <time>2021-08-23T17:09:09Z</time>
      </trkpt>
      <trkpt lat="46.18988" lon="6.51851">
        <ele>1043.94140625</ele>
        <time>2021-08-23T17:09:10Z</time>
      </trkpt>
      <trkpt lat="46.18993" lon="6.5184">
        <ele>1042.59375</ele>
        <time>2021-08-23T17:09:11Z</time>
      </trkpt>
      <trkpt lat="46.19001" lon="6.51819">
        <ele>1039.47265625</ele>
        <time>2021-08-23T17:09:13Z</time>
      </trkpt>
      <trkpt lat="46.19004" lon="6.51809">
        <ele>1038.16796875</ele>
        <time>2021-08-23T17:09:14Z</time>
      </trkpt>
      <trkpt lat="46.19005" lon="6.518">
        <ele>1037.3125</ele>
        <time>2021-08-23T17:09:15Z</time>
      </trkpt>
      <trkpt lat="46.19004" lon="6.51791">
        <ele>1036.89453125</ele>
        <time>2021-08-23T17:09:16Z</time>
      </trkpt>
      <trkpt lat="46.19001" lon="6.51782">
        <ele>1037.16796875</ele>
        <time>2021-08-23T17:09:17Z</time>
      </trkpt>
      <trkpt lat="46.18999" lon="6.51772">
        <ele>1037.4375</ele>
        <time>2021-08-23T17:09:18Z</time>
      </trkpt>
      <trkpt lat="46.18975" lon="6.51722">
        <ele>1041.35546875</ele>
        <time>2021-08-23T17:09:23Z</time>
      </trkpt>
      <trkpt lat="46.18963" lon="6.51689">
        <ele>1038.89453125</ele>
        <time>2021-08-23T17:09:26Z</time>
      </trkpt>
      <trkpt lat="46.18961" lon="6.51679">
        <ele>1038.16015625</ele>
        <time>2021-08-23T17:09:27Z</time>
      </trkpt>
      <trkpt lat="46.1896" lon="6.51669">
        <ele>1037.50390625</ele>
        <time>2021-08-23T17:09:28Z</time>
      </trkpt>
      <trkpt lat="46.1896" lon="6.5166">
        <ele>1036.33203125</ele>
        <time>2021-08-23T17:09:29Z</time>
      </trkpt>
      <trkpt lat="46.18962" lon="6.51651">
        <ele>1035.12890625</ele>
        <time>2021-08-23T17:09:30Z</time>
      </trkpt>
      <trkpt lat="46.18964" lon="6.51642">
        <ele>1033.69140625</ele>
        <time>2021-08-23T17:09:31Z</time>
      </trkpt>
      <trkpt lat="46.18965" lon="6.51637">
        <ele>1032.82421875</ele>
        <time>2021-08-23T17:09:32Z</time>
      </trkpt>
      <trkpt lat="46.18982" lon="6.51602">
        <ele>1027.09765625</ele>
        <time>2021-08-23T17:09:37Z</time>
      </trkpt>
      <trkpt lat="46.18988" lon="6.51586">
        <ele>1025.03125</ele>
        <time>2021-08-23T17:09:39Z</time>
      </trkpt>
      <trkpt lat="46.1899" lon="6.51576">
        <ele>1024.3203125</ele>
        <time>2021-08-23T17:09:40Z</time>
      </trkpt>
      <trkpt lat="46.18991" lon="6.51566">
        <ele>1023.94140625</ele>
        <time>2021-08-23T17:09:41Z</time>
      </trkpt>
      <trkpt lat="46.18992" lon="6.51555">
        <ele>1023.88671875</ele>
        <time>2021-08-23T17:09:42Z</time>
      </trkpt>
      <trkpt lat="46.18993" lon="6.51513">
        <ele>1022.1640625</ele>
        <time>2021-08-23T17:09:45Z</time>
      </trkpt>
      <trkpt lat="46.18995" lon="6.51498">
        <ele>1021.13671875</ele>
        <time>2021-08-23T17:09:46Z</time>
      </trkpt>
      <trkpt lat="46.19002" lon="6.51439">
        <ele>1014.98046875</ele>
        <time>2021-08-23T17:09:50Z</time>
      </trkpt>
      <trkpt lat="46.19008" lon="6.51382">
        <ele>1010.71484375</ele>
        <time>2021-08-23T17:09:54Z</time>
      </trkpt>
      <trkpt lat="46.1901" lon="6.51361">
        <ele>1008.9609375</ele>
        <time>2021-08-23T17:09:56Z</time>
      </trkpt>
      <trkpt lat="46.19009" lon="6.51352">
        <ele>1008.56640625</ele>
        <time>2021-08-23T17:09:57Z</time>
      </trkpt>
      <trkpt lat="46.19005" lon="6.51334">
        <ele>1008.1875</ele>
        <time>2021-08-23T17:09:59Z</time>
      </trkpt>
      <trkpt lat="46.19002" lon="6.51326">
        <ele>1008.26171875</ele>
        <time>2021-08-23T17:10:00Z</time>
      </trkpt>
      <trkpt lat="46.18999" lon="6.51318">
        <ele>1008.3125</ele>
        <time>2021-08-23T17:10:01Z</time>
      </trkpt>
      <trkpt lat="46.18997" lon="6.51308">
        <ele>1008.14453125</ele>
        <time>2021-08-23T17:10:02Z</time>
      </trkpt>
      <trkpt lat="46.18996" lon="6.51297">
        <ele>1007.65625</ele>
        <time>2021-08-23T17:10:03Z</time>
      </trkpt>
      <trkpt lat="46.18995" lon="6.51285">
        <ele>1006.66796875</ele>
        <time>2021-08-23T17:10:04Z</time>
      </trkpt>
      <trkpt lat="46.18994" lon="6.51273">
        <ele>1005.53515625</ele>
        <time>2021-08-23T17:10:05Z</time>
      </trkpt>
      <trkpt lat="46.18991" lon="6.51243">
        <ele>1003.296875</ele>
        <time>2021-08-23T17:10:08Z</time>
      </trkpt>
      <trkpt lat="46.18988" lon="6.51227">
        <ele>1002.21484375</ele>
        <time>2021-08-23T17:10:10Z</time>
      </trkpt>
      <trkpt lat="46.18988" lon="6.51218">
        <ele>1001.29296875</ele>
        <time>2021-08-23T17:10:11Z</time>
      </trkpt>
      <trkpt lat="46.1899" lon="6.512">
        <ele>999.90625</ele>
        <time>2021-08-23T17:10:13Z</time>
      </trkpt>
      <trkpt lat="46.18991" lon="6.51191">
        <ele>999.1484375</ele>
        <time>2021-08-23T17:10:14Z</time>
      </trkpt>
      <trkpt lat="46.18994" lon="6.51183">
        <ele>998.33984375</ele>
        <time>2021-08-23T17:10:15Z</time>
      </trkpt>
      <trkpt lat="46.19004" lon="6.51157">
        <ele>995.84765625</ele>
        <time>2021-08-23T17:10:18Z</time>
      </trkpt>
      <trkpt lat="46.19009" lon="6.51149">
        <ele>995.421875</ele>
        <time>2021-08-23T17:10:19Z</time>
      </trkpt>
      <trkpt lat="46.19015" lon="6.51143">
        <ele>994.8359375</ele>
        <time>2021-08-23T17:10:20Z</time>
      </trkpt>
      <trkpt lat="46.19022" lon="6.5114">
        <ele>993.77734375</ele>
        <time>2021-08-23T17:10:21Z</time>
      </trkpt>
      <trkpt lat="46.1903" lon="6.51138">
        <ele>992.60546875</ele>
        <time>2021-08-23T17:10:22Z</time>
      </trkpt>
      <trkpt lat="46.1904" lon="6.5114">
        <ele>990.8984375</ele>
        <time>2021-08-23T17:10:23Z</time>
      </trkpt>
      <trkpt lat="46.19048" lon="6.51139">
        <ele>989.48046875</ele>
        <time>2021-08-23T17:10:24Z</time>
      </trkpt>
      <trkpt lat="46.19055" lon="6.51136">
        <ele>988.3515625</ele>
        <time>2021-08-23T17:10:25Z</time>
      </trkpt>
      <trkpt lat="46.19062" lon="6.51131">
        <ele>987.32421875</ele>
        <time>2021-08-23T17:10:26Z</time>
      </trkpt>
      <trkpt lat="46.19066" lon="6.51124">
        <ele>986.5546875</ele>
        <time>2021-08-23T17:10:27Z</time>
      </trkpt>
      <trkpt lat="46.19069" lon="6.51114">
        <ele>986.01171875</ele>
        <time>2021-08-23T17:10:28Z</time>
      </trkpt>
      <trkpt lat="46.19071" lon="6.51104">
        <ele>985.55859375</ele>
        <time>2021-08-23T17:10:29Z</time>
      </trkpt>
      <trkpt lat="46.19077" lon="6.51083">
        <ele>984.57421875</ele>
        <time>2021-08-23T17:10:31Z</time>
      </trkpt>
      <trkpt lat="46.19084" lon="6.5106">
        <ele>983.28515625</ele>
        <time>2021-08-23T17:10:33Z</time>
      </trkpt>
      <trkpt lat="46.19092" lon="6.51033">
        <ele>981.4296875</ele>
        <time>2021-08-23T17:10:35Z</time>
      </trkpt>
      <trkpt lat="46.19096" lon="6.5102">
        <ele>980.30078125</ele>
        <time>2021-08-23T17:10:36Z</time>
      </trkpt>
      <trkpt lat="46.19101" lon="6.50997">
        <ele>979.27734375</ele>
        <time>2021-08-23T17:10:38Z</time>
      </trkpt>
      <trkpt lat="46.191" lon="6.50984">
        <ele>979.06640625</ele>
        <time>2021-08-23T17:10:39Z</time>
      </trkpt>
      <trkpt lat="46.19098" lon="6.5097">
        <ele>978.984375</ele>
        <time>2021-08-23T17:10:40Z</time>
      </trkpt>
      <trkpt lat="46.19095" lon="6.50954">
        <ele>978.3515625</ele>
        <time>2021-08-23T17:10:41Z</time>
      </trkpt>
      <trkpt lat="46.19092" lon="6.50938">
        <ele>977.390625</ele>
        <time>2021-08-23T17:10:42Z</time>
      </trkpt>
      <trkpt lat="46.1909" lon="6.50922">
        <ele>976.3203125</ele>
        <time>2021-08-23T17:10:43Z</time>
      </trkpt>
      <trkpt lat="46.19091" lon="6.50906">
        <ele>974.83203125</ele>
        <time>2021-08-23T17:10:44Z</time>
      </trkpt>
      <trkpt lat="46.19091" lon="6.50867">
        <ele>971.05078125</ele>
        <time>2021-08-23T17:10:47Z</time>
      </trkpt>
      <trkpt lat="46.19088" lon="6.50855">
        <ele>970.3046875</ele>
        <time>2021-08-23T17:10:48Z</time>
      </trkpt>
      <trkpt lat="46.19083" lon="6.50844">
        <ele>969.4765625</ele>
        <time>2021-08-23T17:10:49Z</time>
      </trkpt>
      <trkpt lat="46.19076" lon="6.50832">
        <ele>968.67578125</ele>
        <time>2021-08-23T17:10:50Z</time>
      </trkpt>
      <trkpt lat="46.1907" lon="6.5082">
        <ele>967.6015625</ele>
        <time>2021-08-23T17:10:51Z</time>
      </trkpt>
      <trkpt lat="46.19054" lon="6.50781">
        <ele>963.16015625</ele>
        <time>2021-08-23T17:10:54Z</time>
      </trkpt>
      <trkpt lat="46.19051" lon="6.50767">
        <ele>961.36328125</ele>
        <time>2021-08-23T17:10:55Z</time>
      </trkpt>
      <trkpt lat="46.19045" lon="6.50741">
        <ele>957.90234375</ele>
        <time>2021-08-23T17:10:57Z</time>
      </trkpt>
      <trkpt lat="46.19039" lon="6.5073">
        <ele>956.86328125</ele>
        <time>2021-08-23T17:10:58Z</time>
      </trkpt>
      <trkpt lat="46.19032" lon="6.50724">
        <ele>956.12890625</ele>
        <time>2021-08-23T17:10:59Z</time>
      </trkpt>
      <trkpt lat="46.19024" lon="6.5072">
        <ele>955.76171875</ele>
        <time>2021-08-23T17:11:00Z</time>
      </trkpt>
      <trkpt lat="46.19016" lon="6.50719">
        <ele>955.61328125</ele>
        <time>2021-08-23T17:11:01Z</time>
      </trkpt>
      <trkpt lat="46.19008" lon="6.50717">
        <ele>955.38671875</ele>
        <time>2021-08-23T17:11:02Z</time>
      </trkpt>
      <trkpt lat="46.18999" lon="6.50715">
        <ele>954.984375</ele>
        <time>2021-08-23T17:11:03Z</time>
      </trkpt>
      <trkpt lat="46.18982" lon="6.50709">
        <ele>953.75390625</ele>
        <time>2021-08-23T17:11:05Z</time>
      </trkpt>
      <trkpt lat="46.18972" lon="6.50708">
        <ele>953.1171875</ele>
        <time>2021-08-23T17:11:06Z</time>
      </trkpt>
      <trkpt lat="46.18963" lon="6.50708">
        <ele>952.828125</ele>
        <time>2021-08-23T17:11:07Z</time>
      </trkpt>
      <trkpt lat="46.18955" lon="6.50711">
        <ele>952.75390625</ele>
        <time>2021-08-23T17:11:08Z</time>
      </trkpt>
      <trkpt lat="46.18947" lon="6.50713">
        <ele>952.63671875</ele>
        <time>2021-08-23T17:11:09Z</time>
      </trkpt>
      <trkpt lat="46.18942" lon="6.50713">
        <ele>952.12890625</ele>
        <time>2021-08-23T17:11:10Z</time>
      </trkpt>
      <trkpt lat="46.18937" lon="6.50709">
        <ele>951.015625</ele>
        <time>2021-08-23T17:11:11Z</time>
      </trkpt>
      <trkpt lat="46.18935" lon="6.50701">
        <ele>949.49609375</ele>
        <time>2021-08-23T17:11:12Z</time>
      </trkpt>
      <trkpt lat="46.18937" lon="6.50692">
        <ele>947.9453125</ele>
        <time>2021-08-23T17:11:13Z</time>
      </trkpt>
      <trkpt lat="46.18941" lon="6.50683">
        <ele>946.92578125</ele>
        <time>2021-08-23T17:11:14Z</time>
      </trkpt>
      <trkpt lat="46.18946" lon="6.50674">
        <ele>946.33203125</ele>
        <time>2021-08-23T17:11:15Z</time>
      </trkpt>
      <trkpt lat="46.1895" lon="6.50665">
        <ele>945.64453125</ele>
        <time>2021-08-23T17:11:16Z</time>
      </trkpt>
      <trkpt lat="46.18954" lon="6.50654">
        <ele>944.734375</ele>
        <time>2021-08-23T17:11:17Z</time>
      </trkpt>
      <trkpt lat="46.18956" lon="6.50642">
        <ele>943.59765625</ele>
        <time>2021-08-23T17:11:18Z</time>
      </trkpt>
      <trkpt lat="46.18956" lon="6.5063">
        <ele>942.328125</ele>
        <time>2021-08-23T17:11:19Z</time>
      </trkpt>
      <trkpt lat="46.18954" lon="6.50617">
        <ele>941.16796875</ele>
        <time>2021-08-23T17:11:20Z</time>
      </trkpt>
      <trkpt lat="46.18951" lon="6.50605">
        <ele>939.79296875</ele>
        <time>2021-08-23T17:11:21Z</time>
      </trkpt>
      <trkpt lat="46.18946" lon="6.50594">
        <ele>938.65234375</ele>
        <time>2021-08-23T17:11:22Z</time>
      </trkpt>
      <trkpt lat="46.18941" lon="6.50583">
        <ele>937.67578125</ele>
        <time>2021-08-23T17:11:23Z</time>
      </trkpt>
      <trkpt lat="46.18936" lon="6.50572">
        <ele>936.70703125</ele>
        <time>2021-08-23T17:11:24Z</time>
      </trkpt>
      <trkpt lat="46.18931" lon="6.50561">
        <ele>935.59375</ele>
        <time>2021-08-23T17:11:25Z</time>
      </trkpt>
      <trkpt lat="46.18915" lon="6.50526">
        <ele>932.69921875</ele>
        <time>2021-08-23T17:11:30Z</time>
      </trkpt>
      <trkpt lat="46.18911" lon="6.5052">
        <ele>932.2109375</ele>
        <time>2021-08-23T17:11:31Z</time>
      </trkpt>
      <trkpt lat="46.18906" lon="6.50515">
        <ele>931.4921875</ele>
        <time>2021-08-23T17:11:32Z</time>
      </trkpt>
      <trkpt lat="46.189" lon="6.50511">
        <ele>930.76171875</ele>
        <time>2021-08-23T17:11:33Z</time>
      </trkpt>
      <trkpt lat="46.18893" lon="6.50508">
        <ele>930.07421875</ele>
        <time>2021-08-23T17:11:34Z</time>
      </trkpt>
      <trkpt lat="46.18886" lon="6.50507">
        <ele>929.45703125</ele>
        <time>2021-08-23T17:11:35Z</time>
      </trkpt>
      <trkpt lat="46.18878" lon="6.50509">
        <ele>929.0234375</ele>
        <time>2021-08-23T17:11:36Z</time>
      </trkpt>
      <trkpt lat="46.1887" lon="6.50512">
        <ele>928.703125</ele>
        <time>2021-08-23T17:11:37Z</time>
      </trkpt>
      <trkpt lat="46.18862" lon="6.50516">
        <ele>928.43359375</ele>
        <time>2021-08-23T17:11:38Z</time>
      </trkpt>
      <trkpt lat="46.18838" lon="6.50531">
        <ele>928.6015625</ele>
        <time>2021-08-23T17:11:41Z</time>
      </trkpt>
      <trkpt lat="46.18831" lon="6.50533">
        <ele>928.56640625</ele>
        <time>2021-08-23T17:11:42Z</time>
      </trkpt>
      <trkpt lat="46.18822" lon="6.50532">
        <ele>928.1953125</ele>
        <time>2021-08-23T17:11:43Z</time>
      </trkpt>
      <trkpt lat="46.18816" lon="6.50526">
        <ele>927.375</ele>
        <time>2021-08-23T17:11:44Z</time>
      </trkpt>
      <trkpt lat="46.18812" lon="6.50516">
        <ele>926.14453125</ele>
        <time>2021-08-23T17:11:45Z</time>
      </trkpt>
      <trkpt lat="46.1881" lon="6.50504">
        <ele>925.02734375</ele>
        <time>2021-08-23T17:11:46Z</time>
      </trkpt>
      <trkpt lat="46.18808" lon="6.50492">
        <ele>923.93359375</ele>
        <time>2021-08-23T17:11:47Z</time>
      </trkpt>
      <trkpt lat="46.18805" lon="6.50465">
        <ele>922.0234375</ele>
        <time>2021-08-23T17:11:49Z</time>
      </trkpt>
      <trkpt lat="46.18805" lon="6.50453">
        <ele>921.24609375</ele>
        <time>2021-08-23T17:11:50Z</time>
      </trkpt>
      <trkpt lat="46.18807" lon="6.50441">
        <ele>920.5703125</ele>
        <time>2021-08-23T17:11:51Z</time>
      </trkpt>
      <trkpt lat="46.18811" lon="6.50429">
        <ele>920.078125</ele>
        <time>2021-08-23T17:11:52Z</time>
      </trkpt>
      <trkpt lat="46.18815" lon="6.50419">
        <ele>919.796875</ele>
        <time>2021-08-23T17:11:53Z</time>
      </trkpt>
      <trkpt lat="46.1882" lon="6.5041">
        <ele>919.70703125</ele>
        <time>2021-08-23T17:11:54Z</time>
      </trkpt>
      <trkpt lat="46.18824" lon="6.50401">
        <ele>919.3828125</ele>
        <time>2021-08-23T17:11:55Z</time>
      </trkpt>
      <trkpt lat="46.18826" lon="6.50392">
        <ele>918.8515625</ele>
        <time>2021-08-23T17:11:56Z</time>
      </trkpt>
      <trkpt lat="46.18827" lon="6.50384">
        <ele>918.25390625</ele>
        <time>2021-08-23T17:11:57Z</time>
      </trkpt>
      <trkpt lat="46.18826" lon="6.50375">
        <ele>917.60546875</ele>
        <time>2021-08-23T17:11:58Z</time>
      </trkpt>
      <trkpt lat="46.18824" lon="6.50368">
        <ele>917.03125</ele>
        <time>2021-08-23T17:11:59Z</time>
      </trkpt>
      <trkpt lat="46.18823" lon="6.50362">
        <ele>916.59765625</ele>
        <time>2021-08-23T17:12:00Z</time>
      </trkpt>
      <trkpt lat="46.1882" lon="6.5035">
        <ele>915.86328125</ele>
        <time>2021-08-23T17:12:04Z</time>
      </trkpt>
      <trkpt lat="46.1882" lon="6.50348">
        <ele>915.79296875</ele>
        <time>2021-08-23T17:12:05Z</time>
      </trkpt>
      <trkpt lat="46.18821" lon="6.50346">
        <ele>915.73046875</ele>
        <time>2021-08-23T17:12:06Z</time>
      </trkpt>
      <trkpt lat="46.18822" lon="6.50344">
        <ele>915.6484375</ele>
        <time>2021-08-23T17:12:07Z</time>
      </trkpt>
      <trkpt lat="46.18824" lon="6.50342">
        <ele>915.5703125</ele>
        <time>2021-08-23T17:12:08Z</time>
      </trkpt>
      <trkpt lat="46.18827" lon="6.5034">
        <ele>915.55859375</ele>
        <time>2021-08-23T17:12:09Z</time>
      </trkpt>
      <trkpt lat="46.18831" lon="6.50339">
        <ele>915.57421875</ele>
        <time>2021-08-23T17:12:10Z</time>
      </trkpt>
      <trkpt lat="46.18872" lon="6.50321">
        <ele>914.8046875</ele>
        <time>2021-08-23T17:12:17Z</time>
      </trkpt>
      <trkpt lat="46.18879" lon="6.50317">
        <ele>914.69140625</ele>
        <time>2021-08-23T17:12:18Z</time>
      </trkpt>
      <trkpt lat="46.18901" lon="6.50309">
        <ele>914.69140625</ele>
        <time>2021-08-23T17:12:21Z</time>
      </trkpt>
      <trkpt lat="46.18938" lon="6.50301">
        <ele>914.296875</ele>
        <time>2021-08-23T17:12:26Z</time>
      </trkpt>
      <trkpt lat="46.18974" lon="6.50299">
        <ele>914.1484375</ele>
        <time>2021-08-23T17:12:31Z</time>
      </trkpt>
      <trkpt lat="46.18981" lon="6.50301">
        <ele>914.51171875</ele>
        <time>2021-08-23T17:12:32Z</time>
      </trkpt>
      <trkpt lat="46.18988" lon="6.50305">
        <ele>915.1015625</ele>
        <time>2021-08-23T17:12:33Z</time>
      </trkpt>
      <trkpt lat="46.19055" lon="6.50344">
        <ele>918.390625</ele>
        <time>2021-08-23T17:12:44Z</time>
      </trkpt>
      <trkpt lat="46.19061" lon="6.50345">
        <ele>917.96875</ele>
        <time>2021-08-23T17:12:45Z</time>
      </trkpt>
      <trkpt lat="46.19093" lon="6.50347">
        <ele>915.25390625</ele>
        <time>2021-08-23T17:12:50Z</time>
      </trkpt>
      <trkpt lat="46.19099" lon="6.5035">
        <ele>914.921875</ele>
        <time>2021-08-23T17:12:51Z</time>
      </trkpt>
      <trkpt lat="46.19163" lon="6.50389">
        <ele>913.14453125</ele>
        <time>2021-08-23T17:13:02Z</time>
      </trkpt>
      <trkpt lat="46.19168" lon="6.50394">
        <ele>912.828125</ele>
        <time>2021-08-23T17:13:03Z</time>
      </trkpt>
      <trkpt lat="46.19173" lon="6.504">
        <ele>912.640625</ele>
        <time>2021-08-23T17:13:04Z</time>
      </trkpt>
      <trkpt lat="46.19177" lon="6.50408">
        <ele>912.6484375</ele>
        <time>2021-08-23T17:13:05Z</time>
      </trkpt>
      <trkpt lat="46.19181" lon="6.50417">
        <ele>912.80078125</ele>
        <time>2021-08-23T17:13:06Z</time>
      </trkpt>
      <trkpt lat="46.19185" lon="6.50427">
        <ele>913.0390625</ele>
        <time>2021-08-23T17:13:07Z</time>
      </trkpt>
      <trkpt lat="46.19189" lon="6.50438">
        <ele>913.2421875</ele>
        <time>2021-08-23T17:13:08Z</time>
      </trkpt>
      <trkpt lat="46.19199" lon="6.50464">
        <ele>912.0703125</ele>
        <time>2021-08-23T17:13:11Z</time>
      </trkpt>
      <trkpt lat="46.19203" lon="6.50465">
        <ele>911.06640625</ele>
        <time>2021-08-23T17:13:12Z</time>
      </trkpt>
      <trkpt lat="46.19206" lon="6.50463">
        <ele>910.00390625</ele>
        <time>2021-08-23T17:13:13Z</time>
      </trkpt>
      <trkpt lat="46.19208" lon="6.50457">
        <ele>909.109375</ele>
        <time>2021-08-23T17:13:14Z</time>
      </trkpt>
      <trkpt lat="46.19209" lon="6.5045">
        <ele>908.72265625</ele>
        <time>2021-08-23T17:13:15Z</time>
      </trkpt>
      <trkpt lat="46.19208" lon="6.50443">
        <ele>908.57421875</ele>
        <time>2021-08-23T17:13:16Z</time>
      </trkpt>
      <trkpt lat="46.19206" lon="6.50434">
        <ele>908.640625</ele>
        <time>2021-08-23T17:13:17Z</time>
      </trkpt>
      <trkpt lat="46.19202" lon="6.50424">
        <ele>908.6953125</ele>
        <time>2021-08-23T17:13:18Z</time>
      </trkpt>
      <trkpt lat="46.19199" lon="6.50414">
        <ele>908.5859375</ele>
        <time>2021-08-23T17:13:19Z</time>
      </trkpt>
      <trkpt lat="46.19196" lon="6.50404">
        <ele>908.19921875</ele>
        <time>2021-08-23T17:13:20Z</time>
      </trkpt>
      <trkpt lat="46.19194" lon="6.50393">
        <ele>907.58203125</ele>
        <time>2021-08-23T17:13:21Z</time>
      </trkpt>
      <trkpt lat="46.19192" lon="6.50381">
        <ele>906.72265625</ele>
        <time>2021-08-23T17:13:22Z</time>
      </trkpt>
      <trkpt lat="46.19192" lon="6.50369">
        <ele>905.703125</ele>
        <time>2021-08-23T17:13:23Z</time>
      </trkpt>
      <trkpt lat="46.19192" lon="6.50357">
        <ele>904.47265625</ele>
        <time>2021-08-23T17:13:24Z</time>
      </trkpt>
      <trkpt lat="46.19193" lon="6.50344">
        <ele>902.91015625</ele>
        <time>2021-08-23T17:13:25Z</time>
      </trkpt>
      <trkpt lat="46.19204" lon="6.50273">
        <ele>896.19921875</ele>
        <time>2021-08-23T17:13:30Z</time>
      </trkpt>
      <trkpt lat="46.19209" lon="6.50248">
        <ele>894.52734375</ele>
        <time>2021-08-23T17:13:32Z</time>
      </trkpt>
      <trkpt lat="46.19213" lon="6.50237">
        <ele>893.80859375</ele>
        <time>2021-08-23T17:13:33Z</time>
      </trkpt>
      <trkpt lat="46.19219" lon="6.50228">
        <ele>893.05859375</ele>
        <time>2021-08-23T17:13:34Z</time>
      </trkpt>
      <trkpt lat="46.19226" lon="6.50219">
        <ele>892.265625</ele>
        <time>2021-08-23T17:13:35Z</time>
      </trkpt>
      <trkpt lat="46.19233" lon="6.50212">
        <ele>891.34765625</ele>
        <time>2021-08-23T17:13:36Z</time>
      </trkpt>
      <trkpt lat="46.1924" lon="6.50203">
        <ele>890.23046875</ele>
        <time>2021-08-23T17:13:37Z</time>
      </trkpt>
      <trkpt lat="46.19247" lon="6.50194">
        <ele>889.05078125</ele>
        <time>2021-08-23T17:13:38Z</time>
      </trkpt>
      <trkpt lat="46.19253" lon="6.50183">
        <ele>888.00390625</ele>
        <time>2021-08-23T17:13:39Z</time>
      </trkpt>
      <trkpt lat="46.19286" lon="6.50116">
        <ele>882.8203125</ele>
        <time>2021-08-23T17:13:47Z</time>
      </trkpt>
      <trkpt lat="46.1929" lon="6.50108">
        <ele>882.40234375</ele>
        <time>2021-08-23T17:13:48Z</time>
      </trkpt>
      <trkpt lat="46.19299" lon="6.50082">
        <ele>881.09765625</ele>
        <time>2021-08-23T17:13:51Z</time>
      </trkpt>
      <trkpt lat="46.19301" lon="6.50072">
        <ele>880.69140625</ele>
        <time>2021-08-23T17:13:52Z</time>
      </trkpt>
      <trkpt lat="46.19303" lon="6.50062">
        <ele>880.2890625</ele>
        <time>2021-08-23T17:13:53Z</time>
      </trkpt>
      <trkpt lat="46.19303" lon="6.50052">
        <ele>879.91796875</ele>
        <time>2021-08-23T17:13:54Z</time>
      </trkpt>
      <trkpt lat="46.19303" lon="6.50043">
        <ele>879.58984375</ele>
        <time>2021-08-23T17:13:55Z</time>
      </trkpt>
      <trkpt lat="46.193" lon="6.50025">
        <ele>879.0234375</ele>
        <time>2021-08-23T17:13:57Z</time>
      </trkpt>
      <trkpt lat="46.19287" lon="6.49971">
        <ele>876.21484375</ele>
        <time>2021-08-23T17:14:03Z</time>
      </trkpt>
      <trkpt lat="46.19286" lon="6.49961">
        <ele>875.7265625</ele>
        <time>2021-08-23T17:14:04Z</time>
      </trkpt>
      <trkpt lat="46.19285" lon="6.49951">
        <ele>874.98828125</ele>
        <time>2021-08-23T17:14:05Z</time>
      </trkpt>
      <trkpt lat="46.19286" lon="6.49941">
        <ele>874.265625</ele>
        <time>2021-08-23T17:14:06Z</time>
      </trkpt>
      <trkpt lat="46.19287" lon="6.49931">
        <ele>873.77734375</ele>
        <time>2021-08-23T17:14:07Z</time>
      </trkpt>
      <trkpt lat="46.19287" lon="6.49921">
        <ele>873.41796875</ele>
        <time>2021-08-23T17:14:08Z</time>
      </trkpt>
      <trkpt lat="46.19287" lon="6.49911">
        <ele>873.0546875</ele>
        <time>2021-08-23T17:14:09Z</time>
      </trkpt>
      <trkpt lat="46.19286" lon="6.49901">
        <ele>872.3828125</ele>
        <time>2021-08-23T17:14:10Z</time>
      </trkpt>
      <trkpt lat="46.19282" lon="6.49881">
        <ele>870.97265625</ele>
        <time>2021-08-23T17:14:12Z</time>
      </trkpt>
      <trkpt lat="46.1927" lon="6.49837">
        <ele>869.359375</ele>
        <time>2021-08-23T17:14:17Z</time>
      </trkpt>
      <trkpt lat="46.19272" lon="6.49831">
        <ele>869.09375</ele>
        <time>2021-08-23T17:14:18Z</time>
      </trkpt>
      <trkpt lat="46.19275" lon="6.49826">
        <ele>868.7578125</ele>
        <time>2021-08-23T17:14:19Z</time>
      </trkpt>
      <trkpt lat="46.19295" lon="6.49805">
        <ele>867.2578125</ele>
        <time>2021-08-23T17:14:23Z</time>
      </trkpt>
      <trkpt lat="46.19301" lon="6.49801">
        <ele>867.10546875</ele>
        <time>2021-08-23T17:14:24Z</time>
      </trkpt>
      <trkpt lat="46.19308" lon="6.49799">
        <ele>867.02734375</ele>
        <time>2021-08-23T17:14:25Z</time>
      </trkpt>
      <trkpt lat="46.19314" lon="6.49798">
        <ele>866.99609375</ele>
        <time>2021-08-23T17:14:26Z</time>
      </trkpt>
      <trkpt lat="46.19321" lon="6.49798">
        <ele>866.98046875</ele>
        <time>2021-08-23T17:14:27Z</time>
      </trkpt>
      <trkpt lat="46.19392" lon="6.498">
        <ele>868.47265625</ele>
        <time>2021-08-23T17:14:38Z</time>
      </trkpt>
      <trkpt lat="46.19475" lon="6.49788">
        <ele>872.4140625</ele>
        <time>2021-08-23T17:14:52Z</time>
      </trkpt>
      <trkpt lat="46.1951" lon="6.4979">
        <ele>874.3984375</ele>
        <time>2021-08-23T17:14:58Z</time>
      </trkpt>
      <trkpt lat="46.19523" lon="6.49791">
        <ele>875.16015625</ele>
        <time>2021-08-23T17:15:01Z</time>
      </trkpt>
      <trkpt lat="46.19526" lon="6.49788">
        <ele>875.25</ele>
        <time>2021-08-23T17:15:02Z</time>
      </trkpt>
      <trkpt lat="46.19527" lon="6.49783">
        <ele>875.28515625</ele>
        <time>2021-08-23T17:15:03Z</time>
      </trkpt>
      <trkpt lat="46.19527" lon="6.49779">
        <ele>875.296875</ele>
        <time>2021-08-23T17:15:04Z</time>
      </trkpt>
      <trkpt lat="46.19527" lon="6.49773">
        <ele>875.296875</ele>
        <time>2021-08-23T17:15:05Z</time>
      </trkpt>
      <trkpt lat="46.19526" lon="6.49766">
        <ele>875.25</ele>
        <time>2021-08-23T17:15:06Z</time>
      </trkpt>
      <trkpt lat="46.19524" lon="6.4976">
        <ele>875.17578125</ele>
        <time>2021-08-23T17:15:07Z</time>
      </trkpt>
      <trkpt lat="46.19522" lon="6.49753">
        <ele>875.10546875</ele>
        <time>2021-08-23T17:15:08Z</time>
      </trkpt>
      <trkpt lat="46.19519" lon="6.49747">
        <ele>875.01953125</ele>
        <time>2021-08-23T17:15:09Z</time>
      </trkpt>
      <trkpt lat="46.19516" lon="6.49742">
        <ele>874.94921875</ele>
        <time>2021-08-23T17:15:10Z</time>
      </trkpt>
      <trkpt lat="46.19513" lon="6.49737">
        <ele>874.984375</ele>
        <time>2021-08-23T17:15:11Z</time>
      </trkpt>
      <trkpt lat="46.19512" lon="6.49732">
        <ele>875.05078125</ele>
        <time>2021-08-23T17:15:12Z</time>
      </trkpt>
      <trkpt lat="46.19512" lon="6.49726">
        <ele>875.20703125</ele>
        <time>2021-08-23T17:15:13Z</time>
      </trkpt>
      <trkpt lat="46.19513" lon="6.49721">
        <ele>875.4296875</ele>
        <time>2021-08-23T17:15:14Z</time>
      </trkpt>
      <trkpt lat="46.19514" lon="6.49717">
        <ele>875.625</ele>
        <time>2021-08-23T17:15:15Z</time>
      </trkpt>
      <trkpt lat="46.19514" lon="6.49712">
        <ele>875.80078125</ele>
        <time>2021-08-23T17:15:16Z</time>
      </trkpt>
      <trkpt lat="46.19513" lon="6.49709">
        <ele>875.90234375</ele>
        <time>2021-08-23T17:15:17Z</time>
      </trkpt>
      <trkpt lat="46.19512" lon="6.49705">
        <ele>875.9375</ele>
        <time>2021-08-23T17:15:18Z</time>
      </trkpt>
      <trkpt lat="46.1951" lon="6.49703">
        <ele>875.95703125</ele>
        <time>2021-08-23T17:15:19Z</time>
      </trkpt>
      <trkpt lat="46.19508" lon="6.49701">
        <ele>875.94140625</ele>
        <time>2021-08-23T17:15:20Z</time>
      </trkpt>
      <trkpt lat="46.19506" lon="6.49699">
        <ele>875.9140625</ele>
        <time>2021-08-23T17:15:21Z</time>
      </trkpt>
      <trkpt lat="46.19486" lon="6.49682">
        <ele>875.90234375</ele>
        <time>2021-08-23T17:15:30Z</time>
      </trkpt>
      <trkpt lat="46.19469" lon="6.49655">
        <ele>876.53125</ele>
        <time>2021-08-23T17:15:40Z</time>
      </trkpt>
      <trkpt lat="46.19464" lon="6.49631">
        <ele>878.1640625</ele>
        <time>2021-08-23T17:15:47Z</time>
      </trkpt>
      <trkpt lat="46.19462" lon="6.49622">
        <ele>879.06640625</ele>
        <time>2021-08-23T17:15:51Z</time>
      </trkpt>
      <trkpt lat="46.1946" lon="6.49622">
        <ele>879</ele>
        <time>2021-08-23T17:15:52Z</time>
      </trkpt>
      <trkpt lat="46.19459" lon="6.49622">
        <ele>878.88671875</ele>
        <time>2021-08-23T17:15:53Z</time>
      </trkpt>
      <trkpt lat="46.19458" lon="6.49625">
        <ele>878.609375</ele>
        <time>2021-08-23T17:15:54Z</time>
      </trkpt>
      <trkpt lat="46.19457" lon="6.49628">
        <ele>878.21484375</ele>
        <time>2021-08-23T17:15:55Z</time>
      </trkpt>
      <trkpt lat="46.19458" lon="6.49632">
        <ele>877.80078125</ele>
        <time>2021-08-23T17:15:56Z</time>
      </trkpt>
      <trkpt lat="46.19459" lon="6.49636">
        <ele>877.50390625</ele>
        <time>2021-08-23T17:15:57Z</time>
      </trkpt>
      <trkpt lat="46.19459" lon="6.49641">
        <ele>877.15234375</ele>
        <time>2021-08-23T17:15:58Z</time>
      </trkpt>
      <trkpt lat="46.19441" lon="6.49643">
        <ele>876.0390625</ele>
        <time>2021-08-23T17:16:04Z</time>
      </trkpt>
      <trkpt lat="46.19434" lon="6.4964">
        <ele>875.9765625</ele>
        <time>2021-08-23T17:16:11Z</time>
      </trkpt>
      <trkpt lat="46.19422" lon="6.49633">
        <ele>875.95703125</ele>
        <time>2021-08-23T17:16:16Z</time>
      </trkpt>
      <trkpt lat="46.19416" lon="6.49644">
        <ele>874.32421875</ele>
        <time>2021-08-23T17:16:25Z</time>
      </trkpt>
      <trkpt lat="46.19419" lon="6.49646">
        <ele>874.22265625</ele>
        <time>2021-08-23T17:16:39Z</time>
      </trkpt>
      <trkpt lat="46.19419" lon="6.49648">
        <ele>874.11328125</ele>
        <time>2021-08-23T17:16:56Z</time>
      </trkpt>
      <trkpt lat="46.19421" lon="6.49646">
        <ele>874.48046875</ele>
        <time>2021-08-23T17:17:21Z</time>
      </trkpt>
      <trkpt lat="46.1942" lon="6.49648">
        <ele>874.2109375</ele>
        <time>2021-08-23T17:17:59Z</time>
      </trkpt>
      <trkpt lat="46.19418" lon="6.49648">
        <ele>873.9765625</ele>
        <time>2021-08-23T17:18:39Z</time>
      </trkpt>
      <trkpt lat="46.19418" lon="6.4965">
        <ele>873.828125</ele>
        <time>2021-08-23T17:18:42Z</time>
      </trkpt>
    </trkseg>
  </trk>
</gpx>